[[{"header":{"parameterUnit":"m.s-1","parameterCategory":1,"la1":31.0,"la2":29.5877,"lo1":-88.7671,"lo2":-86.6584,"dy":0.0162,"dx":0.0185,"nx":115,"ny":88,"refTime":"2023-09-21T00:00:00:Z","depth":0,"parameterNumber":2,"parameterNumberName":"U-component_of_WINDS"},"data":[0.0,0.0,0.0,0.0,0.0,0.0,0.0,0.0,0.0,0.0,0.0,0.0,0.0,0.0,0.0,0.0,0.0,0.0,0.0,0.0,0.0,0.0,0.0,0.0,0.0,0.0,0.0,0.0,0.0,0.0,0.0,0.0,0.0,0.0,0.0,0.0,0.0,0.0,0.0,0.0,0.0,0.0,0.0,0.0,0.0,0.0,0.0,0.0,0.0,0.0,0.0,0.0,0.0,0.0,0.0,0.0,0.0,0.0,0.0,0.0,0.0,0.0,0.0,0.0,0.0,0.0,0.0,0.0,0.0,0.0,0.0,0.0,0.0,0.0,0.0,0.0,0.0,0.0,0.0,0.0,0.0,0.0,0.0,0.0,0.0,0.0,0.0,0.0,0.0,0.0,0.0,0.0,0.0,0.0,0.0,0.0,0.0,0.0,0.0,0.0,0.0,0.0,0.0,0.0,0.0,0.0,0.0,0.0,0.0,0.0,0.0,0.0,0.0,0.0,0.0,0.0,0.0,0.0,0.0,0.0,0.0,0.0,0.0,0.0,0.0,0.0,0.0,0.0,0.0,0.0,0.0,0.0,0.0,0.0,0.0,0.0,0.0,0.0,0.0,0.0,0.0,0.0,0.0,0.0,0.0,0.0,0.0,0.0,0.0,0.0,0.0,0.0,0.0,0.0,0.0,0.0,0.0,0.0,0.0,0.0,0.0,0.0,0.0,0.0,0.0,0.0,0.0,0.0,0.0,0.0,0.0,0.0,0.0,0.0,0.0,0.0,0.0,0.0,0.0,0.0,0.0,0.0,0.0,0.0,0.0,0.0,0.0,0.0,0.0,0.0,0.0,0.0,0.0,0.0,0.0,0.0,0.0,0.0,0.0,0.0,0.0,0.0,0.0,0.0,0.0,0.0,0.0,0.0,0.0,0.0,0.0,0.0,0.0,0.0,0.0,0.0,0.0,0.0,0.0,0.0,0.0,0.0,0.0,0.0,0.0,0.0,0.0,0.0,0.0,0.0,0.0,0.0,0.0,0.0,0.0,0.0,0.0,0.0,0.0,0.0,0.0,0.0,0.0,0.0,0.0,0.0,0.0,0.0,0.0,0.0,0.0,0.0,0.0,0.0,0.0,0.0,0.0,0.0,0.0,0.0,0.0,0.0,0.0,0.0,0.0,0.0,0.0,0.0,0.0,0.0,0.0,0.0,0.0,0.0,0.0,0.0,0.0,0.0,0.0,0.0,0.0,0.0,0.0,0.0,0.0,0.0,0.0,0.0,0.0,0.0,0.0,0.0,0.0,0.0,0.0,0.0,0.0,0.0,0.0,0.0,0.0,0.0,0.0,0.0,0.0,0.0,0.0,0.0,0.0,0.0,0.0,0.0,0.0,0.0,0.0,0.0,0.0,0.0,0.0,0.0,0.0,0.0,0.0,0.0,0.0,0.0,0.0,0.0,0.0,0.0,0.0,0.0,0.0,0.0,0.0,0.0,0.0,0.0,0.0,0.0,0.0,0.0,0.0,0.0,0.0,0.0,0.0,0.0,0.0,0.0,0.0,0.0,0.0,0.0,0.0,0.0,0.0,0.0,0.0,0.0,0.0,0.0,0.0,0.0,0.0,0.0,0.0,0.0,0.0,0.0,0.0,0.0,0.0,0.0,0.0,0.0,0.0,0.0,0.0,0.0,0.0,0.0,0.0,0.0,0.0,0.0,0.0,0.0,0.0,0.0,0.0,0.0,0.0,0.0,0.0,0.0,0.0,0.0,0.0,0.0,0.0,0.0,0.0,0.0,0.0,0.0,0.0,0.0,0.0,0.0,0.0,0.0,0.0,0.0,0.0,0.0,0.0,0.0,0.0,0.0,0.0,0.0,0.0,0.0,0.0,0.0,0.0,0.0,0.0,0.0,0.0,0.0,0.0,0.0,0.0,0.0,0.0,0.0,0.0,0.0,0.0,0.0,0.0,0.0,0.0,0.0,0.0,0.0,0.0,0.0,0.0,0.0,0.0,0.0,0.0,0.0,0.0,0.0,0.0,0.0,0.0,0.0,0.0,0.0,0.0,0.0,0.0,0.0,0.0,0.0,0.0,0.0,0.0,0.0,0.0,0.0,0.0,0.0,0.0,0.0,0.0,0.0,0.0,0.0,0.0,0.0,0.0,0.0,0.0,0.0,0.0,0.0,0.0,0.0,0.0,0.0,0.0,0.0,0.0,0.0,0.0,0.0,0.0,0.0,0.0,0.0,0.0,0.0,0.0,0.0,0.0,0.0,0.0,0.0,0.0,0.0,0.0,0.0,0.0,0.0,0.0,0.0,0.0,0.0,0.0,0.0,0.0,0.0,0.0,0.0,0.0,0.0,0.0,0.0,0.0,0.0,0.0,0.0,0.0,0.0,0.0,0.0,0.0,0.0,0.0,0.0,0.0,0.0,0.0,0.0,0.0,0.0,0.0,0.0,0.0,0.0,0.0,0.0,0.0,0.0,0.0,0.0,0.0,0.0,0.0,0.0,0.0,0.0,0.0,0.0,0.0,0.0,0.0,0.0,0.0,0.0,0.0,0.0,0.0,0.0,0.0,0.0,0.0,0.0,0.0,0.0,0.0,0.0,0.0,0.0,0.0,0.0,0.0,0.0,0.0,0.0,0.0,0.0,0.0,0.0,0.0,0.0,0.0,0.0,0.0,0.0,0.0,0.0,0.0,0.0,0.0,0.0,0.0,0.0,0.0,0.0,0.0,0.0,0.0,0.0,0.0,0.0,0.0,0.0,0.0,0.0,0.0,0.0,0.0,0.0,0.0,0.0,0.0,0.0,0.0,0.0,0.0,0.0,0.0,0.0,0.0,0.0,0.0,0.0,0.0,0.0,0.0,0.0,0.0,0.0,0.0,0.0,0.0,0.0,0.0,0.0,0.0,0.0,0.0,0.0,0.0,0.0,0.0,0.0,0.0,0.0,0.0,0.0,0.0,0.0,0.0,0.0,0.0,0.0,0.0,0.0,0.0,0.0,0.0,0.0,0.0,0.0,0.0,0.0,0.0,0.0,0.0,0.0,0.0,0.0,0.0,0.0,0.0,0.0,0.0,0.0,0.0,0.0,0.0,0.0,0.0,0.0,0.0,0.0,0.0,0.0,0.0,0.0,0.0,0.0,0.0,0.0,0.0,0.0,0.0,0.0,0.0,0.0,0.0,0.0,0.0,0.0,0.0,0.0,0.0,0.0,0.0,0.0,0.0,0.0,0.0,0.0,0.0,0.0,0.0,0.0,0.0,0.0,0.0,0.0,0.0,0.0,0.0,0.0,0.0,0.0,0.0,0.0,0.0,0.0,0.0,0.0,0.0,0.0,0.0,0.0,0.0,0.0,0.0,0.0,0.0,0.0,0.0,0.0,0.0,0.0,0.0,0.0,0.0,0.0,0.0,0.0,0.0,0.0,0.0,0.0,0.0,0.0,0.0,0.0,0.0,0.0,0.0,0.0,0.0,0.0,0.0,0.0,0.0,0.0,0.0,0.0,0.0,0.0,0.0,0.0,0.0,0.0,0.0,0.0,0.0,0.0,0.0,0.0,0.0,0.0,0.0,0.0,0.0,0.0,0.0,0.0,0.0,0.0,0.0,0.0,0.0,0.0,0.0,0.0,0.0,0.0,0.0,0.0,0.0,0.0,0.0,0.0,0.0,0.0,0.0,0.0,0.0,0.0,0.0,0.0,0.0,0.0,0.0,0.0,0.0,0.0,0.0,0.0,0.0,0.0,0.0,0.0,0.0,0.0,0.0,0.0,0.0,0.0,0.0,0.0,0.0,0.0,0.0,0.0,0.0,0.0,0.0,0.0,0.0,0.0,0.0,0.0,0.0,0.0,0.0,0.0,0.0,0.0,0.0,0.0,0.0,0.0,0.0,0.0,0.0,0.0,0.0,0.0,0.0,0.0,0.0,0.0,0.0,0.0,0.0,0.0,0.0,0.0,0.0,0.0,0.0,0.0,0.0,0.0,0.0,0.0,0.0,0.0,0.0,0.0,0.0,0.0,0.0,0.0,0.0,0.0,0.0,0.0,0.0,0.0,0.0,0.0,0.0,0.0,0.0,0.0,0.0,0.0,0.0,0.0,0.0,0.0,0.0,0.0,0.0,0.0,0.0,0.0,0.0,0.0,0.0,0.0,0.0,0.0,0.0,0.0,0.0,0.0,0.0,0.0,0.0,0.0,0.0,0.0,0.0,0.0,0.0,0.0,0.0,0.0,0.0,0.0,0.0,0.0,0.0,0.0,0.0,0.0,0.0,0.0,-1.4673,0.0,0.0,0.0,0.0,0.0,0.0,0.0,0.0,0.0,0.0,0.0,0.0,0.0,0.0,0.0,0.0,0.0,0.0,0.0,0.0,0.0,0.0,0.0,0.0,0.0,0.0,0.0,0.0,0.0,0.0,0.0,0.0,0.0,0.0,0.0,0.0,0.0,0.0,0.0,0.0,0.0,0.0,0.0,0.0,0.0,0.0,0.0,0.0,0.0,0.0,0.0,0.0,0.0,0.0,0.0,0.0,0.0,0.0,0.0,0.0,0.0,0.0,0.0,0.0,0.0,0.0,0.0,0.0,0.0,0.0,0.0,0.0,0.0,0.0,0.0,0.0,0.0,0.0,0.0,0.0,0.0,0.0,0.0,0.0,0.0,0.0,0.0,0.0,0.0,0.0,0.0,0.0,0.0,0.0,0.0,0.0,0.0,0.0,0.0,0.0,0.0,0.0,0.0,0.0,0.0,0.0,0.0,0.0,0.0,0.0,-1.3621,-1.3668,-1.38,-1.3952,-1.4046,0.0,0.0,0.0,0.0,0.0,0.0,0.0,0.0,0.0,0.0,0.0,0.0,0.0,0.0,0.0,0.0,0.0,0.0,0.0,0.0,0.0,0.0,0.0,0.0,0.0,0.0,0.0,0.0,0.0,0.0,0.0,0.0,0.0,0.0,0.0,0.0,0.0,0.0,0.0,0.0,0.0,0.0,0.0,0.0,0.0,0.0,0.0,0.0,0.0,0.0,0.0,0.0,0.0,0.0,0.0,0.0,0.0,0.0,0.0,0.0,0.0,0.0,0.0,0.0,0.0,0.0,0.0,0.0,0.0,0.0,0.0,0.0,0.0,0.0,0.0,0.0,0.0,0.0,0.0,0.0,0.0,0.0,0.0,0.0,0.0,0.0,0.0,0.0,0.0,0.0,0.0,0.0,0.0,0.0,0.0,0.0,0.0,0.0,0.0,0.0,0.0,0.0,0.0,0.0,0.0,0.0,0.0,0.0,0.0,0.0,0.0,0.0,-1.3382,-1.343,-1.343,0.0,0.0,0.0,0.0,0.0,0.0,0.0,0.0,0.0,0.0,0.0,0.0,0.0,0.0,0.0,0.0,0.0,0.0,0.0,0.0,0.0,0.0,0.0,0.0,0.0,0.0,0.0,0.0,0.0,0.0,0.0,0.0,0.0,0.0,0.0,0.0,0.0,0.0,0.0,0.0,0.0,0.0,0.0,0.0,0.0,0.0,0.0,0.0,0.0,0.0,0.0,0.0,0.0,0.0,0.0,0.0,0.0,0.0,0.0,0.0,0.0,0.0,0.0,0.0,0.0,0.0,0.0,0.0,0.0,0.0,0.0,0.0,0.0,0.0,0.0,0.0,0.0,0.0,0.0,0.0,0.0,0.0,0.0,0.0,0.0,0.0,0.0,0.0,0.0,0.0,0.0,0.0,0.0,0.0,0.0,0.0,0.0,0.0,0.0,0.0,0.0,0.0,0.0,0.0,0.0,0.0,0.0,0.0,0.0,0.0,-1.2774,-1.2774,-1.2871,0.0,-1.2978,0.0,0.0,0.0,0.0,0.0,0.0,0.0,0.0,0.0,0.0,0.0,0.0,0.0,0.0,0.0,0.0,0.0,0.0,0.0,0.0,0.0,0.0,0.0,0.0,0.0,0.0,0.0,0.0,0.0,0.0,0.0,0.0,0.0,0.0,0.0,0.0,0.0,0.0,0.0,0.0,0.0,0.0,0.0,0.0,0.0,0.0,0.0,0.0,0.0,0.0,0.0,0.0,0.0,0.0,0.0,0.0,0.0,0.0,0.0,0.0,0.0,0.0,0.0,0.0,0.0,0.0,0.0,0.0,0.0,0.0,0.0,0.0,0.0,0.0,0.0,0.0,0.0,0.0,0.0,0.0,0.0,0.0,0.0,0.0,0.0,0.0,0.0,0.0,0.0,0.0,0.0,0.0,0.0,0.0,0.0,0.0,0.0,0.0,0.0,0.0,0.0,0.0,0.0,0.0,0.0,0.0,0.0,0.0,0.0,0.0,-1.2578,-1.2578,-1.2529,-1.2529,0.0,0.0,0.0,0.0,0.0,0.0,0.0,0.0,0.0,0.0,0.0,0.0,0.0,0.0,0.0,0.0,0.0,0.0,0.0,0.0,0.0,0.0,0.0,0.0,0.0,0.0,0.0,0.0,0.0,0.0,0.0,0.0,0.0,0.0,0.0,0.0,0.0,0.0,0.0,0.0,0.0,0.0,0.0,0.0,0.0,0.0,0.0,0.0,0.0,0.0,0.0,0.0,0.0,0.0,0.0,0.0,0.0,0.0,0.0,0.0,0.0,0.0,0.0,0.0,0.0,0.0,0.0,0.0,0.0,0.0,0.0,0.0,0.0,0.0,0.0,0.0,0.0,0.0,0.0,0.0,0.0,0.0,0.0,0.0,0.0,0.0,0.0,0.0,0.0,0.0,0.0,0.0,0.0,0.0,0.0,0.0,0.0,0.0,0.0,0.0,0.0,0.0,0.0,0.0,0.0,0.0,0.0,0.0,0.0,0.0,-1.2224,-1.2283,-1.2274,-1.2175,-1.2067,-1.1918,0.0,0.0,0.0,0.0,0.0,0.0,0.0,0.0,0.0,0.0,0.0,0.0,0.0,0.0,0.0,0.0,0.0,0.0,0.0,0.0,0.0,0.0,0.0,0.0,0.0,0.0,0.0,0.0,0.0,0.0,0.0,0.0,0.0,0.0,0.0,0.0,0.0,0.0,0.0,0.0,0.0,0.0,0.0,0.0,0.0,0.0,0.0,0.0,0.0,0.0,0.0,0.0,0.0,0.0,0.0,0.0,0.0,0.0,0.0,0.0,0.0,0.0,0.0,0.0,0.0,0.0,0.0,0.0,0.0,0.0,0.0,0.0,0.0,0.0,0.0,0.0,0.0,0.0,0.0,0.0,0.0,0.0,0.0,0.0,0.0,0.0,0.0,0.0,0.0,0.0,0.0,0.0,0.0,0.0,0.0,0.0,0.0,0.0,0.0,0.0,0.0,0.0,0.0,0.0,0.0,0.0,0.0,0.0,-1.1719,-1.1719,-1.1719,-1.1719,-1.1728,-1.1678,0.0,0.0,0.0,0.0,0.0,0.0,0.0,0.0,0.0,0.0,0.0,0.0,0.0,0.0,0.0,0.0,0.0,0.0,0.0,0.0,0.0,0.0,0.0,0.0,0.0,0.0,0.0,0.0,0.0,0.0,0.0,0.0,0.0,0.0,0.0,0.0,0.0,0.0,0.0,0.0,0.0,0.0,0.0,0.0,0.0,0.0,0.0,0.0,0.0,0.0,0.0,0.0,0.0,0.0,0.0,0.0,0.0,0.0,0.0,0.0,0.0,0.0,0.0,0.0,0.0,0.0,0.0,0.0,0.0,0.0,0.0,0.0,0.0,0.0,0.0,0.0,0.0,0.0,0.0,0.0,0.0,0.0,0.0,0.0,0.0,0.0,0.0,0.0,0.0,0.0,0.0,0.0,0.0,0.0,0.0,0.0,0.0,0.0,0.0,0.0,0.0,0.0,0.0,0.0,0.0,0.0,0.0,0.0,0.0,-1.1569,-1.1678,-1.1678,-1.1569,-1.1477,-1.1368,0.0,0.0,0.0,0.0,0.0,0.0,0.0,0.0,0.0,0.0,0.0,0.0,0.0,0.0,0.0,0.0,0.0,0.0,0.0,0.0,0.0,0.0,0.0,0.0,0.0,0.0,0.0,0.0,0.0,0.0,0.0,0.0,0.0,0.0,0.0,0.0,0.0,0.0,0.0,0.0,0.0,0.0,0.0,0.0,0.0,0.0,0.0,0.0,0.0,0.0,0.0,0.0,0.0,0.0,0.0,0.0,0.0,0.0,0.0,0.0,0.0,0.0,0.0,0.0,0.0,0.0,0.0,0.0,0.0,0.0,0.0,0.0,0.0,0.0,0.0,0.0,0.0,0.0,0.0,0.0,0.0,0.0,0.0,0.0,0.0,0.0,0.0,0.0,0.0,0.0,0.0,0.0,0.0,0.0,0.0,0.0,0.0,0.0,0.0,0.0,0.0,0.0,0.0,0.0,0.0,0.0,0.0,0.0,0.0,-1.1418,0.0,-1.1528,-1.1418,-1.1326,-1.1167,0.0,0.0,0.0,0.0,0.0,0.0,0.0,0.0,0.0,0.0,0.0,0.0,0.0,0.0,0.0,0.0,0.0,0.0,0.0,0.0,0.0,0.0,0.0,0.0,0.0,0.0,0.0,0.0,0.0,0.0,0.0,0.0,0.0,0.0,0.0,0.0,0.0,0.0,0.0,0.0,0.0,0.0,0.0,0.0,0.0,0.0,0.0,0.0,0.0,0.0,0.0,0.0,0.0,0.0,0.0,0.0,0.0,0.0,0.0,0.0,0.0,0.0,0.0,0.0,0.0,0.0,0.0,0.0,0.0,0.0,0.0,0.0,0.0,0.0,0.0,0.0,0.0,0.0,0.0,0.0,0.0,0.0,0.0,0.0,0.0,0.0,0.0,0.0,0.0,0.0,0.0,0.0,0.0,0.0,0.0,0.0,0.0,0.0,0.0,0.0,0.0,0.0,0.0,0.0,0.0,0.0,0.0,0.0,-1.1175,-1.1276,-1.1326,-1.1326,-1.1326,-1.1175,-1.0998,0.0,0.0,0.0,0.0,0.0,0.0,0.0,0.0,0.0,0.0,0.0,0.0,0.0,0.0,0.0,0.0,0.0,0.0,0.0,0.0,0.0,0.0,0.0,0.0,0.0,0.0,0.0,0.0,0.0,0.0,0.0,0.0,0.0,0.0,0.0,0.0,0.0,0.0,0.0,0.0,0.0,0.0,0.0,0.0,0.0,0.0,0.0,0.0,0.0,0.0,0.0,0.0,0.0,0.0,0.0,0.0,0.0,0.0,0.0,0.0,0.0,0.0,0.0,0.0,0.0,0.0,0.0,0.0,0.0,0.0,0.0,0.0,0.0,0.0,0.0,0.0,0.0,0.0,0.0,0.0,0.0,0.0,0.0,0.0,0.0,0.0,0.0,0.0,0.0,0.0,0.0,0.0,0.0,0.0,0.0,0.0,0.0,0.0,0.0,0.0,0.0,0.0,0.0,0.0,0.0,0.0,0.0,0.0,0.0,-1.1418,-1.1427,-1.1427,-1.1427,-1.1124,-1.0897,0.0,0.0,0.0,0.0,0.0,0.0,0.0,0.0,0.0,0.0,0.0,0.0,0.0,0.0,0.0,0.0,0.0,0.0,0.0,0.0,0.0,0.0,0.0,0.0,0.0,0.0,0.0,0.0,0.0,0.0,0.0,0.0,0.0,0.0,0.0,0.0,0.0,0.0,0.0,0.0,0.0,0.0,0.0,0.0,0.0,0.0,0.0,0.0,0.0,0.0,0.0,0.0,0.0,0.0,0.0,0.0,0.0,0.0,0.0,0.0,0.0,0.0,0.0,0.0,0.0,0.0,0.0,0.0,0.0,0.0,0.0,0.0,0.0,0.0,0.0,0.0,0.0,0.0,0.0,0.0,0.0,0.0,0.0,0.0,0.0,0.0,0.0,0.0,0.0,0.0,0.0,0.0,0.0,0.0,0.0,0.0,0.0,0.0,0.0,0.0,0.0,0.0,0.0,0.0,0.0,0.0,0.0,0.0,0.0,-1.1719,-1.1628,-1.1528,-1.1528,-1.1226,-1.0956,-1.0677,0.0,0.0,0.0,0.0,0.0,0.0,0.0,0.0,0.0,0.0,0.0,0.0,0.0,0.0,0.0,0.0,0.0,0.0,0.0,0.0,0.0,0.0,0.0,0.0,0.0,0.0,0.0,0.0,0.0,0.0,0.0,0.0,0.0,0.0,0.0,0.0,0.0,0.0,0.0,0.0,0.0,0.0,0.0,0.0,0.0,0.0,0.0,0.0,0.0,0.0,0.0,0.0,0.0,0.0,0.0,0.0,0.0,0.0,0.0,0.0,0.0,0.0,0.0,0.0,0.0,0.0,0.0,0.0,0.0,0.0,0.0,0.0,0.0,0.0,0.0,0.0,0.0,0.0,0.0,0.0,0.0,0.0,0.0,0.0,0.0,0.0,0.0,0.0,0.0,0.0,0.0,0.0,0.0,0.0,0.0,0.0,0.0,0.0,0.0,0.0,0.0,0.0,0.0,0.0,0.0,0.0,0.0,0.0,-1.2135,-1.1877,-1.1669,-1.1528,-1.1377,-1.1124,0.0,0.0,0.0,0.0,0.0,0.0,0.0,0.0,0.0,0.0,0.0,0.0,0.0,0.0,0.0,0.0,0.0,0.0,0.0,0.0,0.0,0.0,0.0,0.0,0.0,0.0,0.0,0.0,0.0,0.0,0.0,0.0,0.0,0.0,0.0,0.0,0.0,0.0,0.0,0.0,0.0,0.0,0.0,0.0,0.0,0.0,0.0,0.0,0.0,0.0,0.0,0.0,0.0,0.0,0.0,0.0,0.0,0.0,0.0,0.0,0.0,0.0,0.0,0.0,0.0,0.0,0.0,0.0,0.0,0.0,0.0,0.0,0.0,0.0,0.0,0.0,0.0,0.0,0.0,0.0,0.0,0.0,0.0,0.0,0.0,0.0,0.0,0.0,0.0,0.0,0.0,0.0,0.0,0.0,0.0,0.0,0.0,0.0,0.0,0.0,0.0,0.0,0.0,0.0,0.0,0.0,0.0,0.0,0.0,-1.2529,-1.2382,-1.2175,-1.1927,-1.1628,-1.1267,0.0,0.0,0.0,0.0,0.0,0.0,0.0,0.0,0.0,0.0,0.0,0.0,0.0,0.0,0.0,0.0,0.0,0.0,0.0,0.0,0.0,0.0,0.0,0.0,0.0,0.0,0.0,0.0,0.0,0.0,0.0,0.0,0.0,0.0,0.0,0.0,0.0,0.0,0.0,0.0,0.0,0.0,0.0,0.0,0.0,0.0,0.0,0.0,0.0,0.0,0.0,0.0,0.0,0.0,0.0,0.0,0.0,0.0,0.0,0.0,0.0,0.0,0.0,0.0,0.0,0.0,0.0,0.0,0.0,0.0,0.0,0.0,0.0,0.0,0.0,0.0,0.0,0.0,0.0,0.0,0.0,0.0,0.0,0.0,0.0,0.0,0.0,0.0,0.0,0.0,0.0,0.0,0.0,0.0,0.0,0.0,0.0,0.0,0.0,0.0,0.0,0.0,0.0,0.0,0.0,0.0,0.0,0.0,-1.2569,-1.2813,-1.2813,-1.2666,-1.2431,-1.1927,-1.1469,0.0,0.0,0.0,0.0,0.0,0.0,0.0,0.0,0.0,0.0,0.0,0.0,0.0,0.0,0.0,0.0,0.0,0.0,0.0,0.0,0.0,0.0,0.0,0.0,0.0,0.0,0.0,0.0,0.0,0.0,0.0,0.0,0.0,0.0,0.0,0.0,0.0,0.0,0.0,0.0,0.0,0.0,0.0,0.0,0.0,0.0,0.0,0.0,0.0,0.0,0.0,0.0,0.0,0.0,0.0,0.0,0.0,0.0,0.0,0.0,0.0,0.0,0.0,0.0,0.0,0.0,0.0,0.0,0.0,0.0,0.0,0.0,0.0,0.0,0.0,0.0,0.0,0.0,0.0,0.0,0.0,0.0,0.0,0.0,0.0,0.0,0.0,0.0,0.0,0.0,0.0,0.0,0.0,0.0,0.0,0.0,0.0,0.0,0.0,0.0,0.0,0.0,0.0,0.0,0.0,0.0,0.0,0.0,-1.2978,-1.3055,-1.318,-1.3132,-1.2968,-1.2332,-1.1778,0.0,0.0,0.0,0.0,0.0,0.0,0.0,0.0,0.0,0.0,0.0,0.0,0.0,0.0,0.0,0.0,0.0,0.0,0.0,0.0,0.0,0.0,0.0,0.0,0.0,0.0,0.0,0.0,0.0,0.0,0.0,0.0,0.0,0.0,0.0,0.0,0.0,0.0,0.0,0.0,0.0,0.0,0.0,0.0,0.0,0.0,0.0,0.0,0.0,0.0,0.0,0.0,0.0,0.0,0.0,0.0,0.0,0.0,0.0,0.0,0.0,0.0,0.0,0.0,0.0,0.0,0.0,0.0,0.0,0.0,0.0,0.0,0.0,0.0,0.0,0.0,0.0,0.0,0.0,0.0,0.0,0.0,0.0,0.0,0.0,0.0,0.0,0.0,0.0,0.0,0.0,0.0,0.0,0.0,0.0,0.0,0.0,0.0,0.0,0.0,0.0,0.0,0.0,0.0,0.0,0.0,0.0,0.0,-1.3122,-1.3478,-1.3515,-1.3467,-1.343,-1.2764,-1.2126,0.0,0.0,0.0,0.0,0.0,0.0,0.0,0.0,0.0,0.0,0.0,0.0,0.0,0.0,0.0,0.0,0.0,0.0,0.0,0.0,0.0,0.0,0.0,0.0,0.0,0.0,0.0,0.0,0.0,0.0,0.0,0.0,0.0,0.0,0.0,0.0,0.0,0.0,0.0,0.0,0.0,0.0,0.0,0.0,0.0,0.0,0.0,0.0,2.1573,0.0,0.0,0.0,0.0,0.0,0.0,0.0,0.0,0.0,0.0,0.0,0.0,0.0,0.0,0.0,0.0,0.0,0.0,0.0,0.0,0.0,0.0,0.0,0.0,0.0,0.0,0.0,0.0,0.0,0.0,0.0,0.0,0.0,0.0,0.0,0.0,0.0,0.0,0.0,0.0,0.0,0.0,0.0,0.0,0.0,0.0,0.0,0.0,0.0,0.0,0.0,0.0,0.0,0.0,0.0,0.0,0.0,0.0,0.0,-1.3563,-1.3894,-1.3894,-1.38,-1.3668,-1.3142,-1.251,0.0,0.0,0.0,0.0,0.0,0.0,0.0,0.0,0.0,0.0,0.0,0.0,0.0,0.0,0.0,0.0,0.0,0.0,0.0,0.0,0.0,0.0,0.0,0.0,0.0,0.0,0.0,0.0,0.0,0.0,0.0,0.0,0.0,0.0,0.0,0.0,0.0,0.0,0.0,0.0,0.0,0.0,0.0,0.0,0.0,0.0,0.0,0.0,0.0,0.0,0.0,0.0,0.0,0.0,0.0,0.0,0.0,0.0,0.0,0.0,0.0,0.0,0.0,0.0,0.0,0.0,0.0,0.0,0.0,0.0,0.0,0.0,0.0,0.0,0.0,0.0,0.0,0.0,0.0,0.0,0.0,0.0,0.0,0.0,0.0,0.0,0.0,0.0,0.0,0.0,0.0,0.0,0.0,0.0,0.0,0.0,0.0,0.0,0.0,0.0,0.0,0.0,0.0,0.0,0.0,0.0,0.0,-1.3621,-1.3952,-1.4222,-1.4269,-1.4176,-1.3915,-1.3467,-1.2939,-1.2215,0.0,0.0,0.0,0.0,0.0,0.0,0.0,0.0,0.0,0.0,0.0,0.0,0.0,0.0,0.0,0.0,0.0,0.0,0.0,0.0,0.0,0.0,0.0,0.0,0.0,0.0,0.0,0.0,0.0,0.0,0.0,0.0,0.0,0.0,0.0,0.0,0.0,0.0,1.7908,1.8567,0.0,0.0,0.0,0.0,0.0,0.0,0.0,0.0,2.2315,0.0,0.0,0.0,0.0,0.0,0.0,0.0,0.0,0.0,0.0,0.0,0.0,0.0,0.0,0.0,0.0,0.0,0.0,0.0,0.0,0.0,0.0,0.0,0.0,0.0,0.0,0.0,0.0,0.0,0.0,0.0,0.0,0.0,0.0,0.0,0.0,0.0,0.0,0.0,0.0,0.0,0.0,0.0,0.0,0.0,0.0,0.0,0.0,0.0,0.0,0.0,0.0,0.0,0.0,0.0,0.0,-1.3218,-1.3716,-1.4104,-1.4373,-1.4581,-1.4581,-1.428,-1.381,-1.3266,-1.2677,0.0,0.0,0.0,0.0,0.0,0.0,0.0,0.0,0.0,0.0,0.0,0.0,0.0,0.0,0.0,0.0,0.0,0.0,0.0,0.0,0.0,0.0,0.0,0.0,0.0,0.0,0.0,0.0,0.0,0.0,0.0,0.0,0.0,0.0,0.0,0.0,0.0,0.0,0.0,1.9011,1.9384,0.0,0.0,0.0,0.0,0.0,0.0,0.0,0.0,2.2764,0.0,0.0,0.0,0.0,0.0,0.0,0.0,0.0,0.0,0.0,0.0,0.0,0.0,0.0,0.0,0.0,0.0,0.0,0.0,0.0,0.0,0.0,0.0,0.0,0.0,0.0,0.0,0.0,0.0,0.0,0.0,0.0,0.0,0.0,0.0,0.0,0.0,0.0,0.0,0.0,0.0,0.0,0.0,0.0,0.0,0.0,0.0,0.0,0.0,0.0,0.0,0.0,0.0,0.0,0.0,-1.3515,-1.4046,-1.4477,-1.4743,-1.4891,-1.4857,-1.4558,-1.4046,-1.3515,0.0,0.0,0.0,0.0,0.0,0.0,0.0,0.0,0.0,0.0,0.0,0.0,0.0,0.0,0.0,0.0,0.0,0.0,0.0,0.0,0.0,0.0,0.0,0.0,0.0,0.0,0.0,0.0,0.0,0.0,0.0,0.0,0.0,0.0,0.0,0.0,0.0,0.0,0.0,0.0,1.9213,1.9457,1.9762,0.0,0.0,0.0,0.0,0.0,0.0,2.248,2.2816,0.0,0.0,0.0,0.0,0.0,0.0,0.0,0.0,0.0,0.0,0.0,0.0,0.0,0.0,0.0,0.0,0.0,0.0,0.0,0.0,0.0,0.0,0.0,0.0,0.0,0.0,0.0,0.0,0.0,0.0,0.0,0.0,0.0,0.0,0.0,0.0,0.0,0.0,0.0,0.0,0.0,0.0,0.0,0.0,0.0,0.0,0.0,0.0,0.0,0.0,0.0,0.0,0.0,0.0,0.0,-1.3821,-1.443,-1.4834,-1.5108,-1.5153,-1.5062,-1.48,-1.4337,-1.3763,0.0,0.0,0.0,0.0,0.0,0.0,0.0,0.0,0.0,0.0,0.0,0.0,0.0,0.0,0.0,0.0,0.0,0.0,0.0,0.0,0.0,0.0,0.0,0.0,0.0,0.0,0.0,0.0,0.0,0.0,0.0,0.0,0.0,0.0,0.0,0.0,0.0,0.0,0.0,0.0,0.0,1.9523,1.9797,2.017,0.0,0.0,0.0,0.0,2.2209,2.2497,0.0,0.0,0.0,0.0,0.0,0.0,0.0,0.0,0.0,0.0,0.0,0.0,0.0,0.0,0.0,0.0,0.0,0.0,0.0,0.0,0.0,0.0,0.0,0.0,0.0,0.0,0.0,0.0,0.0,0.0,0.0,0.0,0.0,0.0,0.0,0.0,0.0,0.0,0.0,0.0,0.0,0.0,0.0,0.0,0.0,0.0,0.0,0.0,0.0,0.0,0.0,0.0,0.0,0.0,0.0,0.0,-1.3962,-1.443,-1.4834,-1.5108,-1.5334,-1.5334,-1.5062,-1.4708,-1.4197,0.0,0.0,0.0,0.0,0.0,0.0,0.0,0.0,0.0,0.0,0.0,0.0,0.0,0.0,0.0,0.0,0.0,0.0,0.0,0.0,0.0,0.0,0.0,0.0,0.0,0.0,0.0,0.0,0.0,0.0,0.0,0.0,0.0,0.0,0.0,0.0,0.0,0.0,0.0,0.0,0.0,1.9683,1.9935,2.0254,2.0595,0.0,0.0,2.1797,2.2068,2.2436,0.0,0.0,0.0,0.0,0.0,0.0,0.0,0.0,0.0,0.0,0.0,0.0,0.0,0.0,0.0,0.0,0.0,0.0,0.0,0.0,0.0,0.0,0.0,0.0,0.0,0.0,0.0,0.0,0.0,0.0,0.0,0.0,0.0,0.0,0.0,0.0,0.0,0.0,0.0,0.0,0.0,0.0,0.0,0.0,0.0,0.0,0.0,0.0,0.0,0.0,0.0,0.0,0.0,0.0,0.0,-1.3658,-1.4244,-1.4846,-1.5244,-1.5525,-1.5691,-1.5647,-1.5379,-1.496,-1.4455,0.0,0.0,0.0,0.0,0.0,0.0,0.0,0.0,0.0,0.0,0.0,0.0,0.0,0.0,0.0,0.0,0.0,0.0,0.0,0.0,0.0,0.0,0.0,0.0,0.0,0.0,0.0,0.0,0.0,0.0,0.0,0.0,0.0,0.0,0.0,0.0,0.0,0.0,0.0,0.0,0.0,0.0,1.9848,2.015,0.0,0.0,0.0,2.2419,2.3217,0.0,0.0,0.0,0.0,0.0,0.0,0.0,0.0,0.0,0.0,0.0,0.0,0.0,0.0,0.0,0.0,0.0,0.0,0.0,0.0,0.0,0.0,0.0,0.0,0.0,0.0,0.0,0.0,0.0,0.0,0.0,0.0,0.0,0.0,0.0,0.0,0.0,0.0,0.0,0.0,0.0,0.0,0.0,0.0,0.0,0.0,0.0,0.0,0.0,0.0,0.0,0.0,0.0,0.0,0.0,0.0,0.0,-1.4512,-1.5153,-1.5706,-1.6106,-1.6207,-1.6211,-1.6152,-1.5707,0.0,0.0,0.0,0.0,0.0,0.0,0.0,0.0,0.0,0.0,0.0,0.0,0.0,0.0,0.0,0.0,0.0,0.0,0.0,0.0,0.0,0.0,0.0,0.0,0.0,0.0,0.0,1.5736,0.0,0.0,0.0,0.0,0.0,0.0,0.0,0.0,0.0,0.0,0.0,0.0,0.0,0.0,1.9975,2.022,2.0548,2.1089,0.0,0.0,2.308,2.4093,2.4581,2.5046,0.0,0.0,0.0,0.0,0.0,0.0,0.0,0.0,0.0,0.0,0.0,0.0,0.0,0.0,0.0,0.0,0.0,0.0,0.0,0.0,0.0,0.0,0.0,0.0,0.0,0.0,0.0,0.0,0.0,0.0,0.0,0.0,0.0,0.0,0.0,0.0,0.0,0.0,0.0,0.0,0.0,0.0,0.0,0.0,0.0,0.0,0.0,0.0,0.0,0.0,0.0,0.0,0.0,0.0,-1.414,-1.4869,-1.5289,-1.5975,-1.6876,-1.6938,-1.7183,-1.771,-1.7219,-1.668,0.0,0.0,0.0,0.0,0.0,0.0,0.0,0.0,0.0,0.0,0.0,0.0,0.0,0.0,0.0,0.0,0.0,0.0,0.0,0.0,0.0,0.0,0.0,0.0,0.0,0.0,0.0,0.0,0.0,0.0,0.0,0.0,0.0,0.0,0.0,0.0,0.0,0.0,0.0,0.0,0.0,2.1321,2.1476,2.1773,2.2132,0.0,2.3055,2.3569,2.4129,2.4567,2.5236,2.6498,0.0,0.0,0.0,0.0,0.0,0.0,0.0,0.0,0.0,0.0,0.0,0.0,0.0,0.0,0.0,0.0,0.0,0.0,0.0,0.0,0.0,0.0,0.0,0.0,0.0,0.0,0.0,0.0,0.0,0.0,0.0,0.0,0.0,0.0,0.0,0.0,0.0,0.0,0.0,0.0,0.0,0.0,0.0,0.0,0.0,0.0,0.0,0.0,0.0,0.0,0.0,0.0,0.0,-1.5193,-1.6122,-1.6645,-1.7152,-1.7722,-1.7899,-1.8012,-1.8059,-1.7642,-1.7168,0.0,0.0,0.0,0.0,0.0,0.0,0.0,0.0,0.0,0.0,0.0,0.0,0.0,0.0,0.0,0.0,0.0,0.0,0.0,0.0,0.0,0.0,0.0,0.0,0.0,0.0,0.0,0.0,1.6934,1.7731,1.896,0.0,0.0,0.0,0.0,0.0,0.0,0.0,0.0,0.0,0.0,2.1333,2.1505,2.1792,0.0,0.0,2.3754,2.4365,2.5397,2.591,2.6467,2.7335,2.7719,0.0,0.0,0.0,0.0,0.0,0.0,0.0,0.0,0.0,0.0,0.0,0.0,0.0,0.0,0.0,0.0,0.0,0.0,0.0,0.0,0.0,0.0,0.0,0.0,0.0,0.0,0.0,0.0,0.0,0.0,0.0,0.0,0.0,0.0,0.0,0.0,0.0,0.0,0.0,0.0,0.0,0.0,0.0,0.0,0.0,0.0,0.0,0.0,0.0,0.0,0.0,0.0,-1.6158,-1.7107,-1.7629,-1.8169,-1.8678,-1.8892,-1.8969,-1.892,-1.8546,-1.8055,0.0,0.0,0.0,0.0,0.0,0.0,0.0,0.0,0.0,0.0,0.0,0.0,0.0,0.0,0.0,0.0,0.0,0.0,0.0,0.0,0.0,0.0,0.0,0.0,0.0,0.0,0.0,0.0,1.7523,1.8434,1.9795,0.0,0.0,0.0,0.0,0.0,0.0,0.0,0.0,0.0,0.0,2.1823,2.2017,2.2274,2.2827,2.3873,2.436,2.5058,2.623,2.6742,2.7213,2.7811,0.0,0.0,0.0,0.0,0.0,0.0,0.0,0.0,0.0,0.0,0.0,0.0,0.0,0.0,0.0,0.0,0.0,0.0,0.0,0.0,0.0,0.0,0.0,0.0,0.0,0.0,0.0,-1.4852,0.0,0.0,-1.4433,0.0,0.0,0.0,0.0,0.0,0.0,0.0,0.0,0.0,0.0,0.0,0.0,0.0,0.0,0.0,0.0,0.0,0.0,0.0,0.0,0.0,0.0,-1.6997,-1.7605,-1.8062,-1.8716,-1.9721,-1.9782,-1.9995,-2.0468,-2.0156,-1.9697,-1.9125,0.0,0.0,0.0,0.0,0.0,0.0,0.0,0.0,0.0,0.0,0.0,0.0,0.0,0.0,0.0,0.0,0.0,0.0,0.0,0.0,0.0,0.0,0.0,0.0,0.0,0.0,1.7852,1.8878,1.9697,0.0,0.0,0.0,0.0,0.0,0.0,0.0,0.0,0.0,2.2757,2.2994,2.3083,2.3216,2.3522,2.3918,2.4486,2.4926,2.5449,2.6262,2.6725,2.7195,0.0,0.0,0.0,0.0,0.0,0.0,0.0,0.0,0.0,0.0,0.0,0.0,0.0,0.0,0.0,0.0,0.0,0.0,0.0,0.0,0.0,0.0,0.0,0.0,0.0,0.0,0.0,-1.6305,-1.6104,0.0,0.0,0.0,0.0,0.0,0.0,0.0,0.0,0.0,0.0,0.0,-1.6865,-1.7206,0.0,0.0,0.0,0.0,0.0,0.0,0.0,0.0,0.0,0.0,0.0,0.0,-1.8298,-1.9171,-1.9594,-2.009,-2.058,-2.0775,-2.093,-2.1019,-2.0709,-2.0042,-1.9081,0.0,0.0,0.0,0.0,0.0,0.0,0.0,0.0,0.0,0.0,0.0,0.0,0.0,0.0,0.0,0.0,0.0,0.0,0.0,0.0,0.0,0.0,0.0,0.0,0.0,1.7135,0.0,0.0,0.0,0.0,0.0,0.0,0.0,0.0,0.0,0.0,0.0,2.2656,2.2873,2.2947,2.3023,2.3275,2.3448,2.3788,0.0,0.0,0.0,0.0,0.0,0.0,0.0,0.0,0.0,0.0,0.0,0.0,0.0,0.0,3.0254,3.0292,3.0362,3.029,2.9941,0.0,0.0,0.0,0.0,0.0,0.0,0.0,0.0,0.0,0.0,0.0,0.0,0.0,0.0,-1.8092,-1.7943,-1.7943,0.0,0.0,0.0,0.0,0.0,0.0,0.0,0.0,-1.8202,-1.8461,-1.8627,-1.8979,-1.9097,-1.9097,-1.898,-1.8242,0.0,0.0,0.0,0.0,0.0,0.0,0.0,0.0,-1.9497,-2.0283,-2.0709,-2.1068,-2.1277,-2.1506,-2.1616,-2.1458,-2.1091,-2.0396,-1.9396,-1.8178,-1.688,0.0,0.0,0.0,0.0,0.0,0.0,0.0,0.0,0.0,0.0,0.0,0.0,0.0,0.0,0.0,0.0,0.0,0.0,0.0,0.0,0.0,0.0,0.0,1.7713,0.0,0.0,0.0,0.0,0.0,0.0,0.0,0.0,0.0,2.2752,2.2872,2.2872,2.2857,2.2902,2.3068,2.3319,0.0,0.0,0.0,0.0,0.0,0.0,0.0,2.7444,2.7943,2.8352,2.8773,2.9203,2.9626,2.9975,3.0117,0.0,0.0,3.0312,3.0362,3.0367,3.0299,2.9826,2.9423,2.9303,2.8531,2.7858,0.0,0.0,0.0,0.0,-2.0498,0.0,0.0,0.0,-2.0321,-2.0321,0.0,-2.0283,0.0,0.0,0.0,0.0,-1.9608,-1.9736,0.0,0.0,-2.0169,-2.027,-2.027,-2.027,-2.0232,-2.0283,-2.0283,-2.0219,-2.0143,-1.8996,0.0,0.0,0.0,0.0,0.0,0.0,-2.0446,-2.0845,-2.1348,-2.1712,-2.1855,-2.2077,-2.2137,-2.1983,-2.1396,-2.0733,-2.0042,-1.9044,-1.7841,-1.643,-1.4779,0.0,0.0,0.0,0.0,0.0,0.0,0.0,0.0,0.0,0.0,0.0,0.0,0.0,0.0,0.0,0.0,0.0,0.0,0.0,0.0,1.7235,0.0,0.0,0.0,0.0,0.0,0.0,0.0,0.0,0.0,0.0,2.2683,2.2718,2.2809,2.2795,0.0,0.0,0.0,0.0,2.3849,2.4429,2.5233,2.5957,2.6624,2.7115,2.7607,2.8119,0.0,0.0,2.9513,2.9822,3.0034,3.019,3.0253,3.0312,3.0292,3.0362,3.0379,3.0304,3.0279,3.0266,3.0161,2.9427,2.8795,-2.5265,0.0,0.0,0.0,0.0,-2.2972,-2.2972,-2.2972,-2.2972,-2.2688,-2.2142,-2.2128,0.0,0.0,0.0,0.0,0.0,0.0,-2.1245,-2.1355,-2.1403,-2.1452,-2.1547,-2.1561,-2.1534,-2.1547,-2.1452,-2.1403,-2.1403,-2.1037,-2.0531,-1.9863,0.0,0.0,0.0,0.0,-2.1299,-2.1779,-2.203,-2.2263,-2.2434,-2.2618,-2.2586,-2.2417,-2.1983,-2.1444,-2.0881,-1.9812,-1.8744,-1.7511,-1.5867,0.0,0.0,0.0,0.0,0.0,0.0,0.0,0.0,0.0,0.0,0.0,0.0,0.0,0.0,0.0,0.0,0.0,0.0,0.0,1.6002,1.697,1.7863,0.0,0.0,0.0,0.0,0.0,0.0,0.0,0.0,0.0,2.3406,2.306,2.2841,0.0,0.0,2.3363,2.3668,2.4002,2.4409,2.4918,2.5893,0.0,2.6808,2.7348,2.7897,2.8264,2.885,2.9375,2.977,2.9953,3.0128,3.024,3.0337,3.0386,3.0371,3.039,3.0379,3.0336,3.0292,3.0286,3.0194,2.9932,2.9688,-2.7691,-2.5726,-2.5085,-2.4676,-2.4461,-2.4595,-2.4679,-2.4679,-2.4713,-2.4447,-2.399,-2.399,-2.3712,-2.3292,-2.3245,0.0,0.0,0.0,-2.3259,-2.3429,-2.3429,-2.3475,-2.3522,-2.3522,-2.3522,-2.3522,-2.3429,-2.3414,-2.3414,-2.3429,-2.3084,-2.2415,0.0,-2.1321,-2.1643,-2.1779,-2.2063,-2.2434,-2.2678,-2.2859,-2.2965,-2.3362,-2.3463,-2.3279,-2.3169,-2.2901,-2.2287,-2.1353,-2.0388,-1.9273,-1.766,-1.596,0.0,0.0,0.0,0.0,0.0,0.0,0.0,0.0,0.0,0.0,0.0,0.9627,1.0634,0.0,0.0,0.0,1.3865,1.4819,1.5812,1.6667,0.0,0.0,0.0,0.0,0.0,0.0,0.0,2.2578,2.3109,2.3489,2.3668,2.3666,2.3656,2.3659,2.4027,2.4313,2.4366,0.0,2.5607,2.6328,2.7517,2.8305,2.8068,2.8359,2.8649,2.8815,2.9275,2.9681,2.9937,3.009,3.0234,3.0343,3.0433,3.0447,3.0481,3.0471,3.0458,3.0394,3.0352,3.0336,3.0279,3.0226,3.0138,-2.977,-2.9048,-2.734,-2.6198,-2.556,-2.5687,-2.5749,-2.5749,-2.5875,-2.5923,-2.5878,-2.5878,-2.5847,-2.5787,-2.5694,0.0,-2.5633,-2.5633,-2.5664,-2.5787,-2.5802,-2.5802,-2.5802,-2.5802,-2.5802,-2.5787,-2.5802,-2.5787,-2.5787,-2.5772,-2.571,-2.5555,-2.3493,-2.2502,-2.2562,-2.2715,-2.2884,-2.317,-2.3422,-2.3584,-2.3672,-2.4343,-2.4627,-2.4458,-2.4784,-2.4659,-2.3997,-2.3316,-2.2377,-2.1256,-1.9912,-1.8294,-1.6519,0.0,0.0,0.0,0.0,0.0,0.0,0.0,0.0,0.0,0.0,0.0,0.0,0.0,0.0,0.0,1.3066,0.0,1.5102,1.6206,0.0,0.0,0.0,1.9242,2.01,2.0758,2.1406,2.2108,0.0,0.0,2.3741,2.4569,2.5141,2.5175,2.5597,2.5743,2.5358,2.6103,2.713,2.8213,2.9602,3.0331,2.9766,2.9737,2.974,2.9695,2.9754,2.9915,3.0085,3.0235,3.0364,3.049,3.052,3.0511,3.0604,3.0593,3.0576,3.053,3.046,3.0417,3.0421,3.0374,3.0279,-3.142,-3.0777,-3.0333,-2.9164,-2.7636,-2.7827,-2.7921,-2.7921,-2.8078,-2.7829,-2.7392,-2.7482,-2.723,-2.6773,-2.6729,-2.6729,-2.6729,-2.6745,-2.6729,-2.6773,-2.6788,-2.6788,-2.6773,-2.6773,-2.6788,-2.6773,-2.6788,-2.6729,-2.6626,-2.6626,-2.6539,-2.6406,-2.5889,-2.5334,-2.4936,-2.4936,-2.5106,-2.5425,-2.547,-2.5559,-2.5724,-2.5862,-2.5864,-2.5606,-2.5603,-2.5334,-2.4854,-2.4148,-2.3303,-2.2297,-2.0952,-1.9458,-1.7646,-1.5597,0.0,0.0,0.0,0.0,0.0,0.0,0.0,0.0,0.0,0.6781,0.79,0.0,0.9672,0.0,1.2047,1.3302,1.395,1.488,0.0,0.0,1.7472,1.8542,1.976,2.0712,2.1768,2.307,2.401,2.4792,2.543,2.6279,2.71,2.7607,2.6903,2.6233,2.6015,2.717,2.841,2.9433,3.0152,3.0493,3.063,3.0575,3.0637,3.085,3.0467,3.0177,3.0375,3.0472,3.0548,3.0637,3.0642,3.0644,3.0672,3.0672,3.0672,3.0651,3.0591,3.055,3.05,3.0458,3.0414,-3.2786,-3.2208,-3.2305,-3.1517,-3.0179,-2.9752,-2.9451,-2.9196,-2.9303,-2.9201,-2.8922,-2.901,-2.8844,-2.8474,-2.8458,-2.8501,-2.8511,-2.8511,-2.8569,-2.8595,-2.8611,-2.8611,-2.8611,-2.8569,-2.8527,-2.8511,-2.8501,-2.8458,-2.8356,-2.8313,-2.8227,-2.8096,-2.8009,-2.7771,-2.741,-2.6565,-2.6273,-2.6541,-2.6585,-2.6645,-2.6704,-2.6985,-2.7022,-2.6795,-2.6918,-2.6788,-2.6321,-2.5748,-2.5006,-2.4054,-2.2877,-2.1492,-1.9855,-1.7869,-1.5764,0.0,0.0,0.0,0.0,0.0,0.0,0.0,0.0,0.0,0.0,0.0,0.8103,0.9372,1.0805,1.1999,1.2748,1.3842,1.4892,1.5766,1.6825,1.8019,1.9435,2.0591,2.1874,2.3395,2.454,2.5605,2.6477,2.7475,2.8419,2.9291,2.8988,2.8461,2.7954,2.9051,3.0489,3.1606,3.1853,3.19,3.2071,3.1845,3.1607,3.1475,3.1181,3.0846,3.0593,3.0598,3.0665,3.0681,3.0716,3.075,3.0743,3.0743,3.0743,3.0739,3.0721,3.0665,3.0599,3.0576,3.0568,-3.4153,-3.3498,-3.3736,-3.3462,-3.2751,-3.1642,-3.0774,-3.0071,-3.0217,-3.0271,-3.0316,-3.0333,-3.0316,-3.0359,-3.0359,-3.0384,-3.0477,-3.046,-3.0518,-3.0642,-3.0642,-3.0642,-3.0642,-3.0502,-3.0418,-3.0435,-3.0384,-3.0316,-3.0274,-3.0189,-3.0044,-2.9924,-2.9793,-2.9705,-2.9673,-2.8033,-2.7214,-2.7288,-2.7391,-2.7449,-2.7449,-2.8021,-2.8221,-2.7966,-2.8405,-2.8383,-2.794,-2.7494,-2.6834,-2.6011,-2.4939,-2.3709,-2.225,-2.0306,-1.8328,0.0,-1.4182,0.0,0.0,0.0,0.0,0.0,0.0,0.0,0.0,0.4806,0.6327,0.7985,0.9371,1.0509,1.1377,1.2748,1.4004,1.4942,1.621,1.7512,1.8982,2.0459,2.1906,2.3454,2.4912,2.6208,2.7335,2.8483,2.9534,3.0509,3.121,3.1133,3.0362,3.1203,3.2574,3.4055,3.405,3.3749,3.372,3.3281,3.2736,3.2207,3.1855,3.1592,3.0935,3.0728,3.0707,3.0704,3.0732,3.0774,3.0776,3.0778,3.0797,3.0776,3.0756,3.0762,3.072,3.0691,3.0697,-3.549,-3.4935,-3.504,-3.4678,-3.4139,-3.39,-3.2904,-3.1414,-3.1642,-3.1448,-3.1049,-3.1032,-3.1055,-3.11,-3.11,-3.114,-3.1257,-3.1257,-3.1295,-3.1295,-3.1312,-3.1312,-3.1312,-3.1295,-3.1218,-3.114,-3.1083,-3.0982,-3.0855,-3.0814,-3.0733,-3.051,-3.051,-3.0426,-3.0326,0.0,0.0,0.0,-2.9274,-2.9274,-2.9274,-2.9403,-2.938,-2.9173,-2.9255,0.0,-2.8542,-2.814,-2.7565,-2.6901,-2.5903,0.0,0.0,0.0,0.0,0.0,0.0,0.0,0.0,0.0,0.0,0.0,-0.574,-0.2743,0.092,0.3299,0.5217,0.6515,0.7446,0.8444,0.9435,1.0736,1.1957,1.3063,1.4871,1.6627,1.8218,2.0147,2.2214,2.4178,2.5909,2.7459,2.8772,2.9914,3.095,3.1859,3.2631,3.2866,3.2528,3.2839,3.3642,3.4792,3.4906,3.4941,3.5116,3.4474,3.394,3.3746,3.268,3.1932,3.1639,3.1069,3.0696,3.0693,3.0708,3.0704,3.0721,3.0721,3.0704,3.0728,3.073,3.074,3.0778,3.0745,3.0706,-3.6439,-3.6192,-3.5919,-3.5676,0.0,-3.548,-3.4787,-3.3554,-3.2723,-3.2026,-3.15,-3.15,-3.1542,-3.16,-3.16,-3.1674,-3.1856,-3.1839,-3.1875,-3.1894,-3.1894,-3.1912,-3.1894,-3.1875,-3.1802,-3.1691,-3.1637,-3.1524,-3.1406,-3.1329,-3.1235,-3.1095,-3.1038,-3.0958,-3.0855,-3.0855,-3.0593,-3.0156,-3.0156,-3.0172,-3.0156,-3.0172,-3.007,-2.9881,-2.9853,0.0,0.0,0.0,0.0,0.0,0.0,0.0,0.0,-2.3482,0.0,-2.0549,-1.8837,-1.7166,-1.546,-1.3731,-1.2231,-1.1107,-0.877,-0.5461,-0.0855,0.1166,0.2721,0.3966,0.528,0.628,0.6965,0.8339,0.9782,1.1045,1.3085,1.5292,1.7591,2.0217,2.2774,2.5188,2.7233,2.895,3.0347,3.142,3.236,3.3165,3.3698,3.4015,3.4037,3.4055,3.4452,3.5238,3.5349,3.5363,3.5405,3.5194,3.4703,3.4293,3.3579,3.275,3.1921,3.1452,3.1064,3.0678,3.0574,3.0594,3.06,3.0606,3.0611,3.0598,3.0603,3.0628,3.0691,3.0723,3.0749,-3.734,-3.7178,-3.6671,-3.6426,-3.6426,-3.6527,-3.6214,-3.5475,-3.358,0.0,0.0,-3.1962,-3.1912,-3.2002,-3.202,-3.2126,-3.2301,-3.2318,-3.2335,-3.2386,-3.2386,-3.2386,-3.2386,-3.2318,-3.2249,-3.2179,-3.2055,-3.1948,-3.1893,-3.1765,-3.1691,-3.1579,-3.1487,-3.1406,-3.1308,-3.1308,-3.1151,-3.0757,-3.0692,-3.0651,-3.0651,-3.0609,-3.0551,-3.0435,-3.0342,-3.0172,-2.9941,-2.9589,-2.9182,-2.8701,-2.7947,-2.7174,-2.649,-2.523,-2.3969,-2.2849,-2.1446,-1.9955,-1.8367,-1.6769,-1.5229,-1.3812,-1.1456,-0.7909,-0.2981,-0.1572,-0.0551,0.0551,0.2281,0.3536,0.3919,0.5485,0.7038,0.8484,1.095,1.378,1.7104,2.0585,2.3879,2.6731,2.9076,3.0829,3.2211,3.2984,3.3654,3.4165,3.4472,3.4722,3.4784,3.4763,3.4905,3.5243,3.5312,3.536,3.5307,3.5254,3.5064,3.44,3.4128,3.3527,3.2384,3.1741,3.129,3.0637,3.0471,3.0375,3.0404,3.0395,3.0404,3.0414,3.0442,3.0451,3.0548,3.0628,3.0713,-3.8304,-3.7669,-3.7126,-3.6891,-3.6908,-3.693,-3.657,-3.5858,-3.4144,-3.3299,-3.3212,-3.2547,-3.2301,-3.2422,-3.2472,-3.259,-3.2707,-3.2787,-3.2802,-3.2802,-3.282,-3.2787,-3.274,-3.2707,-3.2608,-3.2473,-3.2422,-3.2353,-3.2249,-3.2214,-3.2144,-3.2037,-3.2001,-3.1893,-3.1726,-3.1726,-3.1688,-3.1596,-3.1269,-3.1112,-3.1112,-3.1112,-3.1032,-3.0935,-3.0781,-3.0601,-3.0426,-3.0087,-2.9689,-2.9271,-2.8685,-2.8256,-2.8107,-2.727,-2.6495,-2.5949,-2.4908,-2.3615,-2.2069,-2.07,-1.8786,-1.6171,-1.4767,-1.1852,-0.6859,-0.5328,-0.4601,-0.428,-0.2541,-0.0986,-0.0082,0.1391,0.2938,0.4887,0.8078,1.198,1.6466,2.1181,2.5642,2.9681,3.1812,3.3309,3.4207,3.4375,3.4351,3.4624,3.4528,3.465,3.4478,3.4821,3.5053,3.5106,3.5057,3.4976,3.4843,3.4778,3.4604,3.4575,3.3897,3.3372,3.294,3.1881,3.1065,3.0833,3.0323,3.0003,2.998,3.0047,3.0084,3.0106,3.0132,3.019,3.0283,3.0344,3.0442,-3.9487,-3.8755,-3.8196,-3.7707,-3.7317,-3.7354,-3.7216,-3.688,-3.5774,-3.4709,-3.3842,-3.3419,-3.308,-3.2755,-3.282,-3.2866,-3.2948,-3.3011,-3.3011,-3.2993,-3.3011,-3.2993,-3.2948,-3.2948,-3.2884,-3.2805,-3.2755,-3.2722,-3.2639,-3.2621,-3.2539,-3.237,-3.2266,-3.2161,-3.2126,-3.2509,-3.2718,-3.2701,-3.1952,-3.1538,-3.1538,-3.1521,-3.1483,-3.1445,-3.1725,-3.1811,-3.1628,-3.1775,-3.1679,-3.1331,-3.0774,-3.0402,-3.0083,-2.9282,-2.8586,-2.7997,-2.7055,-2.6007,-2.4722,-2.3065,-2.1326,-1.9462,-1.836,-1.6725,-1.4022,-1.0536,-0.8375,-0.7902,-0.6661,-0.5507,-0.4676,-0.4022,-0.2783,-0.0407,0.2983,0.8121,1.499,1.9912,2.5252,3.1366,3.389,3.4894,3.5105,3.4961,3.4618,3.4313,3.3944,3.362,3.332,3.297,3.3223,3.4175,3.428,3.4105,3.399,3.3887,3.3794,3.3796,3.3512,3.3074,3.268,3.1635,3.0965,3.0469,2.9864,2.9495,2.9458,2.955,2.9622,2.9676,2.9727,2.9813,2.9893,2.9999,3.0183,-4.057,-3.9971,-3.9185,-3.8438,-3.7739,-3.7774,-3.781,-3.7773,-3.7316,-3.6269,-3.4914,-3.4616,-3.4153,-3.3647,-3.3643,-3.3597,-3.3466,-3.346,-3.3388,-3.3208,-3.3208,-3.3208,-3.3214,-3.334,-3.3417,-3.3409,-3.3521,-3.3598,-3.3516,-3.3498,-3.3401,-3.3253,-3.3085,-3.2983,-3.3035,-3.3617,-3.3935,-3.3847,-3.3018,-3.2558,-3.2449,-3.2449,-3.2449,-3.2483,-3.2928,-3.3145,-3.3046,-3.3362,-3.3422,-3.3041,-3.2646,-3.2305,-3.1919,-3.1234,-3.0551,-3.0006,-2.9251,-2.831,-2.7141,-2.546,-2.3965,-2.3085,-2.2166,-2.1345,-2.0466,-1.6758,-1.3379,-1.1848,-1.0992,-1.0235,-0.9717,-0.9641,-0.8783,-0.6314,-0.3057,0.2766,1.1511,1.7127,2.3451,3.1336,3.4502,3.5363,3.5104,3.4687,3.3904,3.2869,3.2392,3.2028,3.1661,3.0768,3.0951,3.2211,3.2893,3.2928,3.2816,3.2703,3.2647,3.2644,3.2701,3.2463,3.1972,3.1441,3.0803,3.0132,2.9466,2.9038,2.8934,2.8968,2.9055,2.9098,2.92,2.9301,2.9456,2.9624,2.9901,-4.1253,-4.1025,-3.9788,-3.8758,-3.8106,-3.8068,-3.8119,-3.8223,-3.8183,-3.7735,-3.69,-3.6077,-3.5639,-3.5548,-3.5538,-3.5169,-3.46,-3.4623,-3.4287,-3.3658,-3.353,-3.352,-3.3608,-3.4207,-3.4504,-3.4552,-3.5056,-3.5277,-3.5295,-3.5217,-3.522,-3.5223,-3.5124,-3.5055,-3.5091,-3.5162,-3.5182,-3.5132,-3.5044,-3.48,-3.4479,-3.446,-3.4442,-3.4442,-3.4366,-3.4327,-3.4248,-3.4125,-3.3882,-3.3539,-3.3381,-3.3289,-3.3357,-3.2966,-3.2718,-3.2678,-3.2153,-3.1177,-2.9611,-2.8643,-2.7637,-2.6762,-2.5963,-2.5257,-2.4646,-2.3606,-2.1073,-1.7552,-1.6039,-1.5515,-1.529,-1.4806,-1.4041,-1.2836,-0.9345,-0.3818,0.5383,1.2635,2.0388,2.932,3.2693,3.4489,3.4257,3.3165,3.1735,3.0324,3.0022,2.9798,2.9468,2.8694,2.8339,2.9459,3.0488,3.1261,3.1222,3.1233,3.125,3.1285,3.145,3.1457,3.1322,3.1011,3.0552,2.9955,2.9296,2.8713,2.8434,2.8272,2.8358,2.8517,2.8591,2.8682,2.8979,2.9198,2.9513,-4.2121,-4.1724,-4.1195,-4.0245,-3.9213,-3.8652,-3.8483,-3.8496,-3.8578,-3.8438,-3.8187,-3.7838,-3.7136,-3.612,-3.6131,-3.5948,-3.5656,-3.5666,-3.553,-3.5219,-3.5219,-3.5143,-3.5104,-3.536,-3.5501,-3.543,-3.5745,-3.5859,-3.5859,-3.5779,-3.576,-3.5792,-3.5729,-3.5747,-3.5797,-3.6218,-3.6389,-3.6356,-3.6741,-3.6856,-3.6611,-3.5616,-3.5066,-3.5101,-3.5421,-3.5579,-3.5576,-3.5814,-3.5867,-3.5578,-3.5311,-3.5156,-3.5081,-3.4705,-3.4405,-3.4219,-3.3518,-3.2723,-3.1744,-3.118,-3.05,-2.9729,-2.9214,-2.8726,-2.8091,-2.6477,-2.4493,-2.2719,-2.1316,-2.0626,-2.04,-1.9397,-1.8317,-1.7012,-1.3214,-0.6468,0.3472,1.0058,1.758,2.6732,3.0392,3.182,3.151,3.0218,2.8775,2.7672,2.74,2.7282,2.7081,2.6778,2.6772,2.7021,2.7773,2.8681,2.9442,2.9756,2.9831,2.9933,3.0086,3.0212,3.0368,3.0068,2.9694,2.9702,2.887,2.8315,2.8175,2.7739,2.7607,2.7798,2.8057,2.8219,2.8496,2.8682,2.8972,-4.2922,-4.2496,-4.2378,-4.1466,-4.0019,-3.9399,-3.8994,-3.8737,-3.8862,-3.8892,-3.8921,-3.9007,-3.8377,-3.7267,-3.7081,-3.6942,-3.674,-3.674,-3.6583,-3.6398,-3.638,-3.6305,-3.624,-3.6468,-3.6531,-3.6509,-3.6717,-3.676,-3.6711,-3.6681,-3.6693,-3.6783,-3.6753,-3.6753,-3.6868,-3.7357,-3.7588,-3.7593,-3.8027,-3.8234,-3.8038,-3.6931,-3.617,-3.6123,-3.6574,-3.6826,-3.6791,-3.7237,-3.7374,-3.7055,-3.6878,-3.6655,-3.6392,-3.6045,-3.5708,-3.5352,-3.4748,-3.4154,-3.3727,-3.2436,-3.1413,-3.0778,-2.9739,-2.8677,-2.8005,-2.6435,-2.5337,-2.4819,-2.3963,-2.3062,-2.3116,-2.1933,-2.0729,-1.9722,-1.5589,-0.8809,0.0456,0.6746,1.3854,2.2931,2.6529,2.8351,2.8067,2.7046,2.5841,2.5134,2.4873,2.4791,2.4762,2.4901,2.4997,2.5052,2.5342,2.627,2.7731,2.8213,2.8307,2.8513,2.867,2.8948,2.9223,2.8994,2.8884,2.8902,2.8108,2.7584,2.7501,2.7182,2.6853,2.7112,2.7409,2.766,2.7862,2.8112,2.8376,-4.3545,-4.3513,-4.3021,-4.1895,-4.042,-4.0327,-3.9863,-3.9129,-3.912,-3.9129,-3.9183,-3.9183,-3.9219,-3.9141,-3.8923,-3.8544,-3.7885,-3.7757,-3.7377,-3.6785,-3.6638,-3.6555,-3.6528,-3.7267,-3.7608,-3.7663,-3.8177,-3.8419,-3.8414,-3.8401,-3.8584,-3.8715,-3.8623,-3.8736,-3.8719,-3.8689,-3.8778,-3.8645,-3.8579,-3.8621,-3.864,-3.848,-3.8177,-3.7899,-3.7959,-3.7925,-3.7911,-3.7948,-3.7827,-3.7505,-3.7469,-3.7339,-3.7091,-3.69,-3.6649,-3.6271,-3.588,-3.5583,-3.4805,-3.1747,-2.955,-2.8858,-2.6213,-2.4005,-2.4138,-2.3292,-2.2805,-2.2796,-2.2048,-2.1701,-2.1509,-2.0958,-2.0549,-1.9949,-1.7241,-1.1449,-0.4181,0.2666,0.902,1.675,2.174,2.4082,2.4511,2.4042,2.3393,2.2856,2.2406,2.2299,2.265,2.2867,2.3132,2.3395,2.3761,2.4399,2.5821,2.6515,2.6805,2.7115,2.744,2.772,2.8064,2.8293,2.8263,2.8231,2.7716,2.7243,2.6857,2.655,2.6289,2.6368,2.674,2.7017,2.7269,2.7535,2.7794,-4.3892,-4.3967,-4.337,-4.2754,-4.2183,-4.1135,-4.048,-4.0143,-3.96,-3.9357,-3.9401,-3.9427,-3.9521,-3.957,-3.9551,-3.9296,-3.8891,-3.8846,-3.8652,-3.8391,-3.8391,-3.8319,-3.8265,-3.8562,-3.8646,-3.8628,-3.884,-3.896,-3.8931,-3.8931,-3.8998,-3.911,-3.9137,-3.9192,-3.9219,-3.9192,-3.9129,-3.9045,-3.897,-3.8913,-3.895,-3.8931,-3.8855,-3.8737,-3.8535,-3.8396,-3.8396,-3.8332,-3.8267,-3.815,-3.7998,-3.7895,-3.7809,-3.7632,-3.7488,-3.7077,-3.45,-3.2765,-3.2147,-2.846,-2.5885,-2.5607,-2.422,-2.2905,-2.2643,-2.1213,-1.9968,-1.9458,-1.7682,-1.6536,-1.6572,-1.7942,-1.8982,-1.7477,-1.4035,-0.9433,-0.3693,0.1911,0.7673,1.3492,1.8144,2.1002,2.1292,2.1094,2.0807,2.0514,2.0391,2.0409,2.0673,2.1055,2.1518,2.1791,2.2237,2.2834,2.3467,2.4684,2.5384,2.5809,2.6187,2.6558,2.6923,2.7282,2.7384,2.7699,2.735,2.6876,2.6451,2.5885,2.5659,2.5758,2.6087,2.6368,2.6674,2.6905,2.7255,-4.4288,-4.4308,-4.3976,-4.3653,-4.3321,-4.2228,-4.1569,-4.1248,-4.0419,-4.0061,-4.001,-3.9825,-3.9762,-3.9788,-3.9851,-3.9785,-3.9594,-3.9539,-3.9533,-3.9533,-3.9508,-3.9439,-3.9324,-3.9324,-3.9298,-3.9245,-3.9219,-3.9237,-3.9219,-3.9245,-3.9324,-3.9427,-3.9452,-3.9477,-3.9502,-3.9477,-3.9401,-3.9343,-3.9245,-3.9237,-3.9219,-3.9219,-3.9237,-3.9192,-3.9008,-3.8855,-3.8766,-3.8725,-3.8664,-3.864,-3.8523,-3.8442,-3.841,-3.8328,-3.747,-3.5726,-3.2942,-3.0272,-2.8369,-2.4478,-2.1889,-2.1504,-2.0091,-1.9238,-1.8835,-1.6972,-1.5775,-1.4821,-1.3354,-1.1505,-1.1249,-1.2781,-1.4005,-1.3132,-1.0007,-0.601,-0.1834,0.2611,0.739,1.2398,1.6215,1.8329,1.8911,1.8929,1.8912,1.8848,1.8854,1.8904,1.9142,1.9628,2.0085,2.0355,2.0996,2.1553,2.2163,2.305,2.4066,2.4584,2.5092,2.5508,2.5906,2.6283,2.6611,2.6975,2.6931,2.6468,2.5952,2.5347,2.5187,2.5233,2.5422,2.5672,2.598,2.6264,2.6607,-4.4712,-4.4719,-4.4827,-4.4421,-4.382,-4.3554,-4.3137,-4.236,-4.1544,-4.1187,-4.1117,-4.0414,-4.0152,-4.0059,-4.006,-3.9983,-3.9982,-3.9895,-3.9807,-3.9762,-3.9717,-3.967,-3.958,-3.9599,-3.9575,-3.9489,-3.9508,-3.9508,-3.9508,-3.9556,-3.9647,-3.9693,-3.9781,-3.9785,-3.9804,-3.9739,-3.967,-3.9599,-3.9551,-3.9483,-3.9483,-3.9483,-3.9483,-3.9483,-3.9458,-3.9376,-3.911,-3.9101,-3.9054,-3.9013,-3.9016,-3.8979,-3.8857,-3.8478,-3.6594,-3.2667,-3.1191,-2.8396,-2.3971,-2.0075,-1.7479,-1.6732,-1.389,-1.217,-1.1852,-1.0935,-1.0206,-0.9775,-0.8909,-0.7778,-0.6806,-0.6291,-0.6622,-0.7519,-0.5782,-0.2908,0.0353,0.3712,0.7831,1.2687,1.526,1.6453,1.7276,1.7542,1.7593,1.7814,1.7877,1.783,1.8047,1.8509,1.8911,1.9375,1.9955,2.0602,2.106,2.1514,2.2543,2.3446,2.3975,2.4496,2.4964,2.5412,2.5851,2.6169,2.6221,2.5855,2.539,2.4802,2.451,2.4585,2.4806,2.502,2.5351,2.5672,2.6016,-4.4986,-4.4991,-4.5125,-4.5036,-4.4734,-4.4181,-4.3743,-4.3418,-4.2639,-4.2297,-4.2144,-4.1456,-4.113,-4.1013,-4.0572,-4.0302,-4.0339,-4.0285,-4.0158,-3.9962,-3.992,-3.9899,-3.9878,-3.9878,-3.9878,-3.9838,-3.9838,-3.9838,-3.9838,-3.9857,-3.9899,-3.996,-4.0001,-4.002,-4.002,-3.9996,-3.9954,-3.987,-3.9804,-3.9781,-3.9762,-3.9781,-3.9781,-3.9781,-3.9781,-3.9735,-3.9642,-3.9477,-3.9369,-3.9354,-3.9324,-3.935,-3.8785,-3.5911,-3.3356,-3.1266,-2.4935,-2.0976,-1.8918,-1.4798,-1.2063,-1.13,-0.976,-0.8719,-0.8063,-0.7446,-0.6832,-0.6213,-0.5422,-0.4625,-0.3648,-0.2672,-0.2846,-0.4257,-0.2576,-0.0444,0.2131,0.5846,0.9278,1.198,1.3866,1.5047,1.5906,1.6171,1.6488,1.6801,1.6881,1.7018,1.7139,1.7638,1.8192,1.8596,1.9253,1.9835,2.0355,2.088,2.1628,2.2494,2.31,2.3708,2.4176,2.458,2.5034,2.537,2.5434,2.5242,2.4801,2.4412,2.4119,2.399,2.4208,2.4451,2.4759,2.5098,2.5465,-4.5218,-4.5258,-4.536,-4.54,-4.5361,-4.4787,-4.4595,-4.4461,-4.375,-4.3401,-4.3263,-4.2566,-4.2233,-4.2187,-4.1705,-4.1316,-4.108,-4.1056,-4.0804,-4.0336,-4.0212,-4.0176,-4.0157,-4.012,-4.0101,-4.0101,-4.0101,-4.0101,-4.0101,-4.0139,-4.0157,-4.0213,-4.0232,-4.0232,-4.0213,-4.0215,-4.0196,-4.0118,-4.0078,-4.0039,-4.0019,-3.9998,-4.0017,-3.9998,-3.9998,-3.9998,-4.0017,-3.9851,-3.9739,-3.967,-3.9632,-3.8838,-3.6716,-3.3404,-3.0066,-2.5314,-2.0412,-1.5766,-1.3485,-1.0343,-0.8089,-0.765,-0.6939,-0.6233,-0.5703,-0.4996,-0.4194,-0.3481,-0.2857,-0.1965,-0.1072,-0.0179,0.0,-0.0267,0.0357,0.205,0.4271,0.7453,1.0009,1.1655,1.3027,1.4055,1.492,1.542,1.5713,1.6025,1.6255,1.6392,1.6466,1.6959,1.7442,1.7988,1.8586,1.9166,1.9694,2.0291,2.0828,2.1588,2.2334,2.2884,2.3484,2.3897,2.435,2.4815,2.4969,2.4931,2.4546,2.4139,2.3798,2.3762,2.3702,2.3882,2.4173,2.4558,2.4942,-4.5457,-4.5513,-4.5586,-4.5603,-4.5603,-4.5543,-4.5503,-4.5439,-4.482,-4.4519,-4.4385,-4.3645,-4.3305,-4.3337,-4.3118,-4.2673,-4.2189,-4.2071,-4.1645,-4.1074,-4.0775,-4.0635,-4.0438,-4.0351,-4.0332,-4.0315,-4.0334,-4.0315,-4.0332,-4.0386,-4.0422,-4.0438,-4.0469,-4.0469,-4.0419,-4.0403,-4.0392,-4.0341,-4.0306,-4.0288,-4.0214,-4.0233,-4.0233,-4.0196,-4.0215,-4.0196,-4.0215,-4.0177,-4.008,-3.9935,-3.93,-3.6618,-3.2803,-3.1306,-2.5419,-1.7741,-1.5788,-1.2407,-0.8748,-0.7302,-0.6422,-0.5805,-0.509,-0.4291,-0.3846,-0.3041,-0.2237,-0.152,-0.0806,0.009,0.0984,0.1789,0.2505,0.3487,0.3393,0.4277,0.6489,0.8703,1.0188,1.1305,1.2516,1.3646,1.4489,1.5039,1.5404,1.5631,1.5928,1.6013,1.6088,1.6501,1.6987,1.751,1.8114,1.8721,1.9243,1.9846,2.0377,2.088,2.1588,2.2285,2.2896,2.3378,2.3865,2.4262,2.4541,2.4545,2.4318,2.3898,2.3587,2.345,2.3412,2.3422,2.3653,2.4021,2.4436,-4.5629,-4.5642,-4.5708,-4.5742,-4.5742,-4.5791,-4.5824,-4.5814,-4.5641,-4.5525,-4.5394,-4.4669,-4.4323,-4.4264,-4.3733,-4.3297,-4.3141,-4.3102,-4.2635,-4.1926,-4.1791,-4.128,-4.0752,-4.0596,-4.0596,-4.0596,-4.0596,-4.0615,-4.0596,-4.0629,-4.061,-4.061,-4.0623,-4.0642,-4.0629,-4.0621,-4.0612,-4.0598,-4.053,-4.05,-4.0434,-4.0419,-4.0438,-4.0425,-4.0392,-4.0356,-4.0339,-4.0342,-4.0271,-3.9794,-3.5996,-3.3566,-3.0848,-2.4397,-1.8808,-1.5546,-1.1261,-0.8444,-0.6927,-0.5805,-0.5186,-0.4472,-0.3758,-0.2956,-0.2061,-0.1345,-0.0628,0.009,0.0807,0.1524,0.2329,0.3223,0.4295,0.563,0.5714,0.6325,0.7914,0.924,1.0289,1.1408,1.2357,1.3215,1.3899,1.4636,1.5165,1.534,1.5576,1.5843,1.5968,1.6095,1.6612,1.7245,1.7784,1.8327,1.8865,1.9396,1.9857,2.0291,2.0944,2.1737,2.242,2.303,2.3522,2.3989,2.4244,2.4319,2.4041,2.3656,2.3437,2.3174,2.2975,2.2917,2.3187,2.3551,2.3979,-4.5794,-4.5829,-4.5861,-4.5893,-4.5873,-4.5929,-4.5972,-4.5983,-4.6026,-4.6056,-4.5949,-4.5579,-4.5343,-4.5285,-4.4842,-4.4421,-4.4117,-4.4091,-4.3591,-4.2916,-4.2773,-4.2035,-4.1102,-4.0789,-4.0789,-4.0789,-4.0789,-4.0789,-4.0789,-4.0789,-4.0789,-4.0789,-4.077,-4.077,-4.0789,-4.0779,-4.0796,-4.0784,-4.0742,-4.0674,-4.0636,-4.0629,-4.0588,-4.0598,-4.0534,-4.0485,-4.0258,-3.8249,-3.689,-3.609,-3.3526,-2.9956,-2.487,-1.9116,-1.4143,-1.1834,-0.7947,-0.5974,-0.5453,-0.4832,-0.4119,-0.3312,-0.2598,-0.1792,-0.1076,-0.0269,0.0538,0.1256,0.1973,0.269,0.3494,0.4474,0.5722,0.6877,0.7492,0.8105,0.9074,0.9772,1.0733,1.1682,1.2454,1.3045,1.3652,1.4412,1.4911,1.5197,1.5326,1.5631,1.579,1.6028,1.6351,1.6945,1.7529,1.8056,1.8529,1.9065,1.966,2.0042,2.0688,2.1423,2.1987,2.2678,2.3103,2.3569,2.3897,2.4045,2.3768,2.3526,2.3241,2.2963,2.2622,2.2534,2.2828,2.3172,2.3551,-4.5964,-4.6017,-4.6017,-4.6017,-4.6027,-4.6008,-4.6054,-4.6111,-4.6096,-4.6137,-4.6151,-4.6189,-4.6059,-4.6201,-4.5899,-4.5733,-4.5031,-4.5043,-4.4484,-4.3922,-4.3489,-4.2748,-4.1623,-4.1505,-4.147,-4.1393,-4.1167,-4.1108,-4.112,-4.105,-4.0914,-4.0914,-4.0914,-4.0914,-4.0894,-4.0894,-4.0887,-4.089,-4.0894,-4.0849,-4.08,-4.0787,-4.0761,-4.0558,-3.9108,-3.9082,-3.7862,-3.4765,-3.114,-3.0278,-3.0333,-2.4818,-1.6592,-1.5093,-1.1801,-0.7859,-0.6265,-0.5366,-0.4659,-0.4032,-0.3227,-0.2509,-0.1613,-0.0807,-0.0269,0.0538,0.1345,0.2064,0.2869,0.3583,0.4565,0.5722,0.6697,0.7672,0.838,0.8999,0.9611,1.0212,1.1079,1.2141,1.2729,1.3228,1.3646,1.4216,1.4802,1.522,1.5461,1.5723,1.5904,1.613,1.6412,1.6792,1.7348,1.7774,1.825,1.8731,1.933,1.9911,2.0635,2.1296,2.1737,2.2297,2.2726,2.3138,2.3484,2.3708,2.3709,2.3424,2.3057,2.2731,2.244,2.2384,2.2449,2.2859,2.326,-4.6093,-4.6174,-4.6154,-4.6142,-4.6176,-4.6177,-4.617,-4.6187,-4.6182,-4.6191,-4.6202,-4.6206,-4.6209,-4.6215,-4.6241,-4.6127,-4.5876,-4.5839,-4.5508,-4.4628,-4.3905,-4.3574,-4.3064,-4.3021,-4.2983,-4.2783,-4.227,-4.2022,-4.1876,-4.1452,-4.1022,-4.107,-4.1214,-4.1012,-4.1094,-4.1214,-4.0992,-4.0988,-4.1037,-4.1103,-4.1116,-4.1038,-4.082,-4.014,-3.663,-3.5014,-3.4165,-2.9758,-2.4592,-2.0993,-1.9377,-1.7986,-1.4795,-1.0865,-0.8026,-0.6647,-0.5455,-0.483,-0.4206,-0.3585,-0.2869,-0.2062,-0.1256,-0.0448,0.0448,0.1166,0.1973,0.269,0.3403,0.4295,0.5455,0.6432,0.7228,0.8025,0.8648,0.9262,0.9951,1.0554,1.1246,1.1952,1.2723,1.3228,1.3476,1.423,1.4754,1.5248,1.5625,1.5858,1.6045,1.6253,1.6529,1.6929,1.7437,1.787,1.8114,1.8664,1.933,1.9857,2.0518,2.1106,2.1549,2.1999,2.2359,2.2726,2.3017,2.3245,2.3471,2.3101,2.2641,2.2418,2.2245,2.2187,2.224,2.2583,2.2918,-4.6177,-4.6206,-4.6211,-4.6197,-4.6206,-4.6241,-4.6212,-4.62,-4.6223,-4.6228,-4.621,-4.6211,-4.6211,-4.621,-4.6246,-4.6221,-4.6217,-4.6215,-4.5971,-4.5457,-4.5024,-4.4864,-4.4825,-4.4679,-4.4472,-4.3766,-4.3216,-4.2945,-4.2752,-4.2479,-4.2285,-4.2167,-4.2128,-4.2264,-4.2185,-4.2107,-4.2243,-4.2244,-4.2207,-4.2201,-4.2158,-4.2122,-4.014,-3.737,-3.2669,-2.971,-2.9673,-2.4622,-2.0431,-1.705,-1.4118,-1.2151,-1.1395,-0.8442,-0.648,-0.5899,-0.5366,-0.4652,-0.4028,-0.3314,-0.2688,-0.1705,-0.0897,0.0,0.0807,0.1615,0.2242,0.2957,0.3762,0.4654,0.608,0.6874,0.758,0.8285,0.8819,0.9515,1.0294,1.0895,1.1332,1.1946,1.2717,1.3143,1.3646,1.423,1.4803,1.5321,1.567,1.5992,1.6509,1.6657,1.6772,1.7072,1.7642,1.7954,1.8057,1.8586,1.933,1.9868,2.0388,2.0914,2.1296,2.1686,2.2073,2.2359,2.2714,2.2957,2.3059,2.2636,2.2418,2.2365,2.2217,2.1988,2.2027,2.2366,2.2692,-4.6195,-4.6212,-4.6219,-4.6202,-4.6225,-4.6268,-4.625,-4.621,-4.6246,-4.6241,-4.6198,-4.6189,-4.6183,-4.6167,-4.6177,-4.6162,-4.6144,-4.6138,-4.5981,-4.5889,-4.5831,-4.5737,-4.5757,-4.5628,-4.5228,-4.4064,-4.3883,-4.3805,-4.372,-4.3595,-4.3173,-4.3348,-4.3356,-4.3111,-4.3319,-4.3383,-4.3143,-4.3072,-4.3103,-4.3177,-4.2642,-4.2087,-3.8552,-3.3541,-2.7961,-2.5123,-2.4161,-2.0171,-1.6468,-1.6254,-1.1735,-0.8919,-0.7649,-0.6847,-0.6311,-0.5874,-0.5445,-0.482,-0.4008,-0.3361,-0.2543,-0.1448,-0.0544,0.0272,0.0999,0.1722,0.2441,0.3244,0.4047,0.5008,0.6251,0.7048,0.7757,0.8372,0.899,0.9689,1.0467,1.0987,1.151,1.1946,1.2717,1.3313,1.3646,1.4153,1.4734,1.5365,1.5716,1.619,1.6719,1.7098,1.7238,1.7439,1.7979,1.8402,1.8478,1.8549,1.9295,1.9736,2.027,2.0658,2.1106,2.1498,2.1874,2.2123,2.242,2.2726,2.2832,2.2673,2.2462,2.2341,2.2155,2.1928,2.2007,2.2141,2.2445,-4.6307,-4.6289,-4.6289,-4.6248,-4.6204,-4.6217,-4.6209,-4.6199,-4.6206,-4.6172,-4.6105,-4.6105,-4.6098,-4.6088,-4.6044,-4.6017,-4.5959,-4.5938,-4.5906,-4.5852,-4.5852,-4.5808,-4.5744,-4.5712,-4.5493,-4.525,-4.4783,-4.4437,-4.4281,-4.38,-4.3646,-4.3403,-4.335,-4.3327,-4.331,-4.3092,-4.3195,-4.322,-4.3195,-4.3188,-4.2287,-3.8268,-3.4164,-2.9142,-2.3548,-2.1146,-2.0054,-1.6021,-1.24,-1.1962,-1.0693,-0.9724,-0.895,-0.7973,-0.7127,-0.6453,-0.58,-0.5136,-0.421,-0.3384,-0.2545,-0.1605,-0.0564,0.0282,0.1032,0.1765,0.2486,0.3381,0.4433,0.5552,0.634,0.7048,0.7665,0.8285,0.8903,0.9602,1.0294,1.0901,1.1505,1.1946,1.2717,1.3483,1.3737,1.4153,1.4817,1.5484,1.5957,1.6443,1.7056,1.7446,1.776,1.8015,1.8369,1.8745,1.9004,1.9015,1.9327,1.9615,2.0064,2.0464,2.0914,2.1371,2.1749,2.1937,2.2235,2.2543,2.2577,2.2602,2.2661,2.2631,2.2284,2.1938,2.2047,2.2194,2.2236,-4.6261,-4.6234,-4.6245,-4.621,-4.6158,-4.6142,-4.6138,-4.6103,-4.6088,-4.6035,-4.5969,-4.5939,-4.5928,-4.5871,-4.5859,-4.5809,-4.5742,-4.5699,-4.5654,-4.5568,-4.5552,-4.5503,-4.5432,-4.5396,-4.5378,-4.5225,-4.4908,-4.4819,-4.4995,-4.4678,-4.4245,-4.4248,-4.4126,-4.4054,-4.3924,-4.3827,-4.3594,-4.3476,-4.3283,-4.2728,-4.1266,-3.4666,-2.8897,-2.5119,-2.0072,-1.6974,-1.6399,-1.4694,-1.2276,-1.199,-1.1322,-1.0596,-0.9861,-0.9044,-0.7938,-0.6969,-0.6183,-0.5329,-0.4474,-0.3525,-0.257,-0.162,-0.0668,0.0191,0.0952,0.1699,0.2527,0.3605,0.4684,0.5703,0.618,0.6966,0.7669,0.8197,0.8819,0.9519,1.0212,1.0814,1.1338,1.1946,1.2802,1.3398,1.3737,1.4237,1.4901,1.5484,1.6147,1.6722,1.731,1.7806,1.8223,1.8561,1.8788,1.8995,1.9262,1.9231,1.9349,1.9666,1.9933,2.0259,2.0722,2.1169,2.1498,2.1749,2.2061,2.2359,2.2616,2.2733,2.2824,2.286,2.2695,2.2471,2.2253,2.2237,2.2346,-4.6182,-4.6167,-4.6177,-4.613,-4.6088,-4.6035,-4.6008,-4.5975,-4.5922,-4.5854,-4.5736,-4.5708,-4.5665,-4.5603,-4.5574,-4.5524,-4.5454,-4.5399,-4.5265,-4.5166,-4.5126,-4.5123,-4.5011,-4.4966,-4.4881,-4.473,-4.4605,-4.4786,-4.5036,-4.4959,-4.4993,-4.4709,-4.4729,-4.4624,-4.4278,-4.3839,-4.3989,-4.3685,-4.3212,-4.1989,-3.7232,-3.0964,-2.4873,-2.2506,-1.6984,-1.4456,-1.4728,-1.4076,-1.3414,-1.2926,-1.2252,-1.1575,-1.0703,-0.992,-0.8901,-0.763,-0.6435,-0.558,-0.4726,-0.3768,-0.2813,-0.1845,-0.0967,-0.0097,0.0868,0.1637,0.2665,0.3828,0.4708,0.5598,0.6149,0.6897,0.7499,0.8116,0.8732,0.9519,1.0125,1.0727,1.1332,1.2026,1.2802,1.3398,1.3646,1.4237,1.4901,1.5567,1.6229,1.673,1.7392,1.8129,1.8593,1.9012,1.9203,1.9345,1.9419,1.9374,1.9613,1.9889,2.0008,2.0194,2.0582,2.1031,2.1296,2.1624,2.1937,2.2235,2.2555,2.2909,2.2984,2.3038,2.3083,2.3044,2.2911,2.2674,2.2624,-4.6115,-4.6111,-4.6047,-4.6007,-4.5994,-4.5873,-4.5822,-4.5794,-4.5688,-4.561,-4.5488,-4.5417,-4.5342,-4.5285,-4.5142,-4.5055,-4.4988,-4.4877,-4.4781,-4.4663,-4.4638,-4.4535,-4.4411,-4.4402,-4.4204,-4.405,-4.3979,-4.4327,-4.4455,-4.4384,-4.4361,-4.4243,-4.3927,-4.3714,-4.3398,-4.3025,-4.2796,-4.2336,-4.16,-3.7812,-3.1777,-2.8371,-2.3988,-1.9641,-1.6856,-1.5615,-1.5337,-1.4949,-1.4478,-1.3806,-1.3238,-1.2559,-1.178,-1.0806,-0.9809,-0.8576,-0.7282,-0.5999,-0.5085,-0.4079,-0.3083,-0.2188,-0.1297,-0.0401,0.0696,0.1868,0.3007,0.3992,0.4587,0.5175,0.5946,0.6588,0.7166,0.7852,0.856,0.9257,0.9951,1.0641,1.1165,1.194,1.2717,1.3222,1.373,1.4314,1.4985,1.5567,1.6237,1.6812,1.7473,1.821,1.8931,1.9275,1.9495,1.9589,1.9723,1.9665,1.9725,2.0018,2.0079,2.014,2.0453,2.0914,2.1308,2.1561,2.1874,2.2185,2.2555,2.2848,2.3053,2.3141,2.3238,2.342,2.3561,2.3299,2.3032,-4.5866,-4.5929,-4.5873,-4.5789,-4.5703,-4.5642,-4.5558,-4.5473,-4.54,-4.5284,-4.518,-4.5115,-4.4985,-4.4806,-4.465,-4.4519,-4.4465,-4.4308,-4.4194,-4.4028,-4.3949,-4.3775,-4.3666,-4.352,-4.3351,-4.3228,-4.3014,-4.2832,-4.3149,-4.3453,-4.3578,-4.324,-4.2923,-4.2555,-4.2192,-4.1682,-4.1139,-4.0027,-3.8035,-3.4409,-3.0041,-2.686,-2.3766,-1.957,-1.811,-1.721,-1.6655,-1.5994,-1.5337,-1.4567,-1.3806,-1.2942,-1.197,-1.0998,-0.9912,-0.8821,-0.7627,-0.6431,-0.5432,-0.4431,-0.3428,-0.2522,-0.1515,-0.0504,0.0706,0.2004,0.2965,0.3688,0.4282,0.4966,0.5629,0.6242,0.69,0.758,0.838,0.917,0.9864,1.0472,1.1079,1.1768,1.254,1.313,1.3724,1.4314,1.4985,1.5748,1.6327,1.6894,1.7473,1.8129,1.8851,1.9529,1.9693,1.9736,1.9902,1.9969,1.992,2.0115,2.0164,2.0234,2.0401,2.0797,2.1117,2.1446,2.1761,2.2123,2.2555,2.28,2.2896,2.317,2.3436,2.3495,2.3659,2.374,2.3459,-4.5543,-4.561,-4.5591,-4.5524,-4.5418,-4.5361,-4.5283,-4.5137,-4.503,-4.491,-4.4758,-4.4636,-4.4457,-4.427,-4.4016,-4.3912,-4.3912,-4.367,-4.3523,-4.3369,-4.3158,-4.2996,-4.2812,-4.2621,-4.239,-4.2329,-4.1967,-4.1704,-4.1669,-4.1861,-4.2047,-4.2096,-4.1616,-4.1227,-4.0764,-4.0095,-3.9378,-3.7809,-3.5195,-3.2236,-2.9152,-2.6334,-2.3795,-2.1444,-1.9786,-1.8427,-1.7785,-1.685,-1.6008,-1.5146,-1.4286,-1.3329,-1.2268,-1.1292,-1.0212,-0.9122,-0.8031,-0.6936,-0.5837,-0.4734,-0.3731,-0.2623,-0.1514,-0.0303,0.101,0.2119,0.2917,0.3361,0.4076,0.4757,0.5315,0.5935,0.6665,0.7432,0.8201,0.9078,0.9777,1.0299,1.0987,1.1677,1.2448,1.3215,1.3802,1.4398,1.5075,1.5922,1.65,1.6976,1.7554,1.829,1.8772,1.9478,1.9737,1.9849,2.0158,2.0222,2.0151,2.0225,2.0285,2.04,2.0599,2.0716,2.0926,2.1256,2.1596,2.1949,2.2383,2.2629,2.28,2.316,2.3441,2.3548,2.3642,2.3771,2.4013,-4.5199,-4.5151,-4.5201,-4.5203,-4.5201,-4.5019,-4.4943,-4.4833,-4.4572,-4.4411,-4.426,-4.3962,-4.3772,-4.3575,-4.3334,-4.3194,-4.314,-4.2959,-4.2736,-4.2582,-4.2444,-4.2185,-4.1937,-4.1647,-4.1305,-4.1052,-4.0775,-4.0426,-4.0084,-3.9949,-4.0275,-4.0548,-4.0161,-3.9716,-3.908,-3.8368,-3.7038,-3.5344,-3.3002,-3.099,-2.8578,-2.6184,-2.3988,-2.2199,-2.061,-1.9263,-1.8179,-1.734,-1.64,-1.5439,-1.458,-1.3721,-1.2657,-1.159,-1.0507,-0.9422,-0.8435,-0.7338,-0.6237,-0.5037,-0.4034,-0.2927,-0.1615,-0.0202,0.0909,0.1615,0.2415,0.3108,0.3837,0.4456,0.5131,0.5779,0.6466,0.721,0.797,0.8732,0.9515,1.012,1.0727,1.1585,1.2357,1.3124,1.3808,1.4314,1.5068,1.5914,1.6656,1.7139,1.7797,1.8451,1.8763,1.924,1.9706,1.9972,2.0411,2.049,2.0441,2.0483,2.0613,2.0647,2.0804,2.0864,2.1043,2.1273,2.1626,2.1883,2.2197,2.2432,2.28,2.321,2.3458,2.3592,2.3735,2.3896,2.4289,-4.4895,-4.4751,-4.4643,-4.4669,-4.4808,-4.4662,-4.4476,-4.4327,-4.4114,-4.3831,-4.3572,-4.3301,-4.3105,-4.2885,-4.2696,-4.2462,-4.2324,-4.2157,-4.1913,-4.1639,-4.1481,-4.123,-4.0938,-4.0621,-4.0266,-3.9901,-3.9613,-3.9249,-3.8734,-3.8404,-3.7979,-3.8116,-3.8323,-3.8188,-3.7562,-3.6353,-3.4771,-3.3279,-3.1476,-2.9566,-2.8024,-2.5942,-2.4039,-2.258,-2.0898,-1.9637,-1.8542,-1.7613,-1.6676,-1.5724,-1.4771,-1.3817,-1.2856,-1.178,-1.0703,-0.9624,-0.8634,-0.7537,-0.6437,-0.5236,-0.4031,-0.2521,-0.1312,-0.0303,0.0707,0.1313,0.212,0.2809,0.3476,0.4107,0.4848,0.5371,0.5965,0.6818,0.7663,0.8504,0.9183,0.9887,1.0641,1.1499,1.2272,1.2954,1.3639,1.4321,1.5159,1.5914,1.6648,1.7302,1.7959,1.8451,1.8772,1.9082,1.9469,1.9784,2.0148,2.0448,2.0727,2.0818,2.0938,2.0991,2.101,2.1174,2.1316,2.1506,2.1632,2.1867,2.2109,2.2383,2.2665,2.303,2.339,2.3603,2.3807,2.3992,2.4302,-4.4541,-4.4393,-4.4121,-4.4181,-4.4393,-4.425,-4.4023,-4.3791,-4.3627,-4.3283,-4.2829,-4.2616,-4.2436,-4.2198,-4.1888,-4.1735,-4.1516,-4.1311,-4.1065,-4.0767,-4.0511,-4.0252,-3.9935,-3.956,-3.9159,-3.8799,-3.8398,-3.7962,-3.7483,-3.6933,-3.6492,-3.623,-3.6152,-3.6075,-3.5761,-3.4263,-3.2792,-3.1483,-3.0063,-2.8457,-2.7128,-2.54,-2.38,-2.258,-2.1078,-1.992,-1.8819,-1.78,-1.6763,-1.5818,-1.4867,-1.3817,-1.2851,-1.1785,-1.0708,-0.962,-0.8634,-0.754,-0.6539,-0.5133,-0.3828,-0.2421,-0.1413,-0.0606,0.0202,0.101,0.1818,0.242,0.309,0.3752,0.4522,0.5077,0.5823,0.671,0.7486,0.8232,0.908,0.9768,1.0589,1.1419,1.2186,1.296,1.3724,1.4482,1.5318,1.6072,1.6812,1.7383,1.7789,1.8282,1.8612,1.8931,1.924,1.9557,1.9854,2.0294,2.0658,2.1004,2.1081,2.1292,2.1392,2.1421,2.1442,2.1472,2.1594,2.1823,2.202,2.2209,2.2494,2.2848,2.315,2.3509,2.3675,2.382,2.4034,-4.4121,-4.3986,-4.373,-4.3744,-4.3923,-4.373,-4.3545,-4.3336,-4.3032,-4.2637,-4.218,-4.1831,-4.1631,-4.1463,-4.1094,-4.0879,-4.0672,-4.04,-4.0153,-3.9868,-3.9612,-3.9332,-3.8957,-3.8574,-3.8092,-3.7648,-3.7279,-3.6814,-3.6228,-3.574,-3.5094,-3.4351,-3.3969,-3.3765,-3.4066,-3.2692,-3.1254,-3.005,-2.8797,-2.736,-2.6058,-2.4734,-2.3367,-2.2138,-2.0988,-1.982,-1.8819,-1.78,-1.677,-1.5825,-1.4867,-1.3817,-1.2856,-1.178,-1.0703,-0.9628,-0.8634,-0.764,-0.6742,-0.4832,-0.3527,-0.2521,-0.1716,-0.0909,-0.0101,0.0707,0.1414,0.2017,0.2715,0.3491,0.4248,0.4979,0.5777,0.6555,0.7263,0.817,0.8947,0.9821,1.0681,1.1467,1.2158,1.2966,1.3808,1.465,1.5484,1.6229,1.6976,1.7383,1.7708,1.8031,1.8451,1.8772,1.9091,1.9478,1.9863,2.0255,2.0663,2.0968,2.1292,2.1512,2.1626,2.1713,2.1669,2.1554,2.1627,2.1876,2.191,2.1972,2.2321,2.2665,2.303,2.333,2.3509,2.3628,2.3747,-4.3726,-4.3511,-4.3284,-4.316,-4.3087,-4.3124,-4.2995,-4.2675,-4.2274,-4.1856,-4.1534,-4.1209,-4.0913,-4.0659,-4.04,-4.0103,-3.9749,-3.9645,-3.9401,-3.8903,-3.8684,-3.8351,-3.7969,-3.7546,-3.7071,-3.6508,-3.6072,-3.5627,-3.5008,-3.4528,-3.3919,-3.3171,-3.2046,-3.1609,-3.1596,-3.0794,-2.9666,-2.8718,-2.7533,-2.6246,-2.5158,-2.3973,-2.2755,-2.1615,-2.0538,-1.9546,-1.8635,-1.7621,-1.6683,-1.5825,-1.4771,-1.3817,-1.2856,-1.178,-1.0708,-0.9727,-0.8733,-0.7637,-0.6539,-0.5035,-0.4031,-0.3025,-0.2119,-0.1312,-0.0606,0.0202,0.0909,0.1716,0.2423,0.3111,0.3799,0.4728,0.5543,0.6288,0.7149,0.8091,0.8966,0.9875,1.0749,1.1504,1.219,1.3182,1.4064,1.4587,1.5318,1.5989,1.6648,1.7147,1.7473,1.7878,1.8282,1.8612,1.9011,1.9399,1.9784,2.0098,2.0576,2.0971,2.141,2.1814,2.1914,2.1919,2.2062,2.2004,2.1925,2.1858,2.1952,2.1985,2.2183,2.2494,2.2726,2.303,2.321,2.3318,2.3437,-4.3284,-4.3069,-4.277,-4.2537,-4.2333,-4.2534,-4.2396,-4.1966,-4.148,-4.1117,-4.0819,-4.0514,-4.022,-3.9919,-3.9645,-3.9332,-3.8865,-3.8756,-3.8535,-3.7985,-3.7796,-3.7445,-3.7027,-3.6585,-3.6072,-3.5514,-3.4993,-3.4528,-3.3934,-3.3367,-3.2577,-3.1476,-3.038,-2.982,-2.9589,-2.9045,-2.8414,-2.7452,-2.6329,-2.5337,-2.4231,-2.3202,-2.2148,-2.1159,-2.0175,-1.918,-1.8357,-1.7527,-1.6595,-1.5737,-1.4777,-1.3823,-1.2851,-1.178,-1.0806,-0.9821,-0.863,-0.7534,-0.6337,-0.5438,-0.4535,-0.3732,-0.2724,-0.1817,-0.101,-0.0202,0.0606,0.1414,0.212,0.2825,0.3417,0.4358,0.5136,0.5994,0.6906,0.7872,0.8781,0.9707,1.0639,1.1413,1.231,1.3311,1.4183,1.4635,1.5159,1.5741,1.6245,1.6746,1.7318,1.7635,1.804,1.8451,1.8772,1.9161,1.9557,1.9872,2.042,2.0886,2.1349,2.1731,2.2038,2.2062,2.2291,2.2501,2.2288,2.2128,2.1927,2.2005,2.2052,2.2085,2.2247,2.2543,2.2896,2.3017,2.3078,-4.2826,-4.257,-4.2228,-4.1959,-4.1753,-4.1856,-4.164,-4.1163,-4.0772,-4.0434,-4.012,-3.9799,-3.9487,-3.9135,-3.8898,-3.8623,-3.827,-3.7985,-3.7637,-3.7282,-3.6966,-3.6554,-3.6117,-3.5672,-3.5124,-3.4595,-3.4056,-3.3589,-3.2917,-3.2074,-3.1031,-2.9986,-2.9081,-2.845,-2.8051,-2.7557,-2.7058,-2.6246,-2.5411,-2.4413,-2.3484,-2.253,-2.1633,-2.0727,-1.9911,-1.8996,-1.8172,-1.7347,-1.64,-1.554,-1.4682,-1.3817,-1.2851,-1.1785,-1.09,-0.9817,-0.8428,-0.7434,-0.6539,-0.5641,-0.5039,-0.4236,-0.3226,-0.222,-0.1313,-0.0606,0.0202,0.101,0.1716,0.2423,0.312,0.392,0.472,0.5678,0.6516,0.754,0.8475,0.9465,1.0393,1.1323,1.2279,1.3237,1.4206,1.4733,1.512,1.573,1.6232,1.6637,1.7122,1.7465,1.787,1.8282,1.8612,1.8922,1.932,1.9706,2.0177,2.0722,2.1041,2.1425,2.17,2.2059,2.2254,2.2356,2.2462,2.2332,2.1901,2.1717,2.1736,2.182,2.1886,2.2185,2.2604,2.2678,2.2678,-4.2396,-4.2103,-4.1744,-4.148,-4.1146,-4.0689,-4.0449,-4.0417,-4.0087,-3.9799,-3.9454,-3.9169,-3.8898,-3.8551,-3.8286,-3.7927,-3.7578,-3.7266,-3.6845,-3.6492,-3.6196,-3.5816,-3.5365,-3.4824,-3.4288,-3.3728,-3.3185,-3.269,-3.1896,-3.0921,-2.9999,-2.9094,-2.8223,-2.751,-2.6846,-2.6268,-2.5852,-2.5348,-2.4509,-2.3647,-2.2784,-2.1811,-2.1006,-2.0275,-1.9363,-1.8542,-1.7807,-1.7153,-1.6298,-1.5439,-1.4675,-1.3913,-1.305,-1.2073,-1.0998,-0.9529,-0.8435,-0.7537,-0.6739,-0.6142,-0.5441,-0.4738,-0.3729,-0.2823,-0.1917,-0.101,-0.0202,0.0606,0.1313,0.202,0.2826,0.363,0.4435,0.5413,0.6374,0.735,0.8398,0.9348,1.0301,1.1536,1.2516,1.3368,1.4269,1.4892,1.5294,1.5762,1.6154,1.6575,1.694,1.7294,1.7627,1.804,1.8362,1.8683,1.9152,1.9627,2.0098,2.0566,2.0809,2.1128,2.1568,2.1842,2.2103,2.2243,2.2375,2.2077,2.1587,2.1547,2.1654,2.1527,2.1572,2.1949,2.2197,2.2247,2.2371,-4.1917,-4.1552,-4.1209,-4.0819,-4.0385,-3.9714,-3.9454,-3.9506,-3.9382,-3.9185,-3.8936,-3.8623,-3.827,-3.7911,-3.7637,-3.7282,-3.6952,-3.6631,-3.6258,-3.5816,-3.5509,-3.5052,-3.452,-3.4031,-3.3548,-3.2988,-3.2417,-3.1836,-3.1022,-3.0024,-2.9015,-2.8371,-2.751,-2.6869,-2.6207,-2.5538,-2.4946,-2.4433,-2.3744,-2.2872,-2.2078,-2.1275,-2.0456,-1.9729,-1.8904,-1.8172,-1.7535,-1.6871,-1.6204,-1.5439,-1.4675,-1.4004,-1.3044,-1.197,-1.0801,-0.943,-0.8634,-0.7836,-0.7138,-0.6539,-0.5839,-0.5037,-0.4332,-0.353,-0.2522,-0.1515,-0.0707,0.0202,0.101,0.1717,0.2522,0.3327,0.423,0.5133,0.6232,0.7332,0.8322,0.941,1.0511,1.1763,1.2686,1.3466,1.4267,1.483,1.5356,1.5827,1.6255,1.6642,1.6914,1.7169,1.7458,1.787,1.8193,1.8523,1.8993,1.939,1.9784,2.0167,2.0566,2.0964,2.1349,2.1721,2.1993,2.2136,2.2304,2.1985,2.1727,2.161,2.1581,2.1495,2.1319,2.1469,2.171,2.1874,2.1937,-4.1408,-4.11,-4.0597,-4.0104,-3.9556,-3.9023,-3.8678,-3.8583,-3.8639,-3.8639,-3.8415,-3.8059,-3.7711,-3.7342,-3.7103,-3.6754,-3.6399,-3.6085,-3.5688,-3.5118,-3.4802,-3.4332,-3.3825,-3.3199,-3.2775,-3.2273,-3.1703,-3.111,-3.0355,-2.9419,-2.8462,-2.7718,-2.6917,-2.6279,-2.5801,-2.4871,-2.4272,-2.3657,-2.296,-2.2087,-2.1642,-2.0835,-2.0011,-1.9546,-1.8812,-1.8079,-1.7246,-1.6683,-1.6197,-1.5439,-1.4771,-1.4196,-1.2937,-1.1775,-1.0703,-0.9723,-0.8931,-0.8233,-0.7537,-0.6839,-0.6137,-0.5438,-0.474,-0.4034,-0.3127,-0.2019,-0.1111,-0.0202,0.0505,0.1414,0.222,0.3025,0.393,0.4935,0.5937,0.6936,0.7932,0.9221,1.0574,1.1758,1.2565,1.3473,1.4192,1.4778,1.5211,1.5784,1.6322,1.6735,1.6866,1.7115,1.7365,1.7713,1.8113,1.8438,1.8594,1.8993,1.9469,1.9863,2.0255,2.0644,2.0964,2.1425,2.1883,2.1985,2.2147,2.2207,2.199,2.1882,2.1677,2.1453,2.1261,2.1043,2.1186,2.1412,2.1486,-4.0884,-4.0597,-3.9833,-3.9329,-3.8952,-3.8399,-3.8116,-3.8059,-3.7711,-3.7653,-3.7637,-3.7476,-3.7194,-3.6892,-3.6646,-3.6352,-3.5879,-3.5509,-3.5037,-3.4654,-3.4196,-3.3785,-3.3199,-3.2704,-3.22,-3.1629,-3.1123,-3.0432,-2.9586,-2.8724,-2.8007,-2.7336,-2.6599,-2.5957,-2.538,-2.4444,-2.3754,-2.3144,-2.2264,-2.1741,-2.1383,-2.0564,-1.9737,-1.9279,-1.8542,-1.7986,-1.7246,-1.6777,-1.6197,-1.5439,-1.4968,-1.4004,-1.2657,-1.178,-1.09,-1.0015,-0.9327,-0.863,-0.7935,-0.7238,-0.6539,-0.5937,-0.5236,-0.4535,-0.363,-0.2522,-0.1514,-0.0707,0.0101,0.1009,0.1917,0.2724,0.363,0.4634,0.5636,0.6637,0.7637,0.9122,1.0605,1.1556,1.2496,1.3233,1.4064,1.4666,1.5126,1.5667,1.6407,1.6764,1.6847,1.7021,1.7391,1.7673,1.8196,1.8525,1.8554,1.8736,1.9163,1.9497,1.9854,2.0255,2.0576,2.1041,2.1502,2.1721,2.192,2.2009,2.2039,2.2082,2.1903,2.1589,2.1283,2.1086,2.104,2.1226,2.1107,-4.0319,-4.007,-3.9259,-3.8733,-3.8343,-3.7886,-3.7594,-3.7401,-3.7074,-3.6876,-3.6892,-3.6831,-3.6723,-3.6352,-3.6178,-3.5846,-3.5379,-3.4986,-3.452,-3.4045,-3.3646,-3.3227,-3.2717,-3.22,-3.1776,-3.1198,-3.0508,-2.9741,-2.8895,-2.8167,-2.7592,-2.7021,-2.6362,-2.5611,-2.4946,-2.4176,-2.3406,-2.2803,-2.1839,-2.1392,-2.1114,-2.0292,-1.9654,-1.9104,-1.8542,-1.7893,-1.7333,-1.6864,-1.6298,-1.5439,-1.4777,-1.3919,-1.2856,-1.1975,-1.1194,-1.0408,-0.9723,-0.9034,-0.8336,-0.764,-0.7042,-0.6337,-0.5734,-0.4935,-0.4135,-0.3026,-0.2019,-0.1212,-0.0202,0.0606,0.1414,0.2322,0.3228,0.4232,0.5334,0.6434,0.7733,0.9225,1.0408,1.1287,1.2042,1.2721,1.3465,1.4232,1.4716,1.537,1.613,1.6664,1.6744,1.6922,1.7313,1.7612,1.8083,1.8482,1.8542,1.8731,1.8994,1.9226,1.9497,1.9932,2.0411,2.0731,2.1041,2.1349,2.1624,2.1855,2.1892,2.1987,2.194,2.1635,2.142,2.1199,2.1125,2.1083,2.1029,-3.9782,-3.9468,-3.8788,-3.823,-3.7812,-3.7401,-3.7103,-3.686,-3.6538,-3.6289,-3.6148,-3.6304,-3.6178,-3.5925,-3.5604,-3.5213,-3.4802,-3.4452,-3.3977,-3.3646,-3.3227,-3.2731,-3.2228,-3.1716,-3.1272,-3.0583,-2.9819,-2.9197,-2.851,-2.7846,-2.7267,-2.6715,-2.6041,-2.5285,-2.469,-2.3917,-2.3144,-2.2618,-2.1919,-2.1284,-2.0744,-2.0119,-1.9571,-1.9012,-1.845,-1.79,-1.7333,-1.6864,-1.6393,-1.5635,-1.4777,-1.3823,-1.305,-1.2268,-1.159,-1.0806,-1.0019,-0.9327,-0.863,-0.8141,-0.7437,-0.6736,-0.6037,-0.5336,-0.4537,-0.3632,-0.2624,-0.1615,-0.0707,0.0202,0.1111,0.2019,0.2925,0.4031,0.5133,0.6334,0.773,0.913,1.0015,1.0998,1.1585,1.217,1.2948,1.3721,1.4388,1.5057,1.5724,1.6292,1.68,1.6999,1.7295,1.7552,1.7974,1.8175,1.8364,1.8654,1.8806,1.8949,1.9226,1.9692,2.0098,2.0333,2.0654,2.1041,2.1318,2.1441,2.1673,2.1732,2.1681,2.1691,2.1568,2.1388,2.1242,2.1215,2.1054,-3.9169,-3.8616,-3.8107,-3.7727,-3.7417,-3.6892,-3.66,-3.6538,-3.6226,-3.5925,-3.5668,-3.5683,-3.5619,-3.5554,-3.5213,-3.4802,-3.4332,-3.3991,-3.3646,-3.3312,-3.2816,-3.2228,-3.1716,-3.1198,-3.0672,-2.9985,-2.9209,-2.8578,-2.8179,-2.7522,-2.694,-2.6362,-2.5874,-2.5115,-2.4282,-2.358,-2.2969,-2.2353,-2.1722,-2.1087,-2.0736,-2.0201,-1.9571,-1.9012,-1.845,-1.7994,-1.7527,-1.6965,-1.6487,-1.5818,-1.4968,-1.401,-1.3147,-1.2565,-1.1883,-1.11,-1.0413,-0.9723,-0.9031,-0.8435,-0.7733,-0.7135,-0.6437,-0.5837,-0.5037,-0.4236,-0.3228,-0.222,-0.1211,-0.0202,0.0707,0.1716,0.2723,0.4031,0.5233,0.6237,0.7437,0.8428,0.932,1.0207,1.09,1.1585,1.2365,1.3044,1.3624,1.4388,1.5051,1.5724,1.6204,1.6655,1.7203,1.7472,1.7728,1.7784,1.7898,1.8431,1.8682,1.8733,1.8922,1.9323,1.9627,1.9863,2.0177,2.0566,2.0799,2.0934,2.1161,2.149,2.1642,2.1647,2.166,2.1635,2.1426,2.1301,2.1125]},{"header":{"parameterUnit":"m.s-1","parameterCategory":1,"la1":31.0,"la2":29.5877,"lo1":-88.7671,"lo2":-86.6584,"dy":0.0162,"dx":0.0185,"nx":115,"ny":88,"refTime":"2023-09-21T00:00:00:Z","depth":0,"parameterNumber":3,"parameterNumberName":"V-component_of_WINDS"},"data":[0.0,0.0,0.0,0.0,0.0,0.0,0.0,0.0,0.0,0.0,0.0,0.0,0.0,0.0,0.0,0.0,0.0,0.0,0.0,0.0,0.0,0.0,0.0,0.0,0.0,0.0,0.0,0.0,0.0,0.0,0.0,0.0,0.0,0.0,0.0,0.0,0.0,0.0,0.0,0.0,0.0,0.0,0.0,0.0,0.0,0.0,0.0,0.0,0.0,0.0,0.0,0.0,0.0,0.0,0.0,0.0,0.0,0.0,0.0,0.0,0.0,0.0,0.0,0.0,0.0,0.0,0.0,0.0,0.0,0.0,0.0,0.0,0.0,0.0,0.0,0.0,0.0,0.0,0.0,0.0,0.0,0.0,0.0,0.0,0.0,0.0,0.0,0.0,0.0,0.0,0.0,0.0,0.0,0.0,0.0,0.0,0.0,0.0,0.0,0.0,0.0,0.0,0.0,0.0,0.0,0.0,0.0,0.0,0.0,0.0,0.0,0.0,0.0,0.0,0.0,0.0,0.0,0.0,0.0,0.0,0.0,0.0,0.0,0.0,0.0,0.0,0.0,0.0,0.0,0.0,0.0,0.0,0.0,0.0,0.0,0.0,0.0,0.0,0.0,0.0,0.0,0.0,0.0,0.0,0.0,0.0,0.0,0.0,0.0,0.0,0.0,0.0,0.0,0.0,0.0,0.0,0.0,0.0,0.0,0.0,0.0,0.0,0.0,0.0,0.0,0.0,0.0,0.0,0.0,0.0,0.0,0.0,0.0,0.0,0.0,0.0,0.0,0.0,0.0,0.0,0.0,0.0,0.0,0.0,0.0,0.0,0.0,0.0,0.0,0.0,0.0,0.0,0.0,0.0,0.0,0.0,0.0,0.0,0.0,0.0,0.0,0.0,0.0,0.0,0.0,0.0,0.0,0.0,0.0,0.0,0.0,0.0,0.0,0.0,0.0,0.0,0.0,0.0,0.0,0.0,0.0,0.0,0.0,0.0,0.0,0.0,0.0,0.0,0.0,0.0,0.0,0.0,0.0,0.0,0.0,0.0,0.0,0.0,0.0,0.0,0.0,0.0,0.0,0.0,0.0,0.0,0.0,0.0,0.0,0.0,0.0,0.0,0.0,0.0,0.0,0.0,0.0,0.0,0.0,0.0,0.0,0.0,0.0,0.0,0.0,0.0,0.0,0.0,0.0,0.0,0.0,0.0,0.0,0.0,0.0,0.0,0.0,0.0,0.0,0.0,0.0,0.0,0.0,0.0,0.0,0.0,0.0,0.0,0.0,0.0,0.0,0.0,0.0,0.0,0.0,0.0,0.0,0.0,0.0,0.0,0.0,0.0,0.0,0.0,0.0,0.0,0.0,0.0,0.0,0.0,0.0,0.0,0.0,0.0,0.0,0.0,0.0,0.0,0.0,0.0,0.0,0.0,0.0,0.0,0.0,0.0,0.0,0.0,0.0,0.0,0.0,0.0,0.0,0.0,0.0,0.0,0.0,0.0,0.0,0.0,0.0,0.0,0.0,0.0,0.0,0.0,0.0,0.0,0.0,0.0,0.0,0.0,0.0,0.0,0.0,0.0,0.0,0.0,0.0,0.0,0.0,0.0,0.0,0.0,0.0,0.0,0.0,0.0,0.0,0.0,0.0,0.0,0.0,0.0,0.0,0.0,0.0,0.0,0.0,0.0,0.0,0.0,0.0,0.0,0.0,0.0,0.0,0.0,0.0,0.0,0.0,0.0,0.0,0.0,0.0,0.0,0.0,0.0,0.0,0.0,0.0,0.0,0.0,0.0,0.0,0.0,0.0,0.0,0.0,0.0,0.0,0.0,0.0,0.0,0.0,0.0,0.0,0.0,0.0,0.0,0.0,0.0,0.0,0.0,0.0,0.0,0.0,0.0,0.0,0.0,0.0,0.0,0.0,0.0,0.0,0.0,0.0,0.0,0.0,0.0,0.0,0.0,0.0,0.0,0.0,0.0,0.0,0.0,0.0,0.0,0.0,0.0,0.0,0.0,0.0,0.0,0.0,0.0,0.0,0.0,0.0,0.0,0.0,0.0,0.0,0.0,0.0,0.0,0.0,0.0,0.0,0.0,0.0,0.0,0.0,0.0,0.0,0.0,0.0,0.0,0.0,0.0,0.0,0.0,0.0,0.0,0.0,0.0,0.0,0.0,0.0,0.0,0.0,0.0,0.0,0.0,0.0,0.0,0.0,0.0,0.0,0.0,0.0,0.0,0.0,0.0,0.0,0.0,0.0,0.0,0.0,0.0,0.0,0.0,0.0,0.0,0.0,0.0,0.0,0.0,0.0,0.0,0.0,0.0,0.0,0.0,0.0,0.0,0.0,0.0,0.0,0.0,0.0,0.0,0.0,0.0,0.0,0.0,0.0,0.0,0.0,0.0,0.0,0.0,0.0,0.0,0.0,0.0,0.0,0.0,0.0,0.0,0.0,0.0,0.0,0.0,0.0,0.0,0.0,0.0,0.0,0.0,0.0,0.0,0.0,0.0,0.0,0.0,0.0,0.0,0.0,0.0,0.0,0.0,0.0,0.0,0.0,0.0,0.0,0.0,0.0,0.0,0.0,0.0,0.0,0.0,0.0,0.0,0.0,0.0,0.0,0.0,0.0,0.0,0.0,0.0,0.0,0.0,0.0,0.0,0.0,0.0,0.0,0.0,0.0,0.0,0.0,0.0,0.0,0.0,0.0,0.0,0.0,0.0,0.0,0.0,0.0,0.0,0.0,0.0,0.0,0.0,0.0,0.0,0.0,0.0,0.0,0.0,0.0,0.0,0.0,0.0,0.0,0.0,0.0,0.0,0.0,0.0,0.0,0.0,0.0,0.0,0.0,0.0,0.0,0.0,0.0,0.0,0.0,0.0,0.0,0.0,0.0,0.0,0.0,0.0,0.0,0.0,0.0,0.0,0.0,0.0,0.0,0.0,0.0,0.0,0.0,0.0,0.0,0.0,0.0,0.0,0.0,0.0,0.0,0.0,0.0,0.0,0.0,0.0,0.0,0.0,0.0,0.0,0.0,0.0,0.0,0.0,0.0,0.0,0.0,0.0,0.0,0.0,0.0,0.0,0.0,0.0,0.0,0.0,0.0,0.0,0.0,0.0,0.0,0.0,0.0,0.0,0.0,0.0,0.0,0.0,0.0,0.0,0.0,0.0,0.0,0.0,0.0,0.0,0.0,0.0,0.0,0.0,0.0,0.0,0.0,0.0,0.0,0.0,0.0,0.0,0.0,0.0,0.0,0.0,0.0,0.0,0.0,0.0,0.0,0.0,0.0,0.0,0.0,0.0,0.0,0.0,0.0,0.0,0.0,0.0,0.0,0.0,0.0,0.0,0.0,0.0,0.0,0.0,0.0,0.0,0.0,0.0,0.0,0.0,0.0,0.0,0.0,0.0,0.0,0.0,0.0,0.0,0.0,0.0,0.0,0.0,0.0,0.0,0.0,0.0,0.0,0.0,0.0,0.0,0.0,0.0,0.0,0.0,0.0,0.0,0.0,0.0,0.0,0.0,0.0,0.0,0.0,0.0,0.0,0.0,0.0,0.0,0.0,0.0,0.0,0.0,0.0,0.0,0.0,0.0,0.0,0.0,0.0,0.0,0.0,0.0,0.0,0.0,0.0,0.0,0.0,0.0,0.0,0.0,0.0,0.0,0.0,0.0,0.0,0.0,0.0,0.0,0.0,0.0,0.0,0.0,0.0,0.0,0.0,0.0,0.0,0.0,0.0,0.0,0.0,0.0,0.0,0.0,0.0,0.0,0.0,0.0,0.0,0.0,0.0,0.0,0.0,0.0,0.0,0.0,0.0,0.0,0.0,0.0,0.0,0.0,0.0,0.0,0.0,0.0,0.0,0.0,0.0,0.0,0.0,0.0,0.0,0.0,0.0,0.0,0.0,0.0,0.0,0.0,0.0,0.0,0.0,0.0,0.0,0.0,0.0,0.0,0.0,0.0,0.0,0.0,0.0,0.0,0.0,0.0,0.0,0.0,0.0,0.0,0.0,0.0,0.0,0.0,0.0,0.0,0.0,0.0,0.0,0.0,0.0,0.0,0.0,0.0,0.0,0.0,0.0,0.0,0.0,0.0,0.0,0.0,0.0,0.0,0.0,0.0,0.0,0.0,0.0,0.0,0.0,0.0,0.0,0.0,0.0,0.0,0.0,0.0,0.0,0.0,0.0,0.0,0.0,0.0,0.0,0.0,0.0,0.0,0.0,0.0,0.0,0.0,0.0,0.0,0.0,0.0,0.0,0.0,0.0,0.0,-2.1151,0.0,0.0,0.0,0.0,0.0,0.0,0.0,0.0,0.0,0.0,0.0,0.0,0.0,0.0,0.0,0.0,0.0,0.0,0.0,0.0,0.0,0.0,0.0,0.0,0.0,0.0,0.0,0.0,0.0,0.0,0.0,0.0,0.0,0.0,0.0,0.0,0.0,0.0,0.0,0.0,0.0,0.0,0.0,0.0,0.0,0.0,0.0,0.0,0.0,0.0,0.0,0.0,0.0,0.0,0.0,0.0,0.0,0.0,0.0,0.0,0.0,0.0,0.0,0.0,0.0,0.0,0.0,0.0,0.0,0.0,0.0,0.0,0.0,0.0,0.0,0.0,0.0,0.0,0.0,0.0,0.0,0.0,0.0,0.0,0.0,0.0,0.0,0.0,0.0,0.0,0.0,0.0,0.0,0.0,0.0,0.0,0.0,0.0,0.0,0.0,0.0,0.0,0.0,0.0,0.0,0.0,0.0,0.0,0.0,0.0,-2.1797,-2.1768,-2.1661,-2.1587,-2.1526,0.0,0.0,0.0,0.0,0.0,0.0,0.0,0.0,0.0,0.0,0.0,0.0,0.0,0.0,0.0,0.0,0.0,0.0,0.0,0.0,0.0,0.0,0.0,0.0,0.0,0.0,0.0,0.0,0.0,0.0,0.0,0.0,0.0,0.0,0.0,0.0,0.0,0.0,0.0,0.0,0.0,0.0,0.0,0.0,0.0,0.0,0.0,0.0,0.0,0.0,0.0,0.0,0.0,0.0,0.0,0.0,0.0,0.0,0.0,0.0,0.0,0.0,0.0,0.0,0.0,0.0,0.0,0.0,0.0,0.0,0.0,0.0,0.0,0.0,0.0,0.0,0.0,0.0,0.0,0.0,0.0,0.0,0.0,0.0,0.0,0.0,0.0,0.0,0.0,0.0,0.0,0.0,0.0,0.0,0.0,0.0,0.0,0.0,0.0,0.0,0.0,0.0,0.0,0.0,0.0,0.0,0.0,0.0,0.0,0.0,0.0,0.0,-2.1945,-2.1915,-2.1915,0.0,0.0,0.0,0.0,0.0,0.0,0.0,0.0,0.0,0.0,0.0,0.0,0.0,0.0,0.0,0.0,0.0,0.0,0.0,0.0,0.0,0.0,0.0,0.0,0.0,0.0,0.0,0.0,0.0,0.0,0.0,0.0,0.0,0.0,0.0,0.0,0.0,0.0,0.0,0.0,0.0,0.0,0.0,0.0,0.0,0.0,0.0,0.0,0.0,0.0,0.0,0.0,0.0,0.0,0.0,0.0,0.0,0.0,0.0,0.0,0.0,0.0,0.0,0.0,0.0,0.0,0.0,0.0,0.0,0.0,0.0,0.0,0.0,0.0,0.0,0.0,0.0,0.0,0.0,0.0,0.0,0.0,0.0,0.0,0.0,0.0,0.0,0.0,0.0,0.0,0.0,0.0,0.0,0.0,0.0,0.0,0.0,0.0,0.0,0.0,0.0,0.0,0.0,0.0,0.0,0.0,0.0,0.0,0.0,0.0,-2.2349,-2.2349,-2.2293,0.0,-2.2254,0.0,0.0,0.0,0.0,0.0,0.0,0.0,0.0,0.0,0.0,0.0,0.0,0.0,0.0,0.0,0.0,0.0,0.0,0.0,0.0,0.0,0.0,0.0,0.0,0.0,0.0,0.0,0.0,0.0,0.0,0.0,0.0,0.0,0.0,0.0,0.0,0.0,0.0,0.0,0.0,0.0,0.0,0.0,0.0,0.0,0.0,0.0,0.0,0.0,0.0,0.0,0.0,0.0,0.0,0.0,0.0,0.0,0.0,0.0,0.0,0.0,0.0,0.0,0.0,0.0,0.0,0.0,0.0,0.0,0.0,0.0,0.0,0.0,0.0,0.0,0.0,0.0,0.0,0.0,0.0,0.0,0.0,0.0,0.0,0.0,0.0,0.0,0.0,0.0,0.0,0.0,0.0,0.0,0.0,0.0,0.0,0.0,0.0,0.0,0.0,0.0,0.0,0.0,0.0,0.0,0.0,0.0,0.0,0.0,0.0,-2.246,-2.246,-2.2487,-2.2487,0.0,0.0,0.0,0.0,0.0,0.0,0.0,0.0,0.0,0.0,0.0,0.0,0.0,0.0,0.0,0.0,0.0,0.0,0.0,0.0,0.0,0.0,0.0,0.0,0.0,0.0,0.0,0.0,0.0,0.0,0.0,0.0,0.0,0.0,0.0,0.0,0.0,0.0,0.0,0.0,0.0,0.0,0.0,0.0,0.0,0.0,0.0,0.0,0.0,0.0,0.0,0.0,0.0,0.0,0.0,0.0,0.0,0.0,0.0,0.0,0.0,0.0,0.0,0.0,0.0,0.0,0.0,0.0,0.0,0.0,0.0,0.0,0.0,0.0,0.0,0.0,0.0,0.0,0.0,0.0,0.0,0.0,0.0,0.0,0.0,0.0,0.0,0.0,0.0,0.0,0.0,0.0,0.0,0.0,0.0,0.0,0.0,0.0,0.0,0.0,0.0,0.0,0.0,0.0,0.0,0.0,0.0,0.0,0.0,0.0,-2.2632,-2.2623,-2.2605,-2.2659,-2.2694,-2.2773,0.0,0.0,0.0,0.0,0.0,0.0,0.0,0.0,0.0,0.0,0.0,0.0,0.0,0.0,0.0,0.0,0.0,0.0,0.0,0.0,0.0,0.0,0.0,0.0,0.0,0.0,0.0,0.0,0.0,0.0,0.0,0.0,0.0,0.0,0.0,0.0,0.0,0.0,0.0,0.0,0.0,0.0,0.0,0.0,0.0,0.0,0.0,0.0,0.0,0.0,0.0,0.0,0.0,0.0,0.0,0.0,0.0,0.0,0.0,0.0,0.0,0.0,0.0,0.0,0.0,0.0,0.0,0.0,0.0,0.0,0.0,0.0,0.0,0.0,0.0,0.0,0.0,0.0,0.0,0.0,0.0,0.0,0.0,0.0,0.0,0.0,0.0,0.0,0.0,0.0,0.0,0.0,0.0,0.0,0.0,0.0,0.0,0.0,0.0,0.0,0.0,0.0,0.0,0.0,0.0,0.0,0.0,0.0,-2.2876,-2.2876,-2.2876,-2.2876,-2.2893,-2.2919,0.0,0.0,0.0,0.0,0.0,0.0,0.0,0.0,0.0,0.0,0.0,0.0,0.0,0.0,0.0,0.0,0.0,0.0,0.0,0.0,0.0,0.0,0.0,0.0,0.0,0.0,0.0,0.0,0.0,0.0,0.0,0.0,0.0,0.0,0.0,0.0,0.0,0.0,0.0,0.0,0.0,0.0,0.0,0.0,0.0,0.0,0.0,0.0,0.0,0.0,0.0,0.0,0.0,0.0,0.0,0.0,0.0,0.0,0.0,0.0,0.0,0.0,0.0,0.0,0.0,0.0,0.0,0.0,0.0,0.0,0.0,0.0,0.0,0.0,0.0,0.0,0.0,0.0,0.0,0.0,0.0,0.0,0.0,0.0,0.0,0.0,0.0,0.0,0.0,0.0,0.0,0.0,0.0,0.0,0.0,0.0,0.0,0.0,0.0,0.0,0.0,0.0,0.0,0.0,0.0,0.0,0.0,0.0,0.0,-2.2952,-2.2919,-2.2919,-2.2952,-2.302,-2.3052,0.0,0.0,0.0,0.0,0.0,0.0,0.0,0.0,0.0,0.0,0.0,0.0,0.0,0.0,0.0,0.0,0.0,0.0,0.0,0.0,0.0,0.0,0.0,0.0,0.0,0.0,0.0,0.0,0.0,0.0,0.0,0.0,0.0,0.0,0.0,0.0,0.0,0.0,0.0,0.0,0.0,0.0,0.0,0.0,0.0,0.0,0.0,0.0,0.0,0.0,0.0,0.0,0.0,0.0,0.0,0.0,0.0,0.0,0.0,0.0,0.0,0.0,0.0,0.0,0.0,0.0,0.0,0.0,0.0,0.0,0.0,0.0,0.0,0.0,0.0,0.0,0.0,0.0,0.0,0.0,0.0,0.0,0.0,0.0,0.0,0.0,0.0,0.0,0.0,0.0,0.0,0.0,0.0,0.0,0.0,0.0,0.0,0.0,0.0,0.0,0.0,0.0,0.0,0.0,0.0,0.0,0.0,0.0,0.0,-2.3028,0.0,-2.2995,-2.3028,-2.3095,-2.3151,0.0,0.0,0.0,0.0,0.0,0.0,0.0,0.0,0.0,0.0,0.0,0.0,0.0,0.0,0.0,0.0,0.0,0.0,0.0,0.0,0.0,0.0,0.0,0.0,0.0,0.0,0.0,0.0,0.0,0.0,0.0,0.0,0.0,0.0,0.0,0.0,0.0,0.0,0.0,0.0,0.0,0.0,0.0,0.0,0.0,0.0,0.0,0.0,0.0,0.0,0.0,0.0,0.0,0.0,0.0,0.0,0.0,0.0,0.0,0.0,0.0,0.0,0.0,0.0,0.0,0.0,0.0,0.0,0.0,0.0,0.0,0.0,0.0,0.0,0.0,0.0,0.0,0.0,0.0,0.0,0.0,0.0,0.0,0.0,0.0,0.0,0.0,0.0,0.0,0.0,0.0,0.0,0.0,0.0,0.0,0.0,0.0,0.0,0.0,0.0,0.0,0.0,0.0,0.0,0.0,0.0,0.0,0.0,-2.3168,-2.3119,-2.3095,-2.3095,-2.3095,-2.3168,-2.3188,0.0,0.0,0.0,0.0,0.0,0.0,0.0,0.0,0.0,0.0,0.0,0.0,0.0,0.0,0.0,0.0,0.0,0.0,0.0,0.0,0.0,0.0,0.0,0.0,0.0,0.0,0.0,0.0,0.0,0.0,0.0,0.0,0.0,0.0,0.0,0.0,0.0,0.0,0.0,0.0,0.0,0.0,0.0,0.0,0.0,0.0,0.0,0.0,0.0,0.0,0.0,0.0,0.0,0.0,0.0,0.0,0.0,0.0,0.0,0.0,0.0,0.0,0.0,0.0,0.0,0.0,0.0,0.0,0.0,0.0,0.0,0.0,0.0,0.0,0.0,0.0,0.0,0.0,0.0,0.0,0.0,0.0,0.0,0.0,0.0,0.0,0.0,0.0,0.0,0.0,0.0,0.0,0.0,0.0,0.0,0.0,0.0,0.0,0.0,0.0,0.0,0.0,0.0,0.0,0.0,0.0,0.0,0.0,0.0,-2.3028,-2.3045,-2.3045,-2.3045,-2.3193,-2.3236,0.0,0.0,0.0,0.0,0.0,0.0,0.0,0.0,0.0,0.0,0.0,0.0,0.0,0.0,0.0,0.0,0.0,0.0,0.0,0.0,0.0,0.0,0.0,0.0,0.0,0.0,0.0,0.0,0.0,0.0,0.0,0.0,0.0,0.0,0.0,0.0,0.0,0.0,0.0,0.0,0.0,0.0,0.0,0.0,0.0,0.0,0.0,0.0,0.0,0.0,0.0,0.0,0.0,0.0,0.0,0.0,0.0,0.0,0.0,0.0,0.0,0.0,0.0,0.0,0.0,0.0,0.0,0.0,0.0,0.0,0.0,0.0,0.0,0.0,0.0,0.0,0.0,0.0,0.0,0.0,0.0,0.0,0.0,0.0,0.0,0.0,0.0,0.0,0.0,0.0,0.0,0.0,0.0,0.0,0.0,0.0,0.0,0.0,0.0,0.0,0.0,0.0,0.0,0.0,0.0,0.0,0.0,0.0,0.0,-2.2876,-2.2944,-2.2995,-2.2995,-2.3144,-2.323,-2.3294,0.0,0.0,0.0,0.0,0.0,0.0,0.0,0.0,0.0,0.0,0.0,0.0,0.0,0.0,0.0,0.0,0.0,0.0,0.0,0.0,0.0,0.0,0.0,0.0,0.0,0.0,0.0,0.0,0.0,0.0,0.0,0.0,0.0,0.0,0.0,0.0,0.0,0.0,0.0,0.0,0.0,0.0,0.0,0.0,0.0,0.0,0.0,0.0,0.0,0.0,0.0,0.0,0.0,0.0,0.0,0.0,0.0,0.0,0.0,0.0,0.0,0.0,0.0,0.0,0.0,0.0,0.0,0.0,0.0,0.0,0.0,0.0,0.0,0.0,0.0,0.0,0.0,0.0,0.0,0.0,0.0,0.0,0.0,0.0,0.0,0.0,0.0,0.0,0.0,0.0,0.0,0.0,0.0,0.0,0.0,0.0,0.0,0.0,0.0,0.0,0.0,0.0,0.0,0.0,0.0,0.0,0.0,0.0,-2.2703,-2.2816,-2.2902,-2.2995,-2.307,-2.3193,0.0,0.0,0.0,0.0,0.0,0.0,0.0,0.0,0.0,0.0,0.0,0.0,0.0,0.0,0.0,0.0,0.0,0.0,0.0,0.0,0.0,0.0,0.0,0.0,0.0,0.0,0.0,0.0,0.0,0.0,0.0,0.0,0.0,0.0,0.0,0.0,0.0,0.0,0.0,0.0,0.0,0.0,0.0,0.0,0.0,0.0,0.0,0.0,0.0,0.0,0.0,0.0,0.0,0.0,0.0,0.0,0.0,0.0,0.0,0.0,0.0,0.0,0.0,0.0,0.0,0.0,0.0,0.0,0.0,0.0,0.0,0.0,0.0,0.0,0.0,0.0,0.0,0.0,0.0,0.0,0.0,0.0,0.0,0.0,0.0,0.0,0.0,0.0,0.0,0.0,0.0,0.0,0.0,0.0,0.0,0.0,0.0,0.0,0.0,0.0,0.0,0.0,0.0,0.0,0.0,0.0,0.0,0.0,0.0,-2.2487,-2.2569,-2.2659,-2.279,-2.2944,-2.3102,0.0,0.0,0.0,0.0,0.0,0.0,0.0,0.0,0.0,0.0,0.0,0.0,0.0,0.0,0.0,0.0,0.0,0.0,0.0,0.0,0.0,0.0,0.0,0.0,0.0,0.0,0.0,0.0,0.0,0.0,0.0,0.0,0.0,0.0,0.0,0.0,0.0,0.0,0.0,0.0,0.0,0.0,0.0,0.0,0.0,0.0,0.0,0.0,0.0,0.0,0.0,0.0,0.0,0.0,0.0,0.0,0.0,0.0,0.0,0.0,0.0,0.0,0.0,0.0,0.0,0.0,0.0,0.0,0.0,0.0,0.0,0.0,0.0,0.0,0.0,0.0,0.0,0.0,0.0,0.0,0.0,0.0,0.0,0.0,0.0,0.0,0.0,0.0,0.0,0.0,0.0,0.0,0.0,0.0,0.0,0.0,0.0,0.0,0.0,0.0,0.0,0.0,0.0,0.0,0.0,0.0,0.0,0.0,-2.2443,-2.2304,-2.2304,-2.2388,-2.2542,-2.279,-2.3003,0.0,0.0,0.0,0.0,0.0,0.0,0.0,0.0,0.0,0.0,0.0,0.0,0.0,0.0,0.0,0.0,0.0,0.0,0.0,0.0,0.0,0.0,0.0,0.0,0.0,0.0,0.0,0.0,0.0,0.0,0.0,0.0,0.0,0.0,0.0,0.0,0.0,0.0,0.0,0.0,0.0,0.0,0.0,0.0,0.0,0.0,0.0,0.0,0.0,0.0,0.0,0.0,0.0,0.0,0.0,0.0,0.0,0.0,0.0,0.0,0.0,0.0,0.0,0.0,0.0,0.0,0.0,0.0,0.0,0.0,0.0,0.0,0.0,0.0,0.0,0.0,0.0,0.0,0.0,0.0,0.0,0.0,0.0,0.0,0.0,0.0,0.0,0.0,0.0,0.0,0.0,0.0,0.0,0.0,0.0,0.0,0.0,0.0,0.0,0.0,0.0,0.0,0.0,0.0,0.0,0.0,0.0,0.0,-2.2254,-2.2163,-2.2044,-2.2073,-2.2237,-2.2596,-2.2868,0.0,0.0,0.0,0.0,0.0,0.0,0.0,0.0,0.0,0.0,0.0,0.0,0.0,0.0,0.0,0.0,0.0,0.0,0.0,0.0,0.0,0.0,0.0,0.0,0.0,0.0,0.0,0.0,0.0,0.0,0.0,0.0,0.0,0.0,0.0,0.0,0.0,0.0,0.0,0.0,0.0,0.0,0.0,0.0,0.0,0.0,0.0,0.0,0.0,0.0,0.0,0.0,0.0,0.0,0.0,0.0,0.0,0.0,0.0,0.0,0.0,0.0,0.0,0.0,0.0,0.0,0.0,0.0,0.0,0.0,0.0,0.0,0.0,0.0,0.0,0.0,0.0,0.0,0.0,0.0,0.0,0.0,0.0,0.0,0.0,0.0,0.0,0.0,0.0,0.0,0.0,0.0,0.0,0.0,0.0,0.0,0.0,0.0,0.0,0.0,0.0,0.0,0.0,0.0,0.0,0.0,0.0,0.0,-2.2056,-2.1886,-2.184,-2.1869,-2.1915,-2.2332,-2.2685,0.0,0.0,0.0,0.0,0.0,0.0,0.0,0.0,0.0,0.0,0.0,0.0,0.0,0.0,0.0,0.0,0.0,0.0,0.0,0.0,0.0,0.0,0.0,0.0,0.0,0.0,0.0,0.0,0.0,0.0,0.0,0.0,0.0,0.0,0.0,0.0,0.0,0.0,0.0,0.0,0.0,0.0,0.0,0.0,0.0,0.0,0.0,0.0,-1.401,0.0,0.0,0.0,0.0,0.0,0.0,0.0,0.0,0.0,0.0,0.0,0.0,0.0,0.0,0.0,0.0,0.0,0.0,0.0,0.0,0.0,0.0,0.0,0.0,0.0,0.0,0.0,0.0,0.0,0.0,0.0,0.0,0.0,0.0,0.0,0.0,0.0,0.0,0.0,0.0,0.0,0.0,0.0,0.0,0.0,0.0,0.0,0.0,0.0,0.0,0.0,0.0,0.0,0.0,0.0,0.0,0.0,0.0,0.0,-2.1811,-2.1601,-2.1601,-2.1661,-2.1768,-2.2089,-2.2453,0.0,0.0,0.0,0.0,0.0,0.0,0.0,0.0,0.0,0.0,0.0,0.0,0.0,0.0,0.0,0.0,0.0,0.0,0.0,0.0,0.0,0.0,0.0,0.0,0.0,0.0,0.0,0.0,0.0,0.0,0.0,0.0,0.0,0.0,0.0,0.0,0.0,0.0,0.0,0.0,0.0,0.0,0.0,0.0,0.0,0.0,0.0,0.0,0.0,0.0,0.0,0.0,0.0,0.0,0.0,0.0,0.0,0.0,0.0,0.0,0.0,0.0,0.0,0.0,0.0,0.0,0.0,0.0,0.0,0.0,0.0,0.0,0.0,0.0,0.0,0.0,0.0,0.0,0.0,0.0,0.0,0.0,0.0,0.0,0.0,0.0,0.0,0.0,0.0,0.0,0.0,0.0,0.0,0.0,0.0,0.0,0.0,0.0,0.0,0.0,0.0,0.0,0.0,0.0,0.0,0.0,0.0,-2.1797,-2.1587,-2.1386,-2.1355,-2.1417,-2.1634,-2.1869,-2.2186,-2.2615,0.0,0.0,0.0,0.0,0.0,0.0,0.0,0.0,0.0,0.0,0.0,0.0,0.0,0.0,0.0,0.0,0.0,0.0,0.0,0.0,0.0,0.0,0.0,0.0,0.0,0.0,0.0,0.0,0.0,0.0,0.0,0.0,0.0,0.0,0.0,0.0,0.0,0.0,-1.8383,-1.7774,0.0,0.0,0.0,0.0,0.0,0.0,0.0,0.0,-1.2754,0.0,0.0,0.0,0.0,0.0,0.0,0.0,0.0,0.0,0.0,0.0,0.0,0.0,0.0,0.0,0.0,0.0,0.0,0.0,0.0,0.0,0.0,0.0,0.0,0.0,0.0,0.0,0.0,0.0,0.0,0.0,0.0,0.0,0.0,0.0,0.0,0.0,0.0,0.0,0.0,0.0,0.0,0.0,0.0,0.0,0.0,0.0,0.0,0.0,0.0,0.0,0.0,0.0,0.0,0.0,0.0,-2.1998,-2.1738,-2.1511,-2.1309,-2.1215,-2.1215,-2.1371,-2.1678,-2.1969,-2.2292,0.0,0.0,0.0,0.0,0.0,0.0,0.0,0.0,0.0,0.0,0.0,0.0,0.0,0.0,0.0,0.0,0.0,0.0,0.0,0.0,0.0,0.0,0.0,0.0,0.0,0.0,0.0,0.0,0.0,0.0,0.0,0.0,0.0,0.0,0.0,0.0,0.0,0.0,0.0,-1.7269,-1.685,0.0,0.0,0.0,0.0,0.0,0.0,0.0,0.0,-1.1977,0.0,0.0,0.0,0.0,0.0,0.0,0.0,0.0,0.0,0.0,0.0,0.0,0.0,0.0,0.0,0.0,0.0,0.0,0.0,0.0,0.0,0.0,0.0,0.0,0.0,0.0,0.0,0.0,0.0,0.0,0.0,0.0,0.0,0.0,0.0,0.0,0.0,0.0,0.0,0.0,0.0,0.0,0.0,0.0,0.0,0.0,0.0,0.0,0.0,0.0,0.0,0.0,0.0,0.0,0.0,-2.184,-2.1526,-2.1262,-2.1055,-2.0974,-2.1022,-2.1183,-2.1526,-2.184,0.0,0.0,0.0,0.0,0.0,0.0,0.0,0.0,0.0,0.0,0.0,0.0,0.0,0.0,0.0,0.0,0.0,0.0,0.0,0.0,0.0,0.0,0.0,0.0,0.0,0.0,0.0,0.0,0.0,0.0,0.0,0.0,0.0,0.0,0.0,0.0,0.0,0.0,0.0,0.0,-1.7073,-1.6765,-1.6436,0.0,0.0,0.0,0.0,0.0,0.0,-1.2461,-1.1877,0.0,0.0,0.0,0.0,0.0,0.0,0.0,0.0,0.0,0.0,0.0,0.0,0.0,0.0,0.0,0.0,0.0,0.0,0.0,0.0,0.0,0.0,0.0,0.0,0.0,0.0,0.0,0.0,0.0,0.0,0.0,0.0,0.0,0.0,0.0,0.0,0.0,0.0,0.0,0.0,0.0,0.0,0.0,0.0,0.0,0.0,0.0,0.0,0.0,0.0,0.0,0.0,0.0,0.0,0.0,-2.1694,-2.1294,-2.099,-2.0794,-2.0761,-2.0827,-2.1038,-2.1356,-2.1708,0.0,0.0,0.0,0.0,0.0,0.0,0.0,0.0,0.0,0.0,0.0,0.0,0.0,0.0,0.0,0.0,0.0,0.0,0.0,0.0,0.0,0.0,0.0,0.0,0.0,0.0,0.0,0.0,0.0,0.0,0.0,0.0,0.0,0.0,0.0,0.0,0.0,0.0,0.0,0.0,0.0,-1.6748,-1.6392,-1.5901,0.0,0.0,0.0,0.0,-1.3017,-1.2471,0.0,0.0,0.0,0.0,0.0,0.0,0.0,0.0,0.0,0.0,0.0,0.0,0.0,0.0,0.0,0.0,0.0,0.0,0.0,0.0,0.0,0.0,0.0,0.0,0.0,0.0,0.0,0.0,0.0,0.0,0.0,0.0,0.0,0.0,0.0,0.0,0.0,0.0,0.0,0.0,0.0,0.0,0.0,0.0,0.0,0.0,0.0,0.0,0.0,0.0,0.0,0.0,0.0,0.0,0.0,0.0,-2.1603,-2.1294,-2.099,-2.0794,-2.0628,-2.0628,-2.0827,-2.1103,-2.145,0.0,0.0,0.0,0.0,0.0,0.0,0.0,0.0,0.0,0.0,0.0,0.0,0.0,0.0,0.0,0.0,0.0,0.0,0.0,0.0,0.0,0.0,0.0,0.0,0.0,0.0,0.0,0.0,0.0,0.0,0.0,0.0,0.0,0.0,0.0,0.0,0.0,0.0,0.0,0.0,0.0,-1.659,-1.6287,-1.5824,-1.5379,0.0,0.0,-1.3621,-1.3064,-1.2501,0.0,0.0,0.0,0.0,0.0,0.0,0.0,0.0,0.0,0.0,0.0,0.0,0.0,0.0,0.0,0.0,0.0,0.0,0.0,0.0,0.0,0.0,0.0,0.0,0.0,0.0,0.0,0.0,0.0,0.0,0.0,0.0,0.0,0.0,0.0,0.0,0.0,0.0,0.0,0.0,0.0,0.0,0.0,0.0,0.0,0.0,0.0,0.0,0.0,0.0,0.0,0.0,0.0,0.0,0.0,-2.1751,-2.1419,-2.1006,-2.0695,-2.0509,-2.0357,-2.0392,-2.0595,-2.0877,-2.123,0.0,0.0,0.0,0.0,0.0,0.0,0.0,0.0,0.0,0.0,0.0,0.0,0.0,0.0,0.0,0.0,0.0,0.0,0.0,0.0,0.0,0.0,0.0,0.0,0.0,0.0,0.0,0.0,0.0,0.0,0.0,0.0,0.0,0.0,0.0,0.0,0.0,0.0,0.0,0.0,0.0,0.0,-1.6362,-1.5957,0.0,0.0,0.0,-1.4282,-1.3882,0.0,0.0,0.0,0.0,0.0,0.0,0.0,0.0,0.0,0.0,0.0,0.0,0.0,0.0,0.0,0.0,0.0,0.0,0.0,0.0,0.0,0.0,0.0,0.0,0.0,0.0,0.0,0.0,0.0,0.0,0.0,0.0,0.0,0.0,0.0,0.0,0.0,0.0,0.0,0.0,0.0,0.0,0.0,0.0,0.0,0.0,0.0,0.0,0.0,0.0,0.0,0.0,0.0,0.0,0.0,0.0,0.0,-2.1214,-2.0761,-2.0469,-2.043,-2.0375,-2.0472,-2.0767,-2.113,0.0,0.0,0.0,0.0,0.0,0.0,0.0,0.0,0.0,0.0,0.0,0.0,0.0,0.0,0.0,0.0,0.0,0.0,0.0,0.0,0.0,0.0,0.0,0.0,0.0,0.0,0.0,-2.0323,0.0,0.0,0.0,0.0,0.0,0.0,0.0,0.0,0.0,0.0,0.0,0.0,0.0,0.0,-1.7211,-1.6892,-1.6492,-1.6182,0.0,0.0,-1.4988,-1.4548,-1.3907,-1.3177,0.0,0.0,0.0,0.0,0.0,0.0,0.0,0.0,0.0,0.0,0.0,0.0,0.0,0.0,0.0,0.0,0.0,0.0,0.0,0.0,0.0,0.0,0.0,0.0,0.0,0.0,0.0,0.0,0.0,0.0,0.0,0.0,0.0,0.0,0.0,0.0,0.0,0.0,0.0,0.0,0.0,0.0,0.0,0.0,0.0,0.0,0.0,0.0,0.0,0.0,0.0,0.0,0.0,0.0,-2.1464,-2.0942,-2.0662,-2.0632,-2.084,-2.0916,-2.122,-2.1773,-2.2238,-2.2645,0.0,0.0,0.0,0.0,0.0,0.0,0.0,0.0,0.0,0.0,0.0,0.0,0.0,0.0,0.0,0.0,0.0,0.0,0.0,0.0,0.0,0.0,0.0,0.0,0.0,0.0,0.0,0.0,0.0,0.0,0.0,0.0,0.0,0.0,0.0,0.0,0.0,0.0,0.0,0.0,0.0,-1.8372,-1.81,-1.771,-1.7291,0.0,-1.6143,-1.5453,-1.4714,-1.397,-1.3277,-1.2497,0.0,0.0,0.0,0.0,0.0,0.0,0.0,0.0,0.0,0.0,0.0,0.0,0.0,0.0,0.0,0.0,0.0,0.0,0.0,0.0,0.0,0.0,0.0,0.0,0.0,0.0,0.0,0.0,0.0,0.0,0.0,0.0,0.0,0.0,0.0,0.0,0.0,0.0,0.0,0.0,0.0,0.0,0.0,0.0,0.0,0.0,0.0,0.0,0.0,0.0,0.0,0.0,0.0,-2.2003,-2.1988,-2.1595,-2.1371,-2.1308,-2.1237,-2.1371,-2.1714,-2.2079,-2.2474,0.0,0.0,0.0,0.0,0.0,0.0,0.0,0.0,0.0,0.0,0.0,0.0,0.0,0.0,0.0,0.0,0.0,0.0,0.0,0.0,0.0,0.0,0.0,0.0,0.0,0.0,0.0,0.0,-1.931,-1.8931,-1.8632,0.0,0.0,0.0,0.0,0.0,0.0,0.0,0.0,0.0,0.0,-1.8626,-1.8367,-1.7964,0.0,0.0,-1.671,-1.6127,-1.5487,-1.4809,-1.3999,-1.2965,-1.2269,0.0,0.0,0.0,0.0,0.0,0.0,0.0,0.0,0.0,0.0,0.0,0.0,0.0,0.0,0.0,0.0,0.0,0.0,0.0,0.0,0.0,0.0,0.0,0.0,0.0,0.0,0.0,0.0,0.0,0.0,0.0,0.0,0.0,0.0,0.0,0.0,0.0,0.0,0.0,0.0,0.0,0.0,0.0,0.0,0.0,0.0,0.0,0.0,0.0,0.0,0.0,0.0,-2.2445,-2.2496,-2.2064,-2.1749,-2.1676,-2.1542,-2.163,-2.1957,-2.2299,-2.2699,0.0,0.0,0.0,0.0,0.0,0.0,0.0,0.0,0.0,0.0,0.0,0.0,0.0,0.0,0.0,0.0,0.0,0.0,0.0,0.0,0.0,0.0,0.0,0.0,0.0,0.0,0.0,0.0,-1.9806,-1.9341,-1.9033,0.0,0.0,0.0,0.0,0.0,0.0,0.0,0.0,0.0,0.0,-1.9223,-1.8971,-1.8607,-1.8239,-1.7908,-1.7376,-1.6743,-1.5995,-1.5362,-1.4469,-1.3191,0.0,0.0,0.0,0.0,0.0,0.0,0.0,0.0,0.0,0.0,0.0,0.0,0.0,0.0,0.0,0.0,0.0,0.0,0.0,0.0,0.0,0.0,0.0,0.0,0.0,0.0,0.0,-2.3884,0.0,0.0,-2.4139,0.0,0.0,0.0,0.0,0.0,0.0,0.0,0.0,0.0,0.0,0.0,0.0,0.0,0.0,0.0,0.0,0.0,0.0,0.0,0.0,0.0,0.0,-2.2555,-2.2133,-2.1813,-2.1721,-2.1902,-2.1874,-2.2207,-2.2832,-2.3187,-2.3578,-2.4044,0.0,0.0,0.0,0.0,0.0,0.0,0.0,0.0,0.0,0.0,0.0,0.0,0.0,0.0,0.0,0.0,0.0,0.0,0.0,0.0,0.0,0.0,0.0,0.0,0.0,0.0,-2.1657,-2.0874,-2.0131,0.0,0.0,0.0,0.0,0.0,0.0,0.0,0.0,0.0,-2.0581,-2.0523,-2.0422,-2.0181,-1.9825,-1.9282,-1.862,-1.8027,-1.7246,-1.6093,-1.5352,-1.446,0.0,0.0,0.0,0.0,0.0,0.0,0.0,0.0,0.0,0.0,0.0,0.0,0.0,0.0,0.0,0.0,0.0,0.0,0.0,0.0,0.0,0.0,0.0,0.0,0.0,0.0,0.0,-2.2964,-2.3106,0.0,0.0,0.0,0.0,0.0,0.0,0.0,0.0,0.0,0.0,0.0,-2.3644,-2.4121,0.0,0.0,0.0,0.0,0.0,0.0,0.0,0.0,0.0,0.0,0.0,0.0,-2.3004,-2.2948,-2.264,-2.2411,-2.2361,-2.2181,-2.2249,-2.254,-2.2799,-2.3363,-2.4204,0.0,0.0,0.0,0.0,0.0,0.0,0.0,0.0,0.0,0.0,0.0,0.0,0.0,0.0,0.0,0.0,0.0,0.0,0.0,0.0,0.0,0.0,0.0,0.0,0.0,-2.213,0.0,0.0,0.0,0.0,0.0,0.0,0.0,0.0,0.0,0.0,0.0,-2.0489,-2.0686,-2.0662,-2.0549,-2.0233,-1.9851,-1.9349,0.0,0.0,0.0,0.0,0.0,0.0,0.0,0.0,0.0,0.0,0.0,0.0,0.0,0.0,-0.5881,-0.5888,-0.5627,-0.5477,-0.5752,0.0,0.0,0.0,0.0,0.0,0.0,0.0,0.0,0.0,0.0,0.0,0.0,0.0,0.0,-2.2744,-2.2862,-2.2862,0.0,0.0,0.0,0.0,0.0,0.0,0.0,0.0,-2.3403,-2.3523,-2.3417,-2.386,-2.4116,-2.4116,-2.4184,-2.3989,0.0,0.0,0.0,0.0,0.0,0.0,0.0,0.0,-2.3133,-2.3128,-2.2799,-2.2495,-2.2324,-2.2077,-2.1996,-2.2123,-2.242,-2.3054,-2.3952,-2.4792,-2.5623,0.0,0.0,0.0,0.0,0.0,0.0,0.0,0.0,0.0,0.0,0.0,0.0,0.0,0.0,0.0,0.0,0.0,0.0,0.0,0.0,0.0,0.0,0.0,-2.3188,0.0,0.0,0.0,0.0,0.0,0.0,0.0,0.0,0.0,-2.0848,-2.0775,-2.0775,-2.0762,-2.0712,-2.0498,-2.0182,0.0,0.0,0.0,0.0,0.0,0.0,0.0,-1.3983,-1.2956,-1.2035,-1.1045,-0.9913,-0.8495,-0.7335,-0.6815,0.0,0.0,-0.5892,-0.5627,-0.5491,-0.5752,-0.573,-0.5853,-0.6429,-0.6653,-0.6946,0.0,0.0,0.0,0.0,-2.3068,0.0,0.0,0.0,-2.3172,-2.3172,0.0,-2.3128,0.0,0.0,0.0,0.0,-2.3576,-2.352,0.0,0.0,-2.3201,-2.3113,-2.3113,-2.3113,-2.3172,-2.3128,-2.3128,-2.3157,-2.3172,-2.4096,0.0,0.0,0.0,0.0,0.0,0.0,-2.3009,-2.2649,-2.2203,-2.1902,-2.1759,-2.1506,-2.1471,-2.1602,-2.2156,-2.2725,-2.3363,-2.4158,-2.5012,-2.5914,-2.68,0.0,0.0,0.0,0.0,0.0,0.0,0.0,0.0,0.0,0.0,0.0,0.0,0.0,0.0,0.0,0.0,0.0,0.0,0.0,0.0,-2.496,0.0,0.0,0.0,0.0,0.0,0.0,0.0,0.0,0.0,0.0,-2.1153,-2.1,-2.0901,-2.0888,0.0,0.0,0.0,0.0,-1.9056,-1.8242,-1.7423,-1.6616,-1.5526,-1.4569,-1.3614,-1.2666,0.0,0.0,-0.8812,-0.7782,-0.7003,-0.6486,-0.6086,-0.5892,-0.5888,-0.5627,-0.5425,-0.5617,-0.5749,-0.602,-0.6342,-0.6591,-0.698,-2.408,0.0,0.0,0.0,0.0,-2.3073,-2.3073,-2.3073,-2.3073,-2.2887,-2.263,-2.2616,0.0,0.0,0.0,0.0,0.0,0.0,-2.2193,-2.2114,-2.2067,-2.2021,-2.1927,-2.1941,-2.1913,-2.1927,-2.2021,-2.2067,-2.2067,-2.2363,-2.2802,-2.3463,0.0,0.0,0.0,0.0,-2.2249,-2.1779,-2.1554,-2.1313,-2.1104,-2.0908,-2.097,-2.118,-2.1602,-2.2109,-2.2589,-2.3507,-2.4318,-2.5125,-2.6148,0.0,0.0,0.0,0.0,0.0,0.0,0.0,0.0,0.0,0.0,0.0,0.0,0.0,0.0,0.0,0.0,0.0,0.0,0.0,-2.5859,-2.5517,-2.5044,0.0,0.0,0.0,0.0,0.0,0.0,0.0,0.0,0.0,-2.2801,-2.1693,-2.0838,0.0,0.0,-2.0131,-1.9772,-1.9178,-1.8561,-1.7938,-1.6896,0.0,-1.5167,-1.4085,-1.3009,-1.229,-1.0787,-0.9262,-0.7977,-0.726,-0.6679,-0.6152,-0.576,-0.5495,-0.5355,-0.5359,-0.5425,-0.5554,-0.5683,-0.5818,-0.628,-0.6567,-0.6854,-2.3965,-2.3471,-2.3188,-2.291,-2.2711,-2.2537,-2.2417,-2.2417,-2.235,-2.2206,-2.1983,-2.1983,-2.1824,-2.1531,-2.1581,0.0,0.0,0.0,-2.1595,-2.1468,-2.1468,-2.1417,-2.1366,-2.1366,-2.1366,-2.1366,-2.1468,-2.1455,-2.1455,-2.1468,-2.181,-2.2415,0.0,-2.2175,-2.1833,-2.1779,-2.1492,-2.1104,-2.0871,-2.0673,-2.0497,-2.0578,-2.0759,-2.1053,-2.1605,-2.2115,-2.2679,-2.3508,-2.4298,-2.5118,-2.6183,-2.723,0.0,0.0,0.0,0.0,0.0,0.0,0.0,0.0,0.0,0.0,0.0,-2.9196,-2.8824,0.0,0.0,0.0,-2.7809,-2.7579,-2.6977,-2.6803,0.0,0.0,0.0,0.0,0.0,0.0,0.0,-2.4531,-2.414,-2.3798,-2.3565,-2.236,-2.1393,-2.1302,-2.0886,-2.0401,-1.9908,0.0,-1.8519,-1.7759,-1.6698,-1.5609,-1.4689,-1.345,-1.2235,-1.0989,-0.9512,-0.8231,-0.7326,-0.6671,-0.6083,-0.5624,-0.5229,-0.5027,-0.4691,-0.4758,-0.496,-0.5223,-0.5352,-0.5554,-0.5954,-0.6218,-0.6544,-2.3786,-2.3313,-2.284,-2.2375,-2.183,-2.165,-2.1606,-2.1606,-2.1425,-2.1274,-2.1237,-2.1237,-2.1212,-2.1163,-2.1275,0.0,-2.1319,-2.1319,-2.125,-2.1163,-2.1175,-2.1175,-2.1175,-2.1175,-2.1175,-2.1163,-2.1175,-2.1163,-2.1163,-2.1151,-2.1288,-2.1443,-2.134,-2.126,-2.1225,-2.109,-2.0878,-2.0589,-2.0361,-2.0143,-2.004,-2.0426,-2.0756,-2.1074,-2.1831,-2.2497,-2.3173,-2.3831,-2.4635,-2.5558,-2.6545,-2.7639,-2.8757,0.0,0.0,0.0,0.0,0.0,0.0,0.0,0.0,0.0,0.0,0.0,0.0,0.0,0.0,0.0,-2.8838,0.0,-2.8403,-2.8643,0.0,0.0,0.0,-2.7227,-2.6673,-2.6214,-2.5738,-2.532,0.0,0.0,-2.3741,-2.2911,-2.2341,-2.2273,-2.1574,-2.0846,-2.0171,-1.9492,-1.8733,-1.7544,-1.6493,-1.5371,-1.4038,-1.2622,-1.0972,-0.9221,-0.8112,-0.7251,-0.6601,-0.5877,-0.5286,-0.4761,-0.4561,-0.4356,-0.3961,-0.3892,-0.4025,-0.4495,-0.4824,-0.509,-0.5296,-0.5561,-0.5954,-2.3143,-2.2567,-2.2445,-2.2277,-2.1982,-2.174,-2.1619,-2.1619,-2.1448,-2.1162,-2.0735,-2.0616,-2.0334,-1.9901,-1.996,-1.996,-1.996,-1.9971,-1.996,-1.9901,-1.9913,-1.9913,-1.9901,-1.9901,-1.9913,-1.9901,-1.9913,-1.996,-2.0064,-2.0064,-2.018,-2.0354,-2.0318,-2.0699,-2.1297,-2.1297,-2.1066,-2.068,-2.0625,-2.0514,-2.037,-2.0479,-2.0665,-2.1014,-2.1294,-2.1733,-2.2281,-2.3016,-2.3817,-2.4655,-2.5758,-2.6904,-2.8103,-2.9179,0.0,0.0,0.0,0.0,0.0,0.0,0.0,0.0,0.0,-3.1904,-3.1686,0.0,-3.115,0.0,-3.0584,-3.023,-2.9915,-2.9682,0.0,0.0,-2.8372,-2.8013,-2.796,-2.7361,-2.6881,-2.6657,-2.5974,-2.5228,-2.4557,-2.3558,-2.2639,-2.1862,-2.1019,-2.013,-1.925,-1.8327,-1.741,-1.6315,-1.5033,-1.3816,-1.2766,-1.0902,-0.9075,-0.762,-0.6685,-0.5866,-0.5219,-0.4622,-0.409,-0.3694,-0.3491,-0.3288,-0.3021,-0.3021,-0.3021,-0.3222,-0.3756,-0.4361,-0.4694,-0.496,-0.5226,-2.2744,-2.2136,-2.1996,-2.1763,-2.1427,-2.1419,-2.1202,-2.0921,-2.0805,-2.0542,-2.0158,-2.0031,-1.9824,-1.957,-1.9559,-1.9497,-1.9412,-1.9412,-1.9361,-1.9288,-1.9299,-1.9299,-1.9299,-1.9361,-1.9423,-1.9412,-1.9497,-1.9559,-1.9672,-1.9733,-1.9857,-2.0041,-2.0163,-2.0456,-2.0938,-2.0849,-2.0619,-2.0274,-2.0216,-2.017,-2.0123,-2.0335,-2.0641,-2.0935,-2.1316,-2.179,-2.2382,-2.2981,-2.3729,-2.4584,-2.5631,-2.6778,-2.7965,-2.916,-3.0283,0.0,0.0,0.0,0.0,0.0,0.0,0.0,0.0,0.0,0.0,0.0,-3.2199,-3.1894,-3.1829,-3.167,-3.1355,-3.1273,-3.1047,-3.0612,-3.0043,-2.9549,-2.9225,-2.8471,-2.7747,-2.7151,-2.6201,-2.5161,-2.4155,-2.2952,-2.1708,-2.0415,-1.9369,-1.8571,-1.824,-1.7369,-1.6211,-1.4991,-1.3685,-1.2165,-1.0575,-0.8682,-0.7224,-0.6547,-0.5709,-0.4886,-0.3892,-0.3351,-0.2885,-0.2482,-0.2283,-0.2083,-0.188,-0.188,-0.188,-0.1947,-0.2216,-0.2885,-0.3689,-0.4025,-0.4228,-2.2286,-2.1754,-2.1492,-2.1011,-2.0564,-2.0844,-2.0563,-1.9998,-1.9811,-1.9658,-1.9407,-1.9417,-1.9407,-1.9341,-1.9341,-1.9264,-1.9044,-1.9034,-1.8977,-1.8777,-1.8777,-1.8777,-1.8777,-1.8967,-1.91,-1.911,-1.9264,-1.9407,-1.9473,-1.9605,-1.9791,-1.9901,-2.0096,-2.0226,-2.0204,-1.9996,-1.9863,-1.9826,-1.9718,-1.967,-1.967,-2.008,-2.0504,-2.0883,-2.1404,-2.2075,-2.2726,-2.3173,-2.3846,-2.4684,-2.5713,-2.6799,-2.7972,-2.9271,-3.0503,0.0,-3.2616,0.0,0.0,0.0,0.0,0.0,0.0,0.0,0.0,-3.3149,-3.2933,-3.2631,-3.2951,-3.3078,-3.281,-3.2994,-3.2991,-3.2598,-3.1986,-3.127,-3.0377,-2.9355,-2.8292,-2.71,-2.5685,-2.4332,-2.2937,-2.1463,-1.9921,-1.8241,-1.677,-1.612,-1.6571,-1.5898,-1.4759,-1.3414,-1.1974,-0.9917,-0.7707,-0.6168,-0.5185,-0.5029,-0.4335,-0.3599,-0.2231,-0.1812,-0.1475,-0.1072,-0.0805,-0.0671,-0.0537,-0.047,-0.047,-0.0537,-0.0604,-0.1074,-0.2485,-0.3023,-0.3159,-2.1855,-2.1303,-2.1054,-2.0631,-2.0009,-2.0068,-1.9869,-1.9534,-1.9201,-1.8803,-1.8289,-1.8279,-1.8202,-1.8046,-1.8046,-1.7978,-1.7774,-1.7774,-1.7706,-1.7706,-1.7716,-1.7716,-1.7716,-1.7706,-1.7842,-1.7978,-1.8037,-1.825,-1.8539,-1.8607,-1.8741,-1.9065,-1.9065,-1.9198,-1.932,0.0,0.0,0.0,-2.0026,-2.0026,-2.0026,-2.0114,-2.0287,-2.0617,-2.0771,0.0,-2.1901,-2.2384,-2.3027,-2.38,-2.4797,0.0,0.0,0.0,0.0,0.0,0.0,0.0,0.0,0.0,0.0,0.0,-3.4764,-3.4853,-3.5144,-3.506,-3.4905,-3.4726,-3.4658,-3.4509,-3.4312,-3.4051,-3.3766,-3.3375,-3.2631,-3.1771,-3.0774,-2.9452,-2.7926,-2.627,-2.448,-2.2635,-2.0808,-1.9057,-1.7244,-1.5367,-1.36,-1.2699,-1.2813,-1.277,-1.2245,-1.072,-0.838,-0.6318,-0.4701,-0.3471,-0.2373,-0.1695,-0.0998,-0.0348,0.0276,0.0542,0.067,0.0804,0.0938,0.1072,0.114,0.114,0.1072,0.0939,0.0872,0.0335,-0.1613,-0.215,-0.2417,-2.1144,-2.079,-2.0322,-1.9877,0.0,-1.9465,-1.9184,-1.8791,-1.8514,-1.812,-1.7461,-1.7461,-1.7304,-1.7157,-1.7157,-1.7019,-1.676,-1.6751,-1.6682,-1.6603,-1.6603,-1.6612,-1.6603,-1.6682,-1.6821,-1.7028,-1.7088,-1.7295,-1.7588,-1.7725,-1.7852,-1.8134,-1.8192,-1.8327,-1.8539,-1.8539,-1.8931,-1.9584,-1.9584,-1.9594,-1.9584,-1.9594,-1.9715,-1.9966,-2.0042,0.0,0.0,0.0,0.0,0.0,0.0,0.0,0.0,-2.6894,0.0,-2.9077,-3.0145,-3.1127,-3.2052,-3.2745,-3.3376,-3.3931,-3.4851,-3.5481,-3.5634,-3.5625,-3.556,-3.5502,-3.533,-3.5166,-3.5017,-3.4736,-3.4398,-3.3993,-3.3219,-3.2241,-3.0934,-2.9143,-2.7141,-2.4861,-2.2449,-2.0083,-1.7787,-1.6707,-1.4662,-1.1663,-0.9742,-0.8245,-0.7546,-0.8412,-0.843,-0.6213,-0.4262,-0.2473,-0.1314,-0.0307,0.053,0.1272,0.1907,0.2577,0.3285,0.3445,0.3402,0.2954,0.2809,0.2811,0.2744,0.2678,0.2611,0.2542,0.2476,0.2142,0.0871,-0.0067,-0.0872,-2.0379,-2.0186,-1.9396,-1.9063,-1.9063,-1.8913,-1.8452,-1.7881,-1.7761,0.0,0.0,-1.6727,-1.6612,-1.6394,-1.6403,-1.6193,-1.5929,-1.585,-1.5771,-1.5621,-1.5621,-1.5621,-1.5621,-1.585,-1.5991,-1.6132,-1.6333,-1.6542,-1.6691,-1.689,-1.7028,-1.7235,-1.7364,-1.7588,-1.7803,-1.7803,-1.8076,-1.8664,-1.8808,-1.8875,-1.8875,-1.8942,-1.8998,-1.911,-1.933,-1.9594,-1.9911,-2.0431,-2.1008,-2.1628,-2.2531,-2.3518,-2.4487,-2.5674,-2.6855,-2.7966,-2.8983,-3.0006,-3.1026,-3.1873,-3.2659,-3.3346,-3.4742,-3.5677,-3.5872,-3.6001,-3.607,-3.6089,-3.6002,-3.59,-3.5782,-3.5635,-3.5381,-3.5002,-3.4208,-3.3064,-3.1339,-2.886,-2.6174,-2.3134,-1.9797,-1.6652,-1.3839,-1.2827,-1.1261,-0.7418,-0.5075,-0.3343,-0.1671,-0.2889,-0.3669,-0.1462,0.0154,0.1467,0.2701,0.3317,0.384,0.43,0.472,0.531,0.6075,0.6314,0.587,0.5196,0.4758,0.4607,0.4544,0.4475,0.4273,0.4207,0.4143,0.4077,0.3616,0.241,0.1341,-1.9728,-1.9297,-1.851,-1.8193,-1.8201,-1.8112,-1.7738,-1.7008,-1.6653,-1.6512,-1.6378,-1.605,-1.5842,-1.5638,-1.5488,-1.5284,-1.5078,-1.4856,-1.4776,-1.4776,-1.4784,-1.4856,-1.5007,-1.5078,-1.5292,-1.5576,-1.5638,-1.578,-1.5903,-1.5974,-1.6114,-1.6412,-1.6482,-1.6691,-1.7047,-1.7047,-1.7116,-1.7245,-1.7872,-1.8144,-1.8144,-1.8144,-1.8279,-1.8405,-1.8586,-1.8844,-1.9198,-1.9726,-2.0215,-2.0782,-2.1616,-2.2677,-2.39,-2.4879,-2.615,-2.7584,-2.8527,-2.9556,-3.0656,-3.1573,-3.2703,-3.4094,-3.4789,-3.5681,-3.7006,-3.7317,-3.7472,-3.7569,-3.7512,-3.7643,-3.7617,-3.7494,-3.7326,-3.7121,-3.6439,-3.504,-3.2492,-2.8887,-2.4871,-2.0399,-1.6209,-1.1959,-0.8687,-0.6371,-0.4218,-0.1739,0.0452,0.2575,0.4463,0.3123,0.176,0.2763,0.4072,0.5775,0.7327,0.7631,0.7513,0.7824,0.7982,0.8243,0.8596,0.8245,0.7889,0.7688,0.714,0.6789,0.6715,0.6593,0.6326,0.6125,0.5994,0.58,0.5408,0.4806,0.4143,-1.9153,-1.8693,-1.7913,-1.7483,-1.7302,-1.7221,-1.696,-1.6517,-1.5928,-1.5726,-1.5602,-1.5495,-1.525,-1.4927,-1.4784,-1.4633,-1.4497,-1.4353,-1.4353,-1.4346,-1.4353,-1.4346,-1.4497,-1.4497,-1.4641,-1.4864,-1.4927,-1.4999,-1.5133,-1.5125,-1.5346,-1.57,-1.5912,-1.6123,-1.6281,-1.6475,-1.6581,-1.6572,-1.7079,-1.7392,-1.7392,-1.7382,-1.7451,-1.752,-1.7858,-1.8182,-1.8537,-1.9093,-1.9699,-2.0249,-2.1051,-2.1886,-2.2876,-2.3924,-2.4959,-2.6108,-2.7055,-2.8011,-2.9074,-3.0332,-3.1767,-3.3372,-3.3991,-3.4868,-3.6292,-3.6742,-3.7013,-3.7177,-3.73,-3.7409,-3.7404,-3.748,-3.7455,-3.7322,-3.6872,-3.4827,-3.0565,-2.6424,-2.1378,-1.5129,-0.9638,-0.5293,-0.2224,0.0153,0.2193,0.4213,0.6445,0.8773,1.0586,1.0001,0.867,0.7733,0.823,0.9378,1.0799,1.0929,1.0899,1.1144,1.1132,1.1147,1.1093,1.0585,1.0061,0.9753,0.9202,0.8737,0.8586,0.8334,0.8076,0.7952,0.7757,0.7502,0.7177,0.6719,0.5731,-1.8596,-1.8216,-1.7344,-1.6713,-1.6409,-1.6229,-1.6147,-1.6034,-1.5457,-1.5023,-1.482,-1.4872,-1.4762,-1.4456,-1.4367,-1.4175,-1.4033,-1.3945,-1.3915,-1.384,-1.384,-1.384,-1.3928,-1.398,-1.4099,-1.4267,-1.4402,-1.4522,-1.466,-1.4652,-1.4871,-1.5154,-1.5516,-1.5732,-1.5668,-1.5945,-1.6095,-1.6144,-1.6462,-1.6679,-1.6892,-1.6892,-1.6892,-1.691,-1.7324,-1.7623,-1.7849,-1.8493,-1.9102,-1.9755,-2.04,-2.108,-2.1937,-2.2902,-2.3869,-2.4735,-2.5653,-2.6631,-2.7739,-2.916,-3.0674,-3.2067,-3.2708,-3.3505,-3.4572,-3.5134,-3.5784,-3.6463,-3.6812,-3.6908,-3.6906,-3.6946,-3.6939,-3.6747,-3.4082,-3.0107,-2.5554,-1.979,-1.3404,-0.6447,-0.1431,0.2473,0.4934,0.6821,0.8611,1.0521,1.2678,1.426,1.5101,1.5932,1.5179,1.359,1.2791,1.2971,1.3509,1.3882,1.4111,1.4364,1.4134,1.3947,1.3654,1.3104,1.2445,1.2021,1.1311,1.0785,1.0388,1.0116,0.9863,0.9736,0.9488,0.9238,0.8865,0.8215,0.6972,-1.783,-1.752,-1.6684,-1.5955,-1.559,-1.5477,-1.5401,-1.5249,-1.5137,-1.4674,-1.4072,-1.4302,-1.4399,-1.4362,-1.4178,-1.3942,-1.3629,-1.3464,-1.3248,-1.3089,-1.3039,-1.3119,-1.3323,-1.3561,-1.3766,-1.396,-1.4431,-1.4612,-1.462,-1.4858,-1.495,-1.5042,-1.5272,-1.5333,-1.5349,-1.538,-1.5481,-1.5642,-1.5695,-1.6043,-1.6723,-1.6807,-1.6798,-1.6798,-1.7041,-1.7208,-1.745,-1.7859,-1.8397,-1.8976,-1.937,-2.0101,-2.1251,-2.2027,-2.2909,-2.407,-2.4895,-2.6045,-2.7613,-2.8643,-2.9508,-3.0382,-3.0941,-3.1469,-3.1975,-3.2195,-3.3723,-3.5203,-3.6238,-3.655,-3.6687,-3.619,-3.5193,-3.388,-2.6029,-1.9194,-1.5415,-0.5993,0.2549,0.6165,0.8379,1.0709,1.2723,1.3992,1.5307,1.6722,1.7684,1.862,1.9137,1.9629,1.9935,1.9222,1.8048,1.6797,1.6952,1.7135,1.7145,1.7163,1.6899,1.6638,1.6305,1.5801,1.5149,1.4368,1.3661,1.301,1.2437,1.2074,1.1819,1.1377,1.119,1.101,1.0262,0.9558,0.8323,-1.7125,-1.6646,-1.6124,-1.5549,-1.4857,-1.474,-1.458,-1.4489,-1.4328,-1.4085,-1.3805,-1.3678,-1.3608,-1.3595,-1.3509,-1.3441,-1.3331,-1.3246,-1.3108,-1.2993,-1.2993,-1.314,-1.33,-1.3397,-1.3628,-1.3867,-1.408,-1.4216,-1.4216,-1.4365,-1.4358,-1.4279,-1.4435,-1.4443,-1.4372,-1.4633,-1.4887,-1.4966,-1.5313,-1.5644,-1.5919,-1.6044,-1.6073,-1.6089,-1.6423,-1.6685,-1.6874,-1.7371,-1.7883,-1.8324,-1.8874,-1.9487,-2.0254,-2.0853,-2.1603,-2.2435,-2.347,-2.4435,-2.5477,-2.6163,-2.6865,-2.7601,-2.8089,-2.8477,-2.8586,-2.4155,-2.148,-2.3322,-2.961,-3.4158,-3.329,-2.8757,-2.4981,-2.3201,-1.4805,-0.6786,-0.2431,0.3661,0.9496,1.3916,1.676,1.8557,1.9785,2.0479,2.1003,2.1717,2.2089,2.239,2.2723,2.287,2.2967,2.2976,2.2092,2.0934,1.9953,1.9695,1.9652,1.9532,1.9259,1.9062,1.8701,1.8067,1.7317,1.6634,1.5757,1.4976,1.4356,1.383,1.3391,1.3036,1.2565,1.2197,1.1586,1.101,1.0046,-1.6369,-1.5783,-1.5424,-1.4786,-1.4073,-1.3952,-1.3809,-1.3717,-1.3476,-1.3392,-1.3307,-1.3052,-1.2841,-1.2832,-1.2949,-1.2991,-1.292,-1.292,-1.2955,-1.2889,-1.2883,-1.3035,-1.3101,-1.3273,-1.3386,-1.3559,-1.3728,-1.3835,-1.3909,-1.3989,-1.3902,-1.3661,-1.3742,-1.3742,-1.3601,-1.3967,-1.4241,-1.4337,-1.4788,-1.5061,-1.5079,-1.5109,-1.526,-1.552,-1.5808,-1.6108,-1.6285,-1.6676,-1.7131,-1.7674,-1.8086,-1.8576,-1.9045,-1.9571,-2.01,-2.072,-2.1607,-2.2392,-2.2856,-2.1165,-2.0302,-2.0662,-1.9221,-1.7833,-1.691,-1.1839,-0.8294,-0.8728,-1.6547,-2.1319,-2.2032,-1.623,-1.1908,-1.0376,-0.1535,0.6548,1.0439,1.4633,1.9603,2.3031,2.4847,2.5752,2.5831,2.5778,2.5728,2.5577,2.5422,2.5448,2.553,2.545,2.5437,2.5493,2.5232,2.4178,2.2456,2.1944,2.1918,2.1682,2.1409,2.1032,2.0749,2.002,1.9208,1.8501,1.7564,1.6739,1.6038,1.5457,1.4885,1.4492,1.3965,1.3416,1.2992,1.2443,1.1826,-1.5527,-1.5089,-1.429,-1.3713,-1.3133,-1.3103,-1.2952,-1.2808,-1.2711,-1.2619,-1.2448,-1.2448,-1.2272,-1.206,-1.2366,-1.2524,-1.2401,-1.2542,-1.2506,-1.2308,-1.2437,-1.2498,-1.2578,-1.2832,-1.3041,-1.306,-1.3425,-1.3794,-1.3981,-1.4072,-1.3853,-1.3425,-1.3393,-1.3243,-1.3049,-1.3322,-1.3542,-1.3685,-1.4041,-1.4153,-1.4159,-1.4196,-1.4559,-1.5216,-1.5433,-1.5516,-1.5703,-1.5718,-1.6057,-1.6698,-1.678,-1.7115,-1.7691,-1.7997,-1.8372,-1.8982,-1.9178,-1.9521,-1.8702,-1.2505,-0.8264,-0.753,-0.2236,0.3214,0.1423,0.3377,0.4485,0.4534,0.4286,0.2905,0.0798,0.0869,0.1979,0.3383,1.3111,1.9731,2.1511,2.8332,3.3959,3.3965,3.2383,3.1102,3.054,3.009,2.9409,2.8863,2.8422,2.7908,2.7599,2.7495,2.7324,2.7151,2.6857,2.6279,2.4827,2.4084,2.382,2.3467,2.3025,2.2749,2.2323,2.1808,2.1105,2.0323,1.9497,1.8636,1.7776,1.6995,1.6347,1.5843,1.5206,1.4669,1.4195,1.3803,1.3183,-1.458,-1.3968,-1.3259,-1.2867,-1.2595,-1.2282,-1.2087,-1.1986,-1.1824,-1.1752,-1.1671,-1.1585,-1.1332,-1.116,-1.1154,-1.1547,-1.2076,-1.2155,-1.2187,-1.2105,-1.2105,-1.2266,-1.2433,-1.253,-1.265,-1.2831,-1.2996,-1.313,-1.3215,-1.3215,-1.2954,-1.2613,-1.2528,-1.2357,-1.2272,-1.2357,-1.2619,-1.2875,-1.3039,-1.3209,-1.3222,-1.3215,-1.3379,-1.3717,-1.4216,-1.4643,-1.4643,-1.481,-1.4977,-1.522,-1.5545,-1.5794,-1.6049,-1.6363,-1.6593,-1.6314,-1.2048,-0.9241,-0.8464,-0.1429,0.3293,0.3314,0.5871,0.8393,0.8919,1.3191,1.6979,1.7909,2.3359,2.5707,2.4112,1.9241,1.5167,1.7325,2.5716,3.2364,3.3724,3.6473,3.8142,3.7323,3.5802,3.4272,3.3261,3.2482,3.1736,3.0994,3.0089,2.9556,2.9252,2.8979,2.8686,2.8528,2.8207,2.77,2.7115,2.6011,2.5384,2.4924,2.4526,2.4124,2.3715,2.3301,2.2573,2.1934,2.1176,2.0252,1.9218,1.7957,1.7389,1.6888,1.6301,1.5843,1.54,1.4914,1.4264,-1.3329,-1.2915,-1.2299,-1.2004,-1.1811,-1.1513,-1.1333,-1.1246,-1.102,-1.0922,-1.0814,-1.0671,-1.0376,-1.0197,-1.0028,-1.0289,-1.1073,-1.1338,-1.1429,-1.1429,-1.1516,-1.1682,-1.1929,-1.1929,-1.2015,-1.2186,-1.2272,-1.2277,-1.2272,-1.2186,-1.1929,-1.1585,-1.1499,-1.1413,-1.1327,-1.1413,-1.1671,-1.1935,-1.2186,-1.2277,-1.2272,-1.2272,-1.2277,-1.2357,-1.2863,-1.3379,-1.3633,-1.3808,-1.3977,-1.4159,-1.4307,-1.4468,-1.4552,-1.4713,-1.3546,-1.0668,-0.5734,-0.1123,0.2233,0.9642,1.4488,1.4711,1.7465,1.8905,1.9335,2.4927,2.8169,3.0387,3.412,3.884,3.7673,3.2037,2.8089,2.9151,3.5187,3.9625,3.9997,3.9836,3.9391,3.8441,3.7291,3.6168,3.538,3.4504,3.3598,3.2645,3.1691,3.0999,3.0485,3.0081,2.9777,2.9617,2.9166,2.8732,2.824,2.747,2.6611,2.6133,2.5645,2.5287,2.4908,2.4509,2.4066,2.3449,2.2598,2.1626,2.0459,1.9101,1.8299,1.7833,1.739,1.6912,1.6472,1.6016,1.5361,-1.198,-1.1878,-1.1385,-1.1075,-1.0824,-1.0758,-1.0655,-1.0463,-1.0262,-1.0078,-0.9871,-0.9703,-0.9454,-0.9248,-0.9157,-0.9231,-0.9323,-0.9854,-1.0202,-1.0376,-1.0549,-1.0722,-1.0977,-1.0982,-1.1068,-1.123,-1.1235,-1.1235,-1.1235,-1.1063,-1.0809,-1.0636,-1.0381,-1.0289,-1.0294,-1.0463,-1.0722,-1.0982,-1.1154,-1.1322,-1.1322,-1.1322,-1.1322,-1.1322,-1.1408,-1.1757,-1.2613,-1.2705,-1.2973,-1.3338,-1.3149,-1.3137,-1.319,-1.241,-0.9124,-0.2643,-0.0136,0.4371,1.1756,2.0251,2.5313,2.6138,3.3124,3.611,3.5681,3.7216,3.809,3.8142,3.8975,4.0013,4.013,3.9166,3.8537,3.9605,3.9876,4.0325,4.0506,4.0396,3.9823,3.8758,3.8008,3.7614,3.7049,3.6166,3.5095,3.4038,3.3098,3.2166,3.1258,3.0804,3.0559,3.0267,2.9865,2.9422,2.912,2.8811,2.7963,2.721,2.6745,2.6269,2.5851,2.5412,2.4964,2.4403,2.3506,2.2475,2.1305,2.0084,1.9322,1.878,1.8356,1.7929,1.7424,1.6912,1.6415,-1.0904,-1.0801,-1.0314,-1.0087,-0.9917,-0.9795,-0.9697,-0.9626,-0.9258,-0.9087,-0.8958,-0.8623,-0.8368,-0.8158,-0.807,-0.7925,-0.7841,-0.8013,-0.8627,-0.941,-0.9584,-0.9671,-0.9758,-0.9758,-0.9758,-0.984,-0.984,-0.984,-0.984,-0.9845,-0.9671,-0.9501,-0.9327,-0.9331,-0.9331,-0.9602,-0.9777,-1.0033,-1.0294,-1.0381,-1.0376,-1.0381,-1.0381,-1.0381,-1.0381,-1.0554,-1.0901,-1.1413,-1.1849,-1.2032,-1.1929,-1.1843,-1.0847,-0.6332,-0.204,0.1639,1.2364,1.897,2.2446,3.0007,3.5032,3.5839,3.8428,3.9738,4.0076,4.0175,4.0284,4.0364,4.0498,4.0597,4.0676,4.0772,4.0701,4.0499,4.0661,4.074,4.0667,4.032,3.9792,3.9186,3.8621,3.8198,3.77,3.697,3.5971,3.4832,3.3857,3.2867,3.1898,3.1334,3.1038,3.0797,3.0368,2.9968,2.9617,2.9273,2.8701,2.8027,2.753,2.7034,2.6616,2.6244,2.5811,2.5149,2.4242,2.3334,2.2135,2.1128,2.0328,1.9688,1.917,1.8762,1.8321,1.782,1.7257,-0.9715,-0.962,-0.9229,-0.9031,-0.9023,-0.8909,-0.8769,-0.8642,-0.8306,-0.8044,-0.7823,-0.7506,-0.7257,-0.706,-0.6979,-0.6821,-0.669,-0.6594,-0.692,-0.7749,-0.8273,-0.8448,-0.8536,-0.8619,-0.8707,-0.8707,-0.8707,-0.8707,-0.8707,-0.8623,-0.8536,-0.8364,-0.8277,-0.8277,-0.8364,-0.8548,-0.8727,-0.9078,-0.9253,-0.9336,-0.9423,-0.951,-0.9515,-0.951,-0.951,-0.951,-0.9515,-1.0028,-1.0463,-1.0722,-1.0712,-0.9324,-0.6144,-0.0948,0.4426,1.221,2.0412,2.8152,3.1768,3.6675,4.021,4.0296,4.0385,4.05,4.0578,4.069,4.0761,4.0809,4.0857,4.091,4.0923,4.0976,4.0937,4.0839,4.0858,4.0827,4.0635,4.0213,3.9775,3.9345,3.8933,3.8615,3.8122,3.769,3.6572,3.5367,3.4465,3.3423,3.2492,3.1728,3.1466,3.1157,3.0781,3.0377,3.0038,2.9661,2.9335,2.8779,2.8204,2.776,2.7255,2.6893,2.6457,2.5697,2.486,2.4286,2.3192,2.2023,2.1147,2.0565,2.0065,1.9512,1.9056,1.859,1.8038,-0.8528,-0.8333,-0.8038,-0.7939,-0.7939,-0.7826,-0.7717,-0.7502,-0.7299,-0.6952,-0.6534,-0.6328,-0.6086,-0.5994,-0.5868,-0.5808,-0.5742,-0.5445,-0.539,-0.5681,-0.6367,-0.6982,-0.7312,-0.757,-0.7566,-0.7654,-0.7658,-0.7654,-0.7566,-0.7485,-0.7401,-0.7312,-0.7136,-0.7136,-0.7309,-0.7397,-0.7669,-0.7933,-0.8109,-0.8197,-0.8456,-0.846,-0.846,-0.8544,-0.8548,-0.8544,-0.8548,-0.8723,-0.9069,-0.9772,-0.8803,-0.4821,0.0787,0.3152,1.2398,2.453,2.7623,3.2748,3.8271,3.9884,4.0549,4.0662,4.0718,4.083,4.0874,4.0922,4.0974,4.0968,4.1047,4.1054,4.1004,4.0976,4.0959,4.0887,4.0836,4.0694,4.04,4.0082,3.975,3.9427,3.91,3.8803,3.8496,3.818,3.719,3.5948,3.5154,3.4146,3.2985,3.2211,3.178,3.1428,3.1061,3.0699,3.0351,2.9984,2.9649,2.9273,2.8779,2.8268,2.7775,2.7372,2.6974,2.6246,2.5635,2.4978,2.4212,2.3078,2.2188,2.1676,2.108,2.0361,1.9759,1.9279,1.875,-0.7431,-0.7229,-0.6933,-0.6836,-0.6836,-0.6639,-0.6542,-0.6337,-0.6009,-0.5691,-0.5473,-0.5287,-0.505,-0.5043,-0.4693,-0.4551,-0.4534,-0.434,-0.4105,-0.4129,-0.43,-0.516,-0.6,-0.6248,-0.6248,-0.6248,-0.6248,-0.6251,-0.6248,-0.6163,-0.616,-0.616,-0.6071,-0.6074,-0.6163,-0.6343,-0.6523,-0.6612,-0.6782,-0.6959,-0.7221,-0.7309,-0.7312,-0.7492,-0.7669,-0.7753,-0.7841,-0.8025,-0.8376,-0.8368,-0.2912,0.0732,0.4748,1.4228,2.2615,2.776,3.3901,3.7699,3.9792,4.0662,4.0765,4.083,4.0902,4.0987,4.1042,4.1072,4.1089,4.1074,4.1086,4.1085,4.1008,4.0948,4.0869,4.0706,4.0655,4.0505,4.0245,4.0021,3.9785,3.9458,3.9192,3.8931,3.8713,3.8378,3.7772,3.6582,3.561,3.4763,3.3477,3.2459,3.1912,3.1596,3.1274,3.0958,3.0634,3.03,3.0,2.9661,2.9227,2.8716,2.8186,2.769,2.7299,2.6759,2.6342,2.5739,2.5005,2.4072,2.3437,2.2674,2.1613,2.0725,2.0334,1.985,1.9331,-0.6334,-0.5932,-0.5834,-0.5737,-0.5734,-0.5436,-0.5238,-0.5138,-0.4736,-0.4435,-0.4323,-0.4088,-0.3867,-0.3862,-0.3529,-0.3399,-0.3278,-0.3083,-0.2953,-0.2813,-0.2897,-0.3585,-0.4501,-0.4828,-0.4828,-0.4828,-0.4828,-0.4828,-0.4828,-0.4828,-0.4828,-0.4828,-0.4825,-0.4825,-0.4828,-0.4917,-0.5099,-0.5188,-0.5364,-0.5716,-0.5983,-0.6163,-0.6428,-0.6612,-0.6874,-0.7048,-0.7099,-0.4358,-0.2741,-0.2128,0.139,0.6641,1.4071,2.2381,2.9651,3.2959,3.8206,4.0578,4.073,4.0828,4.0906,4.094,4.1011,4.1055,4.1099,4.1112,4.111,4.1094,4.1085,4.1045,4.0964,4.0849,4.0713,4.0554,4.0425,4.0286,4.0099,3.9935,3.9708,3.9439,3.9202,3.8989,3.8822,3.8546,3.7853,3.6916,3.5888,3.4902,3.3863,3.2862,3.209,3.1869,3.1462,3.1117,3.0838,3.051,3.013,2.9853,2.9409,2.8951,2.8525,2.8005,2.7655,2.7233,2.6893,2.6471,2.5825,2.5009,2.4067,2.3164,2.2038,2.1198,2.0736,2.0321,1.985,-0.5135,-0.4634,-0.4634,-0.4634,-0.4533,-0.4329,-0.4029,-0.3831,-0.3527,-0.3226,-0.3025,-0.2724,-0.2615,-0.2522,-0.2305,-0.2097,-0.2065,-0.177,-0.1553,-0.1438,-0.1519,-0.196,-0.2819,-0.3358,-0.3537,-0.353,-0.3421,-0.3416,-0.3507,-0.3411,-0.34,-0.34,-0.34,-0.34,-0.3398,-0.3398,-0.3487,-0.3667,-0.3848,-0.4293,-0.4739,-0.5008,-0.5366,-0.57,-0.3852,-0.4108,-0.2565,0.167,0.6619,0.699,0.6655,1.4474,2.6297,2.8385,3.2868,3.8204,4.0119,4.0761,4.0888,4.0935,4.1006,4.1017,4.1062,4.1105,4.1112,4.111,4.1091,4.11,4.1033,4.0957,4.0859,4.0713,4.0564,4.0411,4.029,4.0176,4.0034,3.9845,3.9613,3.9402,3.9175,3.8968,3.8803,3.8535,3.8063,3.7434,3.6425,3.5523,3.4499,3.3442,3.2738,3.2258,3.1785,3.1257,3.0982,3.0716,3.0342,2.9941,2.947,2.9045,2.8716,2.8284,2.794,2.7575,2.7255,2.7034,2.6799,2.5901,2.4726,2.3745,2.2637,2.1806,2.1118,2.0673,2.022,-0.4033,-0.3533,-0.3531,-0.3429,-0.3229,-0.2925,-0.2723,-0.2421,-0.2117,-0.1916,-0.1613,-0.1513,-0.1412,-0.121,-0.0908,-0.0704,-0.05,-0.02,0.0,0.0292,0.0287,0.019,-0.047,-0.1502,-0.2347,-0.2429,-0.2493,-0.2386,-0.2195,-0.2082,-0.206,-0.1883,-0.1709,-0.188,-0.1794,-0.1709,-0.1879,-0.1969,-0.2151,-0.2694,-0.3326,-0.3771,-0.42,-0.413,0.0879,0.3371,0.4878,1.1423,1.8447,2.2512,2.3716,2.51,2.9353,3.446,3.8169,3.9721,4.075,4.0809,4.0878,4.0976,4.1033,4.1061,4.1094,4.1111,4.1111,4.1116,4.1066,4.1045,4.0953,4.0869,4.075,4.0607,4.0473,4.0342,4.0253,4.0117,3.9911,3.9735,3.9545,3.9399,3.9157,3.8968,3.8862,3.8572,3.8186,3.7739,3.7034,3.6254,3.5208,3.4076,3.3334,3.2693,3.2115,3.1584,3.1061,3.0757,3.0342,3.0,2.9576,2.9183,2.8858,2.8541,2.8235,2.794,2.7675,2.7458,2.724,2.6111,2.4817,2.404,2.3237,2.2284,2.1477,2.1059,2.0636,-0.2925,-0.2422,-0.2321,-0.2219,-0.2017,-0.1615,-0.1311,-0.1008,-0.0807,-0.0504,-0.0302,-0.0101,0.0101,0.0302,0.0605,0.0908,0.1109,0.121,0.1505,0.1687,0.1769,0.1861,0.1859,0.0877,0.0097,-0.0573,-0.0754,-0.0562,-0.0373,-0.0278,-0.0092,0.0184,0.0276,0.0369,0.046,0.0459,0.0461,0.0369,-0.0092,-0.0737,-0.1564,-0.2669,-0.1139,0.155,0.7994,1.2382,1.2672,2.0027,2.58,2.9983,3.326,3.4795,3.4556,3.8079,4.0342,4.0688,4.0761,4.0829,4.0896,4.096,4.1006,4.1117,4.1123,4.1113,4.1105,4.1101,4.1072,4.1007,4.0941,4.0849,4.0681,4.0534,4.0408,4.027,4.0196,4.0017,3.9804,3.9623,3.9521,3.938,3.9138,3.8997,3.8803,3.8572,3.8314,3.792,3.7142,3.6344,3.5811,3.4727,3.3824,3.3147,3.2492,3.1896,3.1275,3.0781,3.0342,3.0017,2.9665,2.9321,2.9045,2.8779,2.8508,2.8235,2.7925,2.7725,2.736,2.6155,2.5228,2.4514,2.3721,2.267,2.1835,2.1318,2.0885,-0.1815,-0.1311,-0.1009,-0.0907,-0.0706,-0.0303,0.0101,0.0302,0.0605,0.0908,0.1109,0.1411,0.1613,0.2016,0.2218,0.252,0.2822,0.2923,0.3215,0.341,0.3406,0.36,0.3601,0.3491,0.3064,0.1828,0.1437,0.1434,0.1622,0.1808,0.2074,0.2461,0.2652,0.2826,0.2934,0.3129,0.3206,0.3106,0.2636,0.1508,0.1117,0.0459,0.3712,0.9144,1.6718,2.0802,2.2432,2.8148,3.3211,3.3143,3.9301,4.1514,4.127,4.0915,4.1001,4.1145,4.1362,4.1498,4.1624,4.1544,4.1582,4.1479,4.1559,4.1581,4.1629,4.1527,4.1393,4.122,4.109,4.0787,4.0615,4.0485,4.0375,4.0252,4.0138,3.9975,3.9758,3.9618,3.9489,3.938,3.9138,3.8939,3.8803,3.8621,3.8382,3.8029,3.725,3.6577,3.6059,3.5447,3.4574,3.3859,3.3287,3.236,3.1685,3.0871,3.0434,3.0103,2.977,2.9502,2.9183,2.892,2.8636,2.8444,2.8186,2.794,2.7575,2.6664,2.584,2.5141,2.4177,2.3107,2.2297,2.1663,2.1207,-0.0404,0.0101,0.0101,0.0404,0.0806,0.1109,0.1412,0.1714,0.2017,0.2319,0.282,0.282,0.3224,0.3627,0.3927,0.4228,0.4628,0.4828,0.5129,0.5427,0.5427,0.5625,0.5819,0.5917,0.5787,0.5356,0.4411,0.3692,0.3679,0.4025,0.4395,0.4658,0.5131,0.532,0.5606,0.5769,0.6167,0.6267,0.5879,0.4825,0.4444,0.8309,1.235,1.7597,2.5363,2.9106,3.1178,3.729,4.22,4.1717,4.2886,4.2976,4.2565,4.2501,4.2591,4.2541,4.2615,4.2602,4.2742,4.2992,4.3148,4.3251,4.3102,4.3144,4.2995,4.2561,4.2153,4.1797,4.1306,4.0796,4.0602,4.0485,4.0372,4.027,4.0158,3.9996,3.9804,3.9642,3.9471,3.938,3.9138,3.8881,3.8792,3.8621,3.835,3.8086,3.7593,3.7149,3.6785,3.6169,3.5427,3.4792,3.4186,3.3131,3.2101,3.1183,3.0483,3.0205,2.9886,2.9637,2.9321,2.9014,2.8732,2.8589,2.8332,2.8088,2.7633,2.7055,2.6416,2.5692,2.4641,2.3526,2.2831,2.2194,2.1567,0.0908,0.1211,0.1514,0.1917,0.2217,0.2519,0.2923,0.3426,0.3627,0.4028,0.4528,0.4626,0.4929,0.5429,0.5529,0.5929,0.6429,0.6728,0.7027,0.7319,0.7419,0.7717,0.8011,0.8209,0.8308,0.828,0.7717,0.6798,0.6124,0.6279,0.681,0.7405,0.788,0.8165,0.8638,0.9116,0.9465,0.9638,0.9695,0.9668,1.0002,1.7095,2.2781,2.6702,3.3078,3.7681,3.887,4.1209,4.4267,4.3981,4.4178,4.4136,4.4026,4.3962,4.3897,4.3389,4.3311,4.3404,4.3481,4.3569,4.3577,4.3661,4.3745,4.371,4.3622,4.3248,4.2855,4.2268,4.1927,4.1228,4.0745,4.0539,4.0392,4.0288,4.0196,4.0036,3.9845,3.9665,3.9539,3.938,3.911,3.891,3.8792,3.859,3.8318,3.8086,3.781,3.7559,3.7334,3.671,3.5958,3.5278,3.4603,3.3573,3.2538,3.1692,3.0815,3.0428,2.9973,2.9754,2.9457,2.9137,2.892,2.8732,2.8493,2.8235,2.7929,2.7455,2.6842,2.6297,2.5427,2.4523,2.3552,2.2728,2.2152,0.2117,0.242,0.2925,0.3327,0.3627,0.4028,0.4531,0.5035,0.5334,0.5732,0.6326,0.6526,0.6825,0.7223,0.7524,0.7822,0.8219,0.8517,0.9004,0.9395,0.9489,0.9694,1.0288,1.0485,1.0672,1.1049,1.1225,1.0649,0.8958,0.8943,0.9461,1.0117,1.0635,1.123,1.1864,1.2571,1.303,1.3564,1.4145,1.5179,1.9797,2.5752,3.1551,3.321,4.0255,4.3521,4.3079,4.3646,4.4221,4.4346,4.4557,4.4758,4.5014,4.5213,4.4748,4.3833,4.3708,4.3865,4.4044,4.4175,4.4403,4.4493,4.4306,4.4277,4.4191,4.413,4.3571,4.268,4.214,4.1814,4.1145,4.0669,4.0463,4.0344,4.0215,4.0036,3.9867,3.9689,3.9521,3.9335,3.911,3.891,3.8803,3.859,3.8318,3.8052,3.7774,3.7577,3.7297,3.6965,3.6296,3.557,3.4822,3.3846,3.2967,3.2244,3.1388,3.0773,3.0228,2.9798,2.9531,2.9213,2.9045,2.8826,2.8589,2.8332,2.8103,2.779,2.727,2.6737,2.6205,2.5481,2.4462,2.3583,2.2922,0.3528,0.3831,0.4332,0.4734,0.5037,0.5734,0.6134,0.6334,0.693,0.7428,0.7918,0.8315,0.8609,0.9008,0.9698,1.0092,1.0386,1.0774,1.1165,1.1551,1.1648,1.2037,1.263,1.2732,1.3199,1.3573,1.3866,1.2711,1.1808,1.1996,1.2302,1.2791,1.364,1.4309,1.4943,1.5873,1.6642,1.732,1.8304,2.2162,2.7868,3.0159,3.4418,3.918,4.225,4.3493,4.3612,4.3726,4.3905,4.4121,4.4335,4.4532,4.4745,4.501,4.5178,4.517,4.5337,4.5564,4.5517,4.5481,4.5521,4.5553,4.5724,4.5936,4.56,4.5039,4.439,4.345,4.2743,4.2144,4.1648,4.1017,4.0642,4.0396,4.0272,4.0098,3.9911,3.9712,3.9588,3.9362,3.9138,3.895,3.8773,3.8541,3.8285,3.8052,3.7792,3.754,3.7259,3.6926,3.6561,3.5872,3.5352,3.4449,3.365,3.289,3.2031,3.1271,3.0626,2.9999,2.9621,2.9321,2.906,2.8873,2.8636,2.8396,2.8103,2.784,2.7595,2.7214,2.6615,2.601,2.5377,2.4552,2.3644,0.5632,0.5436,0.5734,0.6232,0.683,0.7229,0.7624,0.8223,0.8619,0.911,0.9706,1.0002,1.0489,1.1068,1.1755,1.2242,1.2436,1.2915,1.3301,1.3776,1.3962,1.4435,1.4823,1.5305,1.5778,1.6055,1.6511,1.6764,1.5705,1.4962,1.4899,1.5738,1.6476,1.7301,1.8018,1.9216,2.0176,2.1733,2.4231,2.8113,3.2074,3.4534,3.7127,4.1495,4.2408,4.2865,4.3105,4.3355,4.3612,4.3855,4.4121,4.4402,4.4674,4.4943,4.5175,4.5381,4.5577,4.5761,4.5891,4.6018,4.6123,4.6201,4.6264,4.6228,4.6205,4.5894,4.5235,4.4378,4.3481,4.2759,4.2047,4.115,4.0688,4.0408,4.029,4.0118,3.9933,3.9777,3.9613,3.9413,3.9175,3.896,3.8755,3.8541,3.8285,3.802,3.7775,3.7503,3.7259,3.6965,3.6602,3.6156,3.5711,3.5241,3.4472,3.3732,3.2667,3.188,3.1199,3.057,2.9823,2.9428,2.9199,2.8983,2.8747,2.8444,2.8103,2.7905,2.7775,2.7369,2.696,2.644,2.5819,2.5237,2.4399,0.7826,0.7428,0.7425,0.7822,0.8418,0.8612,0.9213,0.9903,1.0293,1.0886,1.1575,1.196,1.2538,1.3113,1.3878,1.4268,1.4268,1.493,1.5412,1.5785,1.6243,1.6612,1.708,1.7654,1.8103,1.8295,1.9015,1.9447,1.943,1.8967,1.8501,1.8632,1.9406,2.0219,2.1221,2.2339,2.3428,2.5502,2.8756,3.1817,3.4588,3.709,3.902,4.0758,4.1717,4.2378,4.2673,4.305,4.3391,4.3679,4.3968,4.4288,4.4613,4.487,4.5129,4.5341,4.5547,4.5727,4.588,4.6007,4.6119,4.6195,4.6245,4.6288,4.6297,4.6221,4.604,4.5227,4.4364,4.3432,4.2521,4.1571,4.0926,4.0595,4.0307,4.0118,3.9954,3.9823,3.9618,3.942,3.9183,3.8931,3.8707,3.851,3.8271,3.7969,3.7721,3.7466,3.722,3.6886,3.6643,3.6251,3.5977,3.5625,3.5091,3.433,3.3372,3.2525,3.1841,3.1116,3.0396,2.9723,2.9337,2.9122,2.892,2.8604,2.8266,2.8069,2.7905,2.7479,2.7085,2.6733,2.6257,2.5716,2.5194,0.971,1.0113,0.9608,0.9505,0.9608,1.06,1.0998,1.1282,1.2047,1.263,1.3216,1.4178,1.4752,1.5324,1.588,1.6257,1.6344,1.6814,1.7375,1.7747,1.8126,1.8672,1.9222,1.9753,2.0369,2.0917,2.1453,2.2064,2.2678,2.2717,2.2095,2.1673,2.2261,2.3162,2.4183,2.5155,2.6909,2.9006,3.173,3.3671,3.5766,3.7744,3.9337,4.0463,4.1338,4.2026,4.257,4.2918,4.3286,4.3597,4.3892,4.4188,4.4505,4.4815,4.5061,4.53,4.5514,4.5684,4.5827,4.5994,4.6113,4.6196,4.6261,4.6289,4.63,4.6241,4.6089,4.5891,4.4993,4.4249,4.335,4.246,4.1412,4.0893,4.0532,4.0215,4.0017,3.9848,3.9689,3.9427,3.9192,3.8942,3.8725,3.8541,3.8252,3.7951,3.7631,3.7392,3.7105,3.6806,3.6626,3.6377,3.6105,3.5847,3.5531,3.4785,3.4019,3.3262,3.2512,3.1794,3.0989,3.0357,2.9637,2.9279,2.9093,2.8777,2.8411,2.8201,2.7905,2.7539,2.7225,2.6902,2.6593,2.6078,2.582,1.1194,1.1678,1.1858,1.176,1.138,1.1863,1.2543,1.313,1.3698,1.4453,1.5216,1.6082,1.6655,1.7109,1.7576,1.8133,1.8403,1.888,1.9322,1.9861,2.0232,2.0782,2.1311,2.1826,2.2435,2.3037,2.3567,2.417,2.4914,2.5419,2.5981,2.571,2.5365,2.5637,2.6546,2.8021,2.9961,3.1581,3.3459,3.5235,3.6522,3.8101,3.942,4.0319,4.1237,4.1874,4.2391,4.2786,4.316,4.3495,4.3828,4.4158,4.4468,4.4745,4.5014,4.5277,4.5477,4.5651,4.58,4.5953,4.6074,4.6181,4.6251,4.6288,4.6303,4.627,4.624,4.593,4.5434,4.4694,4.4266,4.2966,4.1783,4.1296,4.085,4.0444,4.0175,4.0027,3.9712,3.9452,3.9219,3.8998,3.8785,3.8559,3.8238,3.7951,3.7613,3.7317,3.7027,3.6806,3.6643,3.6461,3.6233,3.6062,3.5793,3.5239,3.4667,3.3972,3.3185,3.2479,3.1743,3.0808,3.0161,2.9737,2.9234,2.8887,2.8554,2.8266,2.7989,2.769,2.7386,2.7152,2.6791,2.6414,2.6289,1.2457,1.3044,1.3806,1.3613,1.3044,1.3318,1.3986,1.4758,1.5235,1.6075,1.7196,1.787,1.8342,1.8788,1.9422,1.9795,2.0249,2.0709,2.115,2.1676,2.211,2.2658,2.3173,2.377,2.4351,2.4957,2.5535,2.6213,2.686,2.7579,2.8128,2.8433,2.85,2.8567,2.8959,3.0716,3.2365,3.3614,3.4889,3.626,3.7338,3.8557,3.961,4.0319,4.1146,4.1762,4.2269,4.2709,4.3105,4.3461,4.3795,4.4158,4.4449,4.4764,4.5033,4.5258,4.5477,4.5671,4.5805,4.5944,4.6072,4.6187,4.6248,4.6285,4.6289,4.6297,4.6273,4.6167,4.5618,4.5157,4.491,4.371,4.2789,4.2362,4.1399,4.0918,4.0538,4.0298,3.9868,3.9496,3.9245,3.9017,3.8755,3.8478,3.8153,3.7863,3.754,3.7279,3.7087,3.6869,3.6725,3.6561,3.6377,3.6208,3.6002,3.5508,3.5071,3.4614,3.3902,3.3261,3.2474,3.1609,3.0765,3.0242,2.9722,2.9092,2.8697,2.8427,2.8152,2.784,2.759,2.7284,2.7115,2.6805,2.6692,1.3806,1.4292,1.5057,1.4956,1.4484,1.5057,1.5527,1.5988,1.6842,1.777,1.878,1.9729,2.0192,2.0447,2.1051,2.1507,2.1854,2.2394,2.2833,2.325,2.3684,2.4221,2.4819,2.5411,2.6058,2.673,2.7209,2.7867,2.8688,2.9201,2.9973,3.0794,3.1127,3.1349,3.1079,3.255,3.3959,3.5029,3.6041,3.7144,3.8092,3.9011,3.9868,4.0563,4.1192,4.1788,4.2269,4.2709,4.3123,4.3479,4.3795,4.4158,4.4468,4.4745,4.5014,4.5297,4.5477,4.5654,4.5795,4.5977,4.6096,4.6181,4.6238,4.628,4.6289,4.6303,4.6287,4.6206,4.6033,4.5628,4.5152,4.4566,4.3879,4.3217,4.2271,4.1548,4.1208,4.0908,4.0571,3.999,3.9458,3.9036,3.8725,3.8415,3.8086,3.7774,3.7466,3.7279,3.7126,3.697,3.6806,3.6643,3.6478,3.6251,3.6019,3.58,3.5431,3.5069,3.4575,3.3931,3.3301,3.2495,3.1676,3.0925,3.018,2.9564,2.9075,2.8635,2.8314,2.7989,2.769,2.7437,2.7284,2.7181,2.7078,1.4949,1.5622,1.6183,1.6567,1.6756,1.6662,1.6936,1.7677,1.8711,1.9629,2.0257,2.0997,2.1526,2.1961,2.2394,2.2921,2.3531,2.3704,2.4145,2.4904,2.5242,2.5746,2.634,2.6905,2.7557,2.8267,2.8821,2.9369,3.0165,3.0683,3.1355,3.2173,3.3185,3.3602,3.3587,3.4351,3.5355,3.6104,3.704,3.801,3.8739,3.9506,4.022,4.0866,4.1418,4.1917,4.2351,4.2804,4.3178,4.3479,4.3828,4.4158,4.4468,4.4745,4.5033,4.5275,4.5458,4.5635,4.5805,4.5975,4.6074,4.6151,4.6221,4.6251,4.6305,4.6289,4.628,4.6257,4.6226,4.593,4.5721,4.4986,4.4342,4.4045,4.33,4.2618,4.2183,4.1939,4.1562,4.0791,4.0184,3.9396,3.8903,3.8501,3.8153,3.7898,3.7613,3.741,3.7259,3.7066,3.6869,3.6725,3.652,3.6293,3.6062,3.5888,3.5639,3.5249,3.4938,3.4572,3.3906,3.3273,3.2708,3.2015,3.1023,3.0085,2.9532,2.9043,2.8521,2.8152,2.794,2.769,2.7539,2.7423,2.7321,1.6183,1.6857,1.7498,1.8056,1.8627,1.8164,1.8434,1.9347,2.0456,2.1177,2.1704,2.2227,2.2755,2.328,2.3704,2.4221,2.4999,2.5168,2.5505,2.6351,2.6588,2.708,2.7649,2.8199,2.8821,2.9537,3.0152,3.0683,3.1368,3.1942,3.272,3.3754,3.4795,3.5225,3.5419,3.5867,3.6368,3.71,3.7953,3.8645,3.9348,3.9986,4.058,4.1082,4.1596,4.2086,4.2472,4.2842,4.3233,4.3532,4.3846,4.4177,4.4449,4.4745,4.501,4.5235,4.5457,4.5632,4.5814,4.5949,4.6047,4.6138,4.6189,4.6234,4.6297,4.6289,4.6305,4.6267,4.624,4.6183,4.5986,4.5259,4.5079,4.4776,4.423,4.3532,4.3159,4.29,4.2276,4.1506,4.0902,4.0073,3.9234,3.8629,3.8238,3.8002,3.781,3.7612,3.7352,3.7182,3.6987,3.6806,3.6643,3.6419,3.6208,3.6036,3.5728,3.5458,3.5182,3.4947,3.4592,3.3973,3.3519,3.3047,3.2128,3.1166,3.018,2.9468,2.8869,2.8523,2.8348,2.8088,2.7775,2.7675,2.7625,1.7412,1.8179,1.8912,1.9455,1.9803,1.9629,2.0085,2.1087,2.1793,2.2413,2.2931,2.356,2.4079,2.4573,2.502,2.5443,2.5935,2.6351,2.6846,2.7336,2.773,2.8303,2.8858,2.9406,2.9999,3.0607,3.1206,3.1736,3.2489,3.3213,3.4163,3.5109,3.5913,3.6415,3.6723,3.7071,3.7413,3.801,3.8574,3.9259,3.9867,4.0436,4.0901,4.1346,4.1744,4.2169,4.2552,4.2936,4.3286,4.3582,4.3878,4.4158,4.4449,4.4764,4.4967,4.5216,4.5475,4.5648,4.5805,4.5944,4.6014,4.6095,4.6137,4.6216,4.627,4.6285,4.6289,4.6278,4.6257,4.6226,4.6066,4.5966,4.5871,4.5428,4.494,4.4463,4.4115,4.3594,4.2879,4.2259,4.1788,4.1043,4.0117,3.9406,3.8882,3.845,3.824,3.781,3.7571,3.7241,3.7048,3.6869,3.6725,3.6544,3.6335,3.6105,3.5844,3.5532,3.5367,3.5135,3.4897,3.4625,3.4104,3.3616,3.3145,3.2192,3.0704,2.9754,2.9108,2.8825,2.8652,2.8396,2.8039,2.8005,2.8005,1.8434,1.9188,1.9911,2.0456,2.1078,2.1863,2.2306,2.2403,2.3028,2.356,2.4059,2.4594,2.502,2.5516,2.5946,2.6434,2.6928,2.7325,2.7891,2.8383,2.8791,2.9263,2.9806,3.0406,3.1009,3.1589,3.2187,3.269,3.3465,3.4341,3.5124,3.5928,3.6616,3.7178,3.7637,3.8042,3.8327,3.8662,3.9222,3.9747,4.0271,4.0806,4.1226,4.1569,4.2002,4.2391,4.2727,4.2994,4.3304,4.3597,4.386,4.4128,4.4411,4.4667,4.4943,4.5317,4.5514,4.5651,4.5776,4.588,4.5968,4.6046,4.6099,4.6164,4.623,4.6278,4.6289,4.6285,4.627,4.6264,4.6203,4.6127,4.6056,4.5735,4.5355,4.5128,4.4766,4.4457,4.3745,4.3052,4.2594,4.176,4.0861,4.0368,3.9841,3.9259,3.876,3.8348,3.7825,3.7514,3.7164,3.6987,3.6829,3.6667,3.6402,3.6148,3.5888,3.5622,3.5503,3.5337,3.5024,3.4785,3.4528,3.4088,3.3486,3.2273,3.083,3.0069,2.9533,2.9093,2.8889,2.8604,2.8411,2.8348,2.825,1.9546,2.0266,2.0997,2.1704,2.2501,2.3627,2.4059,2.3973,2.4251,2.4605,2.4925,2.5443,2.5935,2.6423,2.6846,2.7336,2.7846,2.8235,2.8712,2.9263,2.9664,3.0203,3.081,3.132,3.1836,3.2417,3.2988,3.3548,3.4303,3.5154,3.5991,3.6477,3.7178,3.7669,3.8132,3.8583,3.8969,3.9292,3.9713,4.0221,4.0662,4.1088,4.148,4.1831,4.221,4.2552,4.286,4.3105,4.3339,4.3597,4.386,4.4079,4.4393,4.4674,4.4991,4.5338,4.5477,4.5601,4.5715,4.5805,4.5899,4.5994,4.6047,4.6135,4.6201,4.6264,4.6284,4.6289,4.6297,4.6277,4.6201,4.613,4.6036,4.5944,4.5789,4.5645,4.5455,4.5243,4.4638,4.39,4.3175,4.2385,4.173,4.1305,4.08,4.0179,3.9733,3.9445,3.8669,3.7893,3.7438,3.7048,3.6891,3.6748,3.6485,3.6276,3.6062,3.5827,3.5622,3.5412,3.5182,3.493,3.469,3.425,3.3697,3.2595,3.1613,3.0719,3.0117,2.9721,2.9343,2.9014,2.881,2.8636,2.8589,2.0645,2.1168,2.2157,2.3038,2.4003,2.4861,2.5359,2.5538,2.5454,2.5454,2.579,2.6279,2.6775,2.7255,2.758,2.8075,2.8566,2.8961,2.9419,3.0126,3.052,3.1048,3.1542,3.22,3.2632,3.3129,3.3701,3.4249,3.492,3.5688,3.643,3.6951,3.7562,3.8059,3.8432,3.904,3.9415,3.9764,4.0171,4.068,4.0918,4.1335,4.1719,4.1917,4.2251,4.2591,4.2956,4.3178,4.3321,4.3597,4.3828,4.4017,4.4383,4.4726,4.5014,4.5256,4.5419,4.5531,4.5651,4.5761,4.5841,4.5949,4.6065,4.6113,4.6164,4.6245,4.6276,4.6289,4.6306,4.6267,4.6216,4.6151,4.6083,4.5986,4.5867,4.5727,4.5565,4.5321,4.4905,4.4266,4.382,4.3058,4.2724,4.2318,4.1791,4.1118,4.0654,4.0402,3.9733,3.8667,3.8105,3.7556,3.7343,3.7184,3.669,3.6485,3.6233,3.6019,3.58,3.5577,3.5412,3.5135,3.4851,3.451,3.4104,3.3551,3.2756,3.1838,3.1101,3.0638,3.0224,2.9637,2.9294,2.9202,2.8905,2.1624,2.2157,2.3464,2.4337,2.4935,2.5779,2.6196,2.6279,2.6775,2.6857,2.6846,2.7103,2.7522,2.7926,2.8247,2.8657,2.9184,2.9664,3.019,3.0659,3.1198,3.1643,3.22,3.2704,3.3199,3.377,3.4264,3.4854,3.5574,3.6274,3.6831,3.7282,3.7812,3.8303,3.8711,3.9309,3.9729,4.0087,4.0583,4.0888,4.1076,4.1471,4.1849,4.2061,4.2391,4.2631,4.2956,4.3142,4.3321,4.3597,4.3781,4.4079,4.4505,4.4745,4.4967,4.5173,4.5339,4.5457,4.5584,4.57,4.5805,4.5867,4.5953,4.6047,4.6127,4.6201,4.6245,4.6284,4.6289,4.6258,4.623,4.6189,4.6127,4.6017,4.5905,4.5771,4.5635,4.5341,4.5038,4.4682,4.4307,4.397,4.3608,4.3204,4.2713,4.2184,4.1651,4.1234,4.0672,3.9857,3.9292,3.878,3.8148,3.7772,3.7213,3.6771,3.6617,3.6285,3.6002,3.58,3.5639,3.5367,3.5088,3.493,3.4574,3.4053,3.3615,3.3048,3.232,3.1707,3.1112,3.0537,3.0188,3.0034,2.9591,2.258,2.3135,2.4413,2.5274,2.5863,2.6528,2.694,2.7174,2.7684,2.7914,2.7926,2.8007,2.8179,2.8657,2.8907,2.9287,2.9819,3.0279,3.081,3.1334,3.179,3.2228,3.2717,3.3199,3.3632,3.4196,3.4787,3.5444,3.6163,3.6708,3.7118,3.7535,3.8001,3.8511,3.8969,3.9451,3.9935,4.0305,4.0858,4.1093,4.1215,4.1604,4.1909,4.2163,4.2391,4.267,4.29,4.3087,4.3304,4.3597,4.3846,4.4147,4.4468,4.4693,4.4895,4.5084,4.5256,4.5419,4.5532,4.5654,4.575,4.5814,4.5873,4.5986,4.6104,4.617,4.6245,4.6273,4.6289,4.6265,4.6267,4.6231,4.6157,4.6056,4.5922,4.578,4.5599,4.5341,4.5084,4.4852,4.4553,4.4364,4.4042,4.3801,4.3352,4.3103,4.2574,4.2305,4.1705,4.1106,4.054,4.0027,3.9451,3.8531,3.7807,3.7365,3.7078,3.6738,3.6285,3.5958,3.5711,3.5549,3.5367,3.5182,3.4944,3.4638,3.4199,3.3695,3.3306,3.2688,3.2057,3.1429,3.1172,3.0965,3.0741,2.3551,2.4186,2.5189,2.603,2.6599,2.7174,2.758,2.7903,2.8419,2.8736,2.8882,2.8749,2.8907,2.9221,2.9611,3.0075,3.052,3.0885,3.1408,3.179,3.2228,3.2731,3.3227,3.3716,3.4128,3.4721,3.5379,3.5894,3.6492,3.6952,3.7358,3.7801,3.8246,3.875,3.9131,3.9609,4.0087,4.0387,4.0793,4.1105,4.138,4.171,4.197,4.2205,4.2432,4.2688,4.29,4.3087,4.3268,4.3548,4.3846,4.4177,4.4411,4.4613,4.4815,4.501,4.5192,4.5339,4.5457,4.5587,4.5668,4.5757,4.5854,4.5941,4.6066,4.6146,4.6215,4.6261,4.6284,4.6289,4.6276,4.6245,4.6177,4.6074,4.5944,4.5794,4.558,4.538,4.5173,4.4943,4.4796,4.464,4.4421,4.4188,4.3955,4.373,4.3495,4.3286,4.2923,4.234,4.1755,4.1351,4.0849,3.9882,3.8717,3.8035,3.772,3.7189,3.6738,3.6268,3.5888,3.5756,3.5594,3.5367,3.5131,3.4988,3.4684,3.4277,3.387,3.3561,3.2896,3.2313,3.2245,3.2052,3.2112,2.4594,2.5559,2.6313,2.6787,2.7185,2.7926,2.8339,2.8419,2.8816,2.9221,2.9534,2.9546,2.9624,2.9702,3.0075,3.052,3.1048,3.1421,3.179,3.2169,3.2674,3.3227,3.3716,3.4196,3.4668,3.5264,3.591,3.6414,3.6723,3.7194,3.7594,3.8001,3.8359,3.886,3.9432,3.9833,4.0188,4.0534,4.0853,4.1163,4.1363,4.1648,4.197,4.2205,4.2432,4.2649,4.2842,4.3068,4.3232,4.3461,4.3781,4.4097,4.4383,4.4551,4.4738,4.4938,4.5103,4.5256,4.54,4.5514,4.5599,4.5696,4.58,4.588,4.5994,4.6095,4.6157,4.6216,4.6254,4.6289,4.6284,4.6238,4.617,4.6074,4.5933,4.5827,4.5668,4.5475,4.5301,4.5109,4.4967,4.4796,4.4587,4.4393,4.4218,4.3955,4.3712,4.3495,4.3339,4.3105,4.2847,4.2443,4.2019,4.1145,3.9964,3.8858,3.8304,3.7778,3.7137,3.6533,3.6148,3.6019,3.5844,3.5622,3.5487,3.5362,3.5044,3.4728,3.4634,3.4308,3.3674,3.3156,3.3151,3.3116,3.3159]}]]